<?xml version='1.0' encoding='UTF-8'?><gpx version="1.1" creator="JPX - https://github.com/jenetics/jpx" xmlns="http://www.topografix.com/GPX/1/1"><trk><trkseg><trkpt lat="43.3510317" lon="11.988765"><ele>295.0</ele><time>2026-04-06T07:11:38.906Z</time></trkpt><trkpt lat="43.3510183" lon="11.98867"><ele>295.0</ele><time>2026-04-06T07:13:53.906Z</time></trkpt><trkpt lat="43.351015" lon="11.9887817"><ele>295.0</ele><time>2026-04-06T07:15:48.913Z</time></trkpt><trkpt lat="43.3509367" lon="11.98882"><ele>295.0</ele><time>2026-04-06T07:15:53.929Z</time></trkpt><trkpt lat="43.3508617" lon="11.9888133"><ele>295.0</ele><time>2026-04-06T07:15:57.91Z</time></trkpt><trkpt lat="43.3507983" lon="11.9888217"><ele>295.0</ele><time>2026-04-06T07:16:00.906Z</time></trkpt><trkpt lat="43.3507233" lon="11.988805"><ele>295.00000000000006</ele><time>2026-04-06T07:16:03.911Z</time></trkpt><trkpt lat="43.35065" lon="11.9887817"><ele>295.0</ele><time>2026-04-06T07:16:06.908Z</time></trkpt><trkpt lat="43.3505817" lon="11.9887567"><ele>295.0</ele><time>2026-04-06T07:16:09.914Z</time></trkpt><trkpt lat="43.3505117" lon="11.9887283"><ele>295.0</ele><time>2026-04-06T07:16:12.913Z</time></trkpt><trkpt lat="43.3504517" lon="11.9887"><ele>295.0</ele><time>2026-04-06T07:16:15.902Z</time></trkpt><trkpt lat="43.3503983" lon="11.9886417"><ele>295.00000000000006</ele><time>2026-04-06T07:16:19.931Z</time></trkpt><trkpt lat="43.3503367" lon="11.98859"><ele>295.0</ele><time>2026-04-06T07:16:22.913Z</time></trkpt><trkpt lat="43.3502767" lon="11.98851"><ele>295.3333333333333</ele><time>2026-04-06T07:16:25.91Z</time></trkpt><trkpt lat="43.350225" lon="11.988445"><ele>295.66666666666663</ele><time>2026-04-06T07:16:27.914Z</time></trkpt><trkpt lat="43.3501683" lon="11.9883533"><ele>296.0</ele><time>2026-04-06T07:16:30.907Z</time></trkpt><trkpt lat="43.3501267" lon="11.988265"><ele>296.3333333333333</ele><time>2026-04-06T07:16:33.908Z</time></trkpt><trkpt lat="43.3500967" lon="11.98818"><ele>296.6666666666667</ele><time>2026-04-06T07:16:36.9Z</time></trkpt><trkpt lat="43.3500633" lon="11.9880933"><ele>297.0</ele><time>2026-04-06T07:16:39.912Z</time></trkpt><trkpt lat="43.3500217" lon="11.9880017"><ele>297.0</ele><time>2026-04-06T07:16:41.902Z</time></trkpt><trkpt lat="43.3499733" lon="11.98788"><ele>297.0</ele><time>2026-04-06T07:16:43.91Z</time></trkpt><trkpt lat="43.3499233" lon="11.9877217"><ele>297.0</ele><time>2026-04-06T07:16:45.914Z</time></trkpt><trkpt lat="43.349895" lon="11.9876217"><ele>297.0</ele><time>2026-04-06T07:16:46.904Z</time></trkpt><trkpt lat="43.3498733" lon="11.9875283"><ele>297.0</ele><time>2026-04-06T07:16:47.933Z</time></trkpt><trkpt lat="43.34986" lon="11.9874417"><ele>297.0</ele><time>2026-04-06T07:16:48.911Z</time></trkpt><trkpt lat="43.3498533" lon="11.987355"><ele>296.8</ele><time>2026-04-06T07:16:49.91Z</time></trkpt><trkpt lat="43.3498367" lon="11.9871967"><ele>296.6</ele><time>2026-04-06T07:16:51.913Z</time></trkpt><trkpt lat="43.3498267" lon="11.98705"><ele>296.40000000000003</ele><time>2026-04-06T07:16:53.907Z</time></trkpt><trkpt lat="43.34981" lon="11.98693"><ele>296.2</ele><time>2026-04-06T07:16:55.906Z</time></trkpt><trkpt lat="43.3497733" lon="11.986795"><ele>296.0</ele><time>2026-04-06T07:16:57.906Z</time></trkpt><trkpt lat="43.3497383" lon="11.9866517"><ele>295.6</ele><time>2026-04-06T07:16:59.906Z</time></trkpt><trkpt lat="43.3497133" lon="11.9864933"><ele>295.20000000000005</ele><time>2026-04-06T07:17:01.909Z</time></trkpt><trkpt lat="43.3496633" lon="11.9863367"><ele>294.79999999999995</ele><time>2026-04-06T07:17:03.922Z</time></trkpt><trkpt lat="43.3496367" lon="11.9862467"><ele>294.4</ele><time>2026-04-06T07:17:04.902Z</time></trkpt><trkpt lat="43.349615" lon="11.9861567"><ele>294.0</ele><time>2026-04-06T07:17:05.906Z</time></trkpt><trkpt lat="43.3495983" lon="11.9860617"><ele>294.2857142857143</ele><time>2026-04-06T07:17:06.911Z</time></trkpt><trkpt lat="43.3495783" lon="11.98597"><ele>294.57142857142856</ele><time>2026-04-06T07:17:07.903Z</time></trkpt><trkpt lat="43.3495567" lon="11.9858783"><ele>294.8571428571429</ele><time>2026-04-06T07:17:08.921Z</time></trkpt><trkpt lat="43.3495367" lon="11.9857817"><ele>295.1428571428571</ele><time>2026-04-06T07:17:09.905Z</time></trkpt><trkpt lat="43.349515" lon="11.9856783"><ele>295.42857142857144</ele><time>2026-04-06T07:17:10.907Z</time></trkpt><trkpt lat="43.3494933" lon="11.9855833"><ele>295.7142857142857</ele><time>2026-04-06T07:17:11.91Z</time></trkpt><trkpt lat="43.349475" lon="11.9854883"><ele>296.0</ele><time>2026-04-06T07:17:12.909Z</time></trkpt><trkpt lat="43.3494567" lon="11.9854033"><ele>296.0</ele><time>2026-04-06T07:17:13.903Z</time></trkpt><trkpt lat="43.3494367" lon="11.9853117"><ele>296.0</ele><time>2026-04-06T07:17:14.918Z</time></trkpt><trkpt lat="43.3494133" lon="11.985225"><ele>296.0</ele><time>2026-04-06T07:17:15.895Z</time></trkpt><trkpt lat="43.34939" lon="11.9851317"><ele>296.0</ele><time>2026-04-06T07:17:16.894Z</time></trkpt><trkpt lat="43.349365" lon="11.985045"><ele>296.0</ele><time>2026-04-06T07:17:17.911Z</time></trkpt><trkpt lat="43.349335" lon="11.98496"><ele>296.0</ele><time>2026-04-06T07:17:18.901Z</time></trkpt><trkpt lat="43.34932" lon="11.984875"><ele>296.0</ele><time>2026-04-06T07:17:19.916Z</time></trkpt><trkpt lat="43.3493067" lon="11.98479"><ele>294.8</ele><time>2026-04-06T07:17:20.911Z</time></trkpt><trkpt lat="43.3492917" lon="11.9846383"><ele>293.6</ele><time>2026-04-06T07:17:22.908Z</time></trkpt><trkpt lat="43.3492817" lon="11.9845"><ele>292.4</ele><time>2026-04-06T07:17:24.913Z</time></trkpt><trkpt lat="43.3492767" lon="11.9843733"><ele>291.2</ele><time>2026-04-06T07:17:26.902Z</time></trkpt><trkpt lat="43.34927" lon="11.98424"><ele>290.0</ele><time>2026-04-06T07:17:28.907Z</time></trkpt><trkpt lat="43.34927" lon="11.9841383"><ele>290.0</ele><time>2026-04-06T07:17:30.915Z</time></trkpt><trkpt lat="43.3492667" lon="11.984035"><ele>290.0</ele><time>2026-04-06T07:17:33.927Z</time></trkpt><trkpt lat="43.34924" lon="11.9839083"><ele>290.0</ele><time>2026-04-06T07:18:05.908Z</time></trkpt><trkpt lat="43.349205" lon="11.983795"><ele>290.0</ele><time>2026-04-06T07:18:08.911Z</time></trkpt><trkpt lat="43.3492" lon="11.983665"><ele>290.0</ele><time>2026-04-06T07:18:10.907Z</time></trkpt><trkpt lat="43.3491867" lon="11.9835383"><ele>290.0</ele><time>2026-04-06T07:18:12.905Z</time></trkpt><trkpt lat="43.3491633" lon="11.9834083"><ele>289.6</ele><time>2026-04-06T07:18:14.917Z</time></trkpt><trkpt lat="43.3491483" lon="11.9832583"><ele>289.2</ele><time>2026-04-06T07:18:16.908Z</time></trkpt><trkpt lat="43.3491167" lon="11.98311"><ele>288.8</ele><time>2026-04-06T07:18:18.91Z</time></trkpt><trkpt lat="43.349075" lon="11.9829683"><ele>288.4</ele><time>2026-04-06T07:18:20.909Z</time></trkpt><trkpt lat="43.3490217" lon="11.98283"><ele>288.0</ele><time>2026-04-06T07:18:22.911Z</time></trkpt><trkpt lat="43.3489567" lon="11.9826933"><ele>288.0</ele><time>2026-04-06T07:18:24.909Z</time></trkpt><trkpt lat="43.3488983" lon="11.9825517"><ele>288.0</ele><time>2026-04-06T07:18:26.913Z</time></trkpt><trkpt lat="43.3488417" lon="11.982405"><ele>288.0</ele><time>2026-04-06T07:18:28.92Z</time></trkpt><trkpt lat="43.3487917" lon="11.982255"><ele>288.0</ele><time>2026-04-06T07:18:30.907Z</time></trkpt><trkpt lat="43.3487583" lon="11.98211"><ele>287.8</ele><time>2026-04-06T07:18:32.914Z</time></trkpt><trkpt lat="43.3487283" lon="11.9819783"><ele>287.6</ele><time>2026-04-06T07:18:34.91Z</time></trkpt><trkpt lat="43.3486983" lon="11.9818517"><ele>287.4</ele><time>2026-04-06T07:18:36.915Z</time></trkpt><trkpt lat="43.34865" lon="11.9817333"><ele>287.2</ele><time>2026-04-06T07:18:38.909Z</time></trkpt><trkpt lat="43.348595" lon="11.98162"><ele>287.0</ele><time>2026-04-06T07:18:40.913Z</time></trkpt><trkpt lat="43.34854" lon="11.981495"><ele>286.6</ele><time>2026-04-06T07:18:42.909Z</time></trkpt><trkpt lat="43.3484783" lon="11.981385"><ele>286.2</ele><time>2026-04-06T07:18:44.903Z</time></trkpt><trkpt lat="43.3484167" lon="11.9812767"><ele>285.8</ele><time>2026-04-06T07:18:46.905Z</time></trkpt><trkpt lat="43.348355" lon="11.9811717"><ele>285.4</ele><time>2026-04-06T07:18:48.906Z</time></trkpt><trkpt lat="43.3482883" lon="11.981065"><ele>285.0</ele><time>2026-04-06T07:18:50.912Z</time></trkpt><trkpt lat="43.3482333" lon="11.9809433"><ele>285.0</ele><time>2026-04-06T07:18:52.918Z</time></trkpt><trkpt lat="43.3481783" lon="11.98083"><ele>285.0</ele><time>2026-04-06T07:18:54.918Z</time></trkpt><trkpt lat="43.3481167" lon="11.9807183"><ele>285.0</ele><time>2026-04-06T07:18:56.909Z</time></trkpt><trkpt lat="43.3480533" lon="11.980605"><ele>285.0</ele><time>2026-04-06T07:18:58.911Z</time></trkpt><trkpt lat="43.3479833" lon="11.9804933"><ele>285.0</ele><time>2026-04-06T07:19:00.916Z</time></trkpt><trkpt lat="43.3479117" lon="11.98038"><ele>285.0</ele><time>2026-04-06T07:19:02.909Z</time></trkpt><trkpt lat="43.34784" lon="11.9802783"><ele>285.0</ele><time>2026-04-06T07:19:04.909Z</time></trkpt><trkpt lat="43.3477683" lon="11.9801783"><ele>285.0</ele><time>2026-04-06T07:19:06.911Z</time></trkpt><trkpt lat="43.34771" lon="11.9800733"><ele>285.0</ele><time>2026-04-06T07:19:08.903Z</time></trkpt><trkpt lat="43.3476433" lon="11.9799717"><ele>285.0</ele><time>2026-04-06T07:19:10.915Z</time></trkpt><trkpt lat="43.3475783" lon="11.9798683"><ele>285.0</ele><time>2026-04-06T07:19:12.917Z</time></trkpt><trkpt lat="43.347515" lon="11.9797483"><ele>285.0</ele><time>2026-04-06T07:19:14.911Z</time></trkpt><trkpt lat="43.3474583" lon="11.9796233"><ele>285.0</ele><time>2026-04-06T07:19:16.903Z</time></trkpt><trkpt lat="43.3474033" lon="11.9795083"><ele>285.0</ele><time>2026-04-06T07:19:18.911Z</time></trkpt><trkpt lat="43.3473483" lon="11.9793917"><ele>285.0</ele><time>2026-04-06T07:19:20.919Z</time></trkpt><trkpt lat="43.3473017" lon="11.9792717"><ele>284.8333333333333</ele><time>2026-04-06T07:19:22.91Z</time></trkpt><trkpt lat="43.3472617" lon="11.9791517"><ele>284.6666666666667</ele><time>2026-04-06T07:19:24.909Z</time></trkpt><trkpt lat="43.34722" lon="11.97904"><ele>284.5</ele><time>2026-04-06T07:19:26.908Z</time></trkpt><trkpt lat="43.3471783" lon="11.9789383"><ele>284.33333333333337</ele><time>2026-04-06T07:19:28.914Z</time></trkpt><trkpt lat="43.3471367" lon="11.9788367"><ele>284.1666666666667</ele><time>2026-04-06T07:19:30.909Z</time></trkpt><trkpt lat="43.3471" lon="11.9787433"><ele>284.0</ele><time>2026-04-06T07:19:32.907Z</time></trkpt><trkpt lat="43.3470633" lon="11.9786483"><ele>284.5</ele><time>2026-04-06T07:19:34.914Z</time></trkpt><trkpt lat="43.3470133" lon="11.9785583"><ele>285.0</ele><time>2026-04-06T07:19:36.911Z</time></trkpt><trkpt lat="43.3469667" lon="11.9784717"><ele>285.5</ele><time>2026-04-06T07:19:38.912Z</time></trkpt><trkpt lat="43.3469117" lon="11.9784017"><ele>286.0</ele><time>2026-04-06T07:19:40.91Z</time></trkpt><trkpt lat="43.34686" lon="11.9783217"><ele>286.5</ele><time>2026-04-06T07:19:42.909Z</time></trkpt><trkpt lat="43.3468017" lon="11.97823"><ele>287.0</ele><time>2026-04-06T07:19:44.911Z</time></trkpt><trkpt lat="43.3467433" lon="11.978115"><ele>287.0</ele><time>2026-04-06T07:19:46.909Z</time></trkpt><trkpt lat="43.346675" lon="11.978"><ele>287.0</ele><time>2026-04-06T07:19:48.904Z</time></trkpt><trkpt lat="43.34661" lon="11.9778867"><ele>287.0</ele><time>2026-04-06T07:19:50.905Z</time></trkpt><trkpt lat="43.346545" lon="11.9777433"><ele>287.0</ele><time>2026-04-06T07:19:52.91Z</time></trkpt><trkpt lat="43.3464917" lon="11.9776067"><ele>287.0</ele><time>2026-04-06T07:19:54.91Z</time></trkpt><trkpt lat="43.3464567" lon="11.97746"><ele>286.6666666666667</ele><time>2026-04-06T07:19:56.91Z</time></trkpt><trkpt lat="43.3464283" lon="11.97738"><ele>286.33333333333337</ele><time>2026-04-06T07:19:57.909Z</time></trkpt><trkpt lat="43.346395" lon="11.9772983"><ele>286.0</ele><time>2026-04-06T07:19:58.916Z</time></trkpt><trkpt lat="43.3463667" lon="11.9772183"><ele>285.6666666666667</ele><time>2026-04-06T07:19:59.92Z</time></trkpt><trkpt lat="43.3463417" lon="11.9771367"><ele>285.3333333333333</ele><time>2026-04-06T07:20:00.903Z</time></trkpt><trkpt lat="43.346325" lon="11.9770433"><ele>285.0</ele><time>2026-04-06T07:20:01.915Z</time></trkpt><trkpt lat="43.34629" lon="11.976875"><ele>285.0</ele><time>2026-04-06T07:20:03.91Z</time></trkpt><trkpt lat="43.346275" lon="11.97679"><ele>285.0</ele><time>2026-04-06T07:20:04.913Z</time></trkpt><trkpt lat="43.34626" lon="11.976705"><ele>285.0</ele><time>2026-04-06T07:20:05.912Z</time></trkpt><trkpt lat="43.3462433" lon="11.9766183"><ele>285.0</ele><time>2026-04-06T07:20:06.897Z</time></trkpt><trkpt lat="43.346215" lon="11.976455"><ele>285.0</ele><time>2026-04-06T07:20:08.903Z</time></trkpt><trkpt lat="43.3461867" lon="11.976315"><ele>285.0</ele><time>2026-04-06T07:20:10.907Z</time></trkpt><trkpt lat="43.3461533" lon="11.97618"><ele>285.0</ele><time>2026-04-06T07:20:12.905Z</time></trkpt><trkpt lat="43.3461083" lon="11.9760433"><ele>285.0</ele><time>2026-04-06T07:20:14.914Z</time></trkpt><trkpt lat="43.346045" lon="11.9759133"><ele>285.0</ele><time>2026-04-06T07:20:16.902Z</time></trkpt><trkpt lat="43.345985" lon="11.97579"><ele>285.0</ele><time>2026-04-06T07:20:18.906Z</time></trkpt><trkpt lat="43.3459167" lon="11.9756767"><ele>285.0</ele><time>2026-04-06T07:20:20.903Z</time></trkpt><trkpt lat="43.3458633" lon="11.9755517"><ele>285.2</ele><time>2026-04-06T07:20:22.908Z</time></trkpt><trkpt lat="43.3458067" lon="11.975445"><ele>285.4</ele><time>2026-04-06T07:20:24.904Z</time></trkpt><trkpt lat="43.3457333" lon="11.9753317"><ele>285.6</ele><time>2026-04-06T07:20:26.912Z</time></trkpt><trkpt lat="43.3456517" lon="11.975225"><ele>285.8</ele><time>2026-04-06T07:20:28.914Z</time></trkpt><trkpt lat="43.3455667" lon="11.9751233"><ele>286.0</ele><time>2026-04-06T07:20:30.918Z</time></trkpt><trkpt lat="43.345485" lon="11.97503"><ele>286.2</ele><time>2026-04-06T07:20:32.929Z</time></trkpt><trkpt lat="43.3454167" lon="11.97495"><ele>286.40000000000003</ele><time>2026-04-06T07:20:34.913Z</time></trkpt><trkpt lat="43.3453333" lon="11.974875"><ele>286.6</ele><time>2026-04-06T07:20:36.911Z</time></trkpt><trkpt lat="43.3452533" lon="11.9747983"><ele>286.8</ele><time>2026-04-06T07:20:38.925Z</time></trkpt><trkpt lat="43.3451783" lon="11.9747233"><ele>287.0</ele><time>2026-04-06T07:20:40.901Z</time></trkpt><trkpt lat="43.3451133" lon="11.97465"><ele>287.0</ele><time>2026-04-06T07:20:42.904Z</time></trkpt><trkpt lat="43.3450617" lon="11.9745667"><ele>287.0</ele><time>2026-04-06T07:20:44.912Z</time></trkpt><trkpt lat="43.3450233" lon="11.9744833"><ele>287.0</ele><time>2026-04-06T07:20:46.91Z</time></trkpt><trkpt lat="43.3449983" lon="11.9743833"><ele>287.0</ele><time>2026-04-06T07:20:48.91Z</time></trkpt><trkpt lat="43.3449783" lon="11.97428"><ele>287.0</ele><time>2026-04-06T07:20:50.913Z</time></trkpt><trkpt lat="43.3449467" lon="11.9741567"><ele>287.0</ele><time>2026-04-06T07:20:52.907Z</time></trkpt><trkpt lat="43.34493" lon="11.9740717"><ele>287.14285714285717</ele><time>2026-04-06T07:20:53.911Z</time></trkpt><trkpt lat="43.3449033" lon="11.9739867"><ele>287.2857142857143</ele><time>2026-04-06T07:20:54.906Z</time></trkpt><trkpt lat="43.3448767" lon="11.973905"><ele>287.42857142857144</ele><time>2026-04-06T07:20:55.909Z</time></trkpt><trkpt lat="43.344845" lon="11.9738217"><ele>287.57142857142856</ele><time>2026-04-06T07:20:56.907Z</time></trkpt><trkpt lat="43.3448117" lon="11.9737367"><ele>287.7142857142857</ele><time>2026-04-06T07:20:57.922Z</time></trkpt><trkpt lat="43.3447767" lon="11.9736533"><ele>287.8571428571429</ele><time>2026-04-06T07:20:58.908Z</time></trkpt><trkpt lat="43.344745" lon="11.9735633"><ele>288.0</ele><time>2026-04-06T07:20:59.909Z</time></trkpt><trkpt lat="43.3447167" lon="11.9734783"><ele>288.8571428571429</ele><time>2026-04-06T07:21:00.909Z</time></trkpt><trkpt lat="43.34469" lon="11.9733933"><ele>289.7142857142857</ele><time>2026-04-06T07:21:01.905Z</time></trkpt><trkpt lat="43.3446683" lon="11.9733067"><ele>290.57142857142856</ele><time>2026-04-06T07:21:02.905Z</time></trkpt><trkpt lat="43.3446417" lon="11.9732183"><ele>291.42857142857144</ele><time>2026-04-06T07:21:03.906Z</time></trkpt><trkpt lat="43.34462" lon="11.973135"><ele>292.2857142857143</ele><time>2026-04-06T07:21:04.917Z</time></trkpt><trkpt lat="43.3445983" lon="11.97305"><ele>293.14285714285717</ele><time>2026-04-06T07:21:05.911Z</time></trkpt><trkpt lat="43.344575" lon="11.9729633"><ele>294.0</ele><time>2026-04-06T07:21:06.904Z</time></trkpt><trkpt lat="43.344555" lon="11.9728783"><ele>294.0</ele><time>2026-04-06T07:21:07.915Z</time></trkpt><trkpt lat="43.3445217" lon="11.9727167"><ele>294.0</ele><time>2026-04-06T07:21:09.914Z</time></trkpt><trkpt lat="43.3444883" lon="11.9725667"><ele>294.0</ele><time>2026-04-06T07:21:11.899Z</time></trkpt><trkpt lat="43.344455" lon="11.9724317"><ele>294.0</ele><time>2026-04-06T07:21:13.911Z</time></trkpt><trkpt lat="43.3444317" lon="11.972295"><ele>294.0</ele><time>2026-04-06T07:21:15.91Z</time></trkpt><trkpt lat="43.3443933" lon="11.9721717"><ele>292.8</ele><time>2026-04-06T07:21:17.907Z</time></trkpt><trkpt lat="43.344355" lon="11.9720417"><ele>291.59999999999997</ele><time>2026-04-06T07:21:19.9Z</time></trkpt><trkpt lat="43.3443083" lon="11.971905"><ele>290.4</ele><time>2026-04-06T07:21:21.913Z</time></trkpt><trkpt lat="43.344265" lon="11.9717683"><ele>289.2</ele><time>2026-04-06T07:21:23.913Z</time></trkpt><trkpt lat="43.3442233" lon="11.971645"><ele>288.0</ele><time>2026-04-06T07:21:25.911Z</time></trkpt><trkpt lat="43.34418" lon="11.971515"><ele>288.0</ele><time>2026-04-06T07:21:27.909Z</time></trkpt><trkpt lat="43.34413" lon="11.9713833"><ele>288.0</ele><time>2026-04-06T07:21:29.908Z</time></trkpt><trkpt lat="43.34409" lon="11.9712533"><ele>288.0</ele><time>2026-04-06T07:21:31.913Z</time></trkpt><trkpt lat="43.344055" lon="11.9711133"><ele>288.0</ele><time>2026-04-06T07:21:33.905Z</time></trkpt><trkpt lat="43.34402" lon="11.9709683"><ele>288.0</ele><time>2026-04-06T07:21:35.913Z</time></trkpt><trkpt lat="43.3439867" lon="11.9708033"><ele>286.8571428571429</ele><time>2026-04-06T07:21:37.904Z</time></trkpt><trkpt lat="43.3439733" lon="11.9707183"><ele>285.7142857142857</ele><time>2026-04-06T07:21:38.91Z</time></trkpt><trkpt lat="43.3439617" lon="11.9706267"><ele>284.57142857142856</ele><time>2026-04-06T07:21:39.922Z</time></trkpt><trkpt lat="43.3439567" lon="11.9705283"><ele>283.42857142857144</ele><time>2026-04-06T07:21:40.911Z</time></trkpt><trkpt lat="43.3439517" lon="11.97043"><ele>282.2857142857143</ele><time>2026-04-06T07:21:41.919Z</time></trkpt><trkpt lat="43.34395" lon="11.9703317"><ele>281.14285714285717</ele><time>2026-04-06T07:21:42.911Z</time></trkpt><trkpt lat="43.343955" lon="11.970235"><ele>280.0</ele><time>2026-04-06T07:21:43.909Z</time></trkpt><trkpt lat="43.3439533" lon="11.970135"><ele>280.0</ele><time>2026-04-06T07:21:44.907Z</time></trkpt><trkpt lat="43.3439433" lon="11.97004"><ele>280.0</ele><time>2026-04-06T07:21:45.908Z</time></trkpt><trkpt lat="43.3439317" lon="11.96995"><ele>280.0</ele><time>2026-04-06T07:21:46.914Z</time></trkpt><trkpt lat="43.3439167" lon="11.9698517"><ele>280.0</ele><time>2026-04-06T07:21:47.911Z</time></trkpt><trkpt lat="43.3438983" lon="11.969755"><ele>280.0</ele><time>2026-04-06T07:21:48.918Z</time></trkpt><trkpt lat="43.3438817" lon="11.969665"><ele>280.0</ele><time>2026-04-06T07:21:49.908Z</time></trkpt><trkpt lat="43.34386" lon="11.9695717"><ele>280.0</ele><time>2026-04-06T07:21:50.907Z</time></trkpt><trkpt lat="43.3438417" lon="11.9694817"><ele>279.8333333333333</ele><time>2026-04-06T07:21:51.91Z</time></trkpt><trkpt lat="43.3438217" lon="11.9693933"><ele>279.66666666666663</ele><time>2026-04-06T07:21:52.913Z</time></trkpt><trkpt lat="43.343805" lon="11.9693083"><ele>279.5</ele><time>2026-04-06T07:21:53.912Z</time></trkpt><trkpt lat="43.3437867" lon="11.9692233"><ele>279.3333333333333</ele><time>2026-04-06T07:21:54.913Z</time></trkpt><trkpt lat="43.3437517" lon="11.969075"><ele>279.1666666666667</ele><time>2026-04-06T07:21:56.901Z</time></trkpt><trkpt lat="43.343715" lon="11.9689267"><ele>279.0</ele><time>2026-04-06T07:21:58.896Z</time></trkpt><trkpt lat="43.3436833" lon="11.9687683"><ele>279.0</ele><time>2026-04-06T07:22:00.904Z</time></trkpt><trkpt lat="43.3436667" lon="11.968615"><ele>279.0</ele><time>2026-04-06T07:22:02.915Z</time></trkpt><trkpt lat="43.3436417" lon="11.96846"><ele>279.0</ele><time>2026-04-06T07:22:04.903Z</time></trkpt><trkpt lat="43.34362" lon="11.9683033"><ele>279.0</ele><time>2026-04-06T07:22:06.914Z</time></trkpt><trkpt lat="43.3436017" lon="11.9681633"><ele>279.0</ele><time>2026-04-06T07:22:08.92Z</time></trkpt><trkpt lat="43.3435717" lon="11.9680117"><ele>278.8333333333333</ele><time>2026-04-06T07:22:10.918Z</time></trkpt><trkpt lat="43.3435417" lon="11.96787"><ele>278.6666666666667</ele><time>2026-04-06T07:22:12.904Z</time></trkpt><trkpt lat="43.3435183" lon="11.9677417"><ele>278.5</ele><time>2026-04-06T07:22:14.909Z</time></trkpt><trkpt lat="43.3435" lon="11.9676317"><ele>278.33333333333337</ele><time>2026-04-06T07:22:16.919Z</time></trkpt><trkpt lat="43.34348" lon="11.9675417"><ele>278.1666666666667</ele><time>2026-04-06T07:23:07.903Z</time></trkpt><trkpt lat="43.3434633" lon="11.9674533"><ele>278.0</ele><time>2026-04-06T07:23:09.899Z</time></trkpt><trkpt lat="43.3434367" lon="11.9673317"><ele>277.8</ele><time>2026-04-06T07:23:11.906Z</time></trkpt><trkpt lat="43.34341" lon="11.9672067"><ele>277.6</ele><time>2026-04-06T07:23:13.905Z</time></trkpt><trkpt lat="43.34338" lon="11.96707"><ele>277.4</ele><time>2026-04-06T07:23:15.91Z</time></trkpt><trkpt lat="43.34334" lon="11.966935"><ele>277.2</ele><time>2026-04-06T07:23:17.908Z</time></trkpt><trkpt lat="43.3433033" lon="11.9667967"><ele>277.0</ele><time>2026-04-06T07:23:19.915Z</time></trkpt><trkpt lat="43.3432717" lon="11.96666"><ele>276.75</ele><time>2026-04-06T07:23:21.924Z</time></trkpt><trkpt lat="43.343235" lon="11.9665217"><ele>276.5</ele><time>2026-04-06T07:23:23.92Z</time></trkpt><trkpt lat="43.3431917" lon="11.9663717"><ele>276.25</ele><time>2026-04-06T07:23:25.912Z</time></trkpt><trkpt lat="43.3431467" lon="11.9662167"><ele>276.0</ele><time>2026-04-06T07:23:27.905Z</time></trkpt><trkpt lat="43.3431017" lon="11.966055"><ele>276.0</ele><time>2026-04-06T07:23:29.912Z</time></trkpt><trkpt lat="43.34306" lon="11.965905"><ele>276.0</ele><time>2026-04-06T07:23:31.919Z</time></trkpt><trkpt lat="43.343025" lon="11.9657667"><ele>276.0</ele><time>2026-04-06T07:23:33.907Z</time></trkpt><trkpt lat="43.3429917" lon="11.9656367"><ele>276.0</ele><time>2026-04-06T07:23:35.908Z</time></trkpt><trkpt lat="43.3429533" lon="11.9655117"><ele>276.0</ele><time>2026-04-06T07:23:37.91Z</time></trkpt><trkpt lat="43.342905" lon="11.965365"><ele>276.0</ele><time>2026-04-06T07:23:39.909Z</time></trkpt><trkpt lat="43.3428483" lon="11.9652117"><ele>276.0</ele><time>2026-04-06T07:23:41.911Z</time></trkpt><trkpt lat="43.3428167" lon="11.9651317"><ele>276.0</ele><time>2026-04-06T07:23:42.899Z</time></trkpt><trkpt lat="43.3427817" lon="11.96505"><ele>276.0</ele><time>2026-04-06T07:23:43.899Z</time></trkpt><trkpt lat="43.3427267" lon="11.9648967"><ele>276.0</ele><time>2026-04-06T07:23:45.904Z</time></trkpt><trkpt lat="43.342685" lon="11.964745"><ele>275.8</ele><time>2026-04-06T07:23:47.912Z</time></trkpt><trkpt lat="43.342635" lon="11.9646067"><ele>275.6</ele><time>2026-04-06T07:23:49.91Z</time></trkpt><trkpt lat="43.3425867" lon="11.9644633"><ele>275.4</ele><time>2026-04-06T07:23:51.906Z</time></trkpt><trkpt lat="43.3425467" lon="11.9643183"><ele>275.2</ele><time>2026-04-06T07:23:53.918Z</time></trkpt><trkpt lat="43.3425283" lon="11.9641833"><ele>275.0</ele><time>2026-04-06T07:23:55.907Z</time></trkpt><trkpt lat="43.3425017" lon="11.96404"><ele>274.8</ele><time>2026-04-06T07:23:57.904Z</time></trkpt><trkpt lat="43.3424833" lon="11.9638933"><ele>274.6</ele><time>2026-04-06T07:23:59.911Z</time></trkpt><trkpt lat="43.3424617" lon="11.9637467"><ele>274.4</ele><time>2026-04-06T07:24:01.9Z</time></trkpt><trkpt lat="43.342445" lon="11.963595"><ele>274.2</ele><time>2026-04-06T07:24:03.905Z</time></trkpt><trkpt lat="43.342425" lon="11.9634467"><ele>274.0</ele><time>2026-04-06T07:24:05.914Z</time></trkpt><trkpt lat="43.3424033" lon="11.9632967"><ele>274.0</ele><time>2026-04-06T07:24:07.932Z</time></trkpt><trkpt lat="43.34238" lon="11.9631467"><ele>274.0</ele><time>2026-04-06T07:24:09.907Z</time></trkpt><trkpt lat="43.3423633" lon="11.9630067"><ele>274.0</ele><time>2026-04-06T07:24:11.915Z</time></trkpt><trkpt lat="43.3423333" lon="11.96288"><ele>274.0</ele><time>2026-04-06T07:24:13.918Z</time></trkpt><trkpt lat="43.3423133" lon="11.9627683"><ele>274.0</ele><time>2026-04-06T07:24:15.918Z</time></trkpt><trkpt lat="43.3422933" lon="11.9626683"><ele>274.0</ele><time>2026-04-06T07:24:17.906Z</time></trkpt><trkpt lat="43.3422667" lon="11.9625733"><ele>274.0</ele><time>2026-04-06T07:24:19.902Z</time></trkpt><trkpt lat="43.3422417" lon="11.9624833"><ele>274.0</ele><time>2026-04-06T07:24:21.912Z</time></trkpt><trkpt lat="43.3422" lon="11.9623633"><ele>274.0</ele><time>2026-04-06T07:24:24.906Z</time></trkpt><trkpt lat="43.3421717" lon="11.96225"><ele>274.0</ele><time>2026-04-06T07:24:26.917Z</time></trkpt><trkpt lat="43.3421367" lon="11.9621133"><ele>274.0</ele><time>2026-04-06T07:24:28.898Z</time></trkpt><trkpt lat="43.3420867" lon="11.9619883"><ele>273.8</ele><time>2026-04-06T07:24:30.919Z</time></trkpt><trkpt lat="43.3420217" lon="11.9618717"><ele>273.59999999999997</ele><time>2026-04-06T07:24:32.91Z</time></trkpt><trkpt lat="43.3419567" lon="11.96175"><ele>273.4</ele><time>2026-04-06T07:24:34.905Z</time></trkpt><trkpt lat="43.341885" lon="11.9616467"><ele>273.2</ele><time>2026-04-06T07:24:36.911Z</time></trkpt><trkpt lat="43.3418117" lon="11.9615417"><ele>273.0</ele><time>2026-04-06T07:24:38.901Z</time></trkpt><trkpt lat="43.3417467" lon="11.961435"><ele>273.0</ele><time>2026-04-06T07:24:40.911Z</time></trkpt><trkpt lat="43.3416833" lon="11.9613217"><ele>273.0</ele><time>2026-04-06T07:24:42.92Z</time></trkpt><trkpt lat="43.3416217" lon="11.961195"><ele>273.0</ele><time>2026-04-06T07:24:44.904Z</time></trkpt><trkpt lat="43.3415617" lon="11.9610533"><ele>273.0</ele><time>2026-04-06T07:24:46.905Z</time></trkpt><trkpt lat="43.3415283" lon="11.9609767"><ele>273.0</ele><time>2026-04-06T07:24:47.924Z</time></trkpt><trkpt lat="43.3415" lon="11.960895"><ele>272.5</ele><time>2026-04-06T07:24:48.905Z</time></trkpt><trkpt lat="43.34145" lon="11.960745"><ele>272.0</ele><time>2026-04-06T07:24:50.906Z</time></trkpt><trkpt lat="43.341425" lon="11.9605883"><ele>271.5</ele><time>2026-04-06T07:24:52.91Z</time></trkpt><trkpt lat="43.341415" lon="11.9604117"><ele>271.0</ele><time>2026-04-06T07:24:54.912Z</time></trkpt><trkpt lat="43.3414067" lon="11.9602433"><ele>271.0</ele><time>2026-04-06T07:24:56.918Z</time></trkpt><trkpt lat="43.3414033" lon="11.9600733"><ele>271.0</ele><time>2026-04-06T07:24:58.91Z</time></trkpt><trkpt lat="43.3414" lon="11.9599183"><ele>271.0</ele><time>2026-04-06T07:25:00.913Z</time></trkpt><trkpt lat="43.3413867" lon="11.959765"><ele>271.0</ele><time>2026-04-06T07:25:02.909Z</time></trkpt><trkpt lat="43.3413767" lon="11.9596283"><ele>271.0</ele><time>2026-04-06T07:25:04.907Z</time></trkpt><trkpt lat="43.3413833" lon="11.9594733"><ele>270.75</ele><time>2026-04-06T07:25:06.907Z</time></trkpt><trkpt lat="43.3414117" lon="11.9593117"><ele>270.5</ele><time>2026-04-06T07:25:08.922Z</time></trkpt><trkpt lat="43.3414633" lon="11.9591517"><ele>270.25</ele><time>2026-04-06T07:25:10.911Z</time></trkpt><trkpt lat="43.34153" lon="11.95902"><ele>270.0</ele><time>2026-04-06T07:25:12.913Z</time></trkpt><trkpt lat="43.3415833" lon="11.9588883"><ele>270.0</ele><time>2026-04-06T07:25:14.914Z</time></trkpt><trkpt lat="43.3416333" lon="11.9587417"><ele>270.0</ele><time>2026-04-06T07:25:16.911Z</time></trkpt><trkpt lat="43.3416667" lon="11.9585983"><ele>270.0</ele><time>2026-04-06T07:25:18.911Z</time></trkpt><trkpt lat="43.3416867" lon="11.9584517"><ele>270.0</ele><time>2026-04-06T07:25:20.911Z</time></trkpt><trkpt lat="43.3416933" lon="11.9583017"><ele>270.0</ele><time>2026-04-06T07:25:22.912Z</time></trkpt><trkpt lat="43.3416967" lon="11.9581483"><ele>269.4</ele><time>2026-04-06T07:25:24.907Z</time></trkpt><trkpt lat="43.3417" lon="11.95799"><ele>268.8</ele><time>2026-04-06T07:25:26.916Z</time></trkpt><trkpt lat="43.3417067" lon="11.9578367"><ele>268.2</ele><time>2026-04-06T07:25:28.907Z</time></trkpt><trkpt lat="43.34171" lon="11.9576883"><ele>267.6</ele><time>2026-04-06T07:25:30.909Z</time></trkpt><trkpt lat="43.341715" lon="11.95754"><ele>267.0</ele><time>2026-04-06T07:25:32.911Z</time></trkpt><trkpt lat="43.341735" lon="11.9573933"><ele>267.0</ele><time>2026-04-06T07:25:34.911Z</time></trkpt><trkpt lat="43.34175" lon="11.957245"><ele>267.0</ele><time>2026-04-06T07:25:36.912Z</time></trkpt><trkpt lat="43.3417533" lon="11.9570967"><ele>267.0</ele><time>2026-04-06T07:25:38.919Z</time></trkpt><trkpt lat="43.34176" lon="11.9569483"><ele>267.0</ele><time>2026-04-06T07:25:40.915Z</time></trkpt><trkpt lat="43.3417633" lon="11.9568"><ele>267.0</ele><time>2026-04-06T07:25:42.911Z</time></trkpt><trkpt lat="43.3417583" lon="11.9566517"><ele>267.0</ele><time>2026-04-06T07:25:44.908Z</time></trkpt><trkpt lat="43.34175" lon="11.9565017"><ele>267.0</ele><time>2026-04-06T07:25:46.905Z</time></trkpt><trkpt lat="43.3417517" lon="11.9563583"><ele>267.0</ele><time>2026-04-06T07:25:48.911Z</time></trkpt><trkpt lat="43.34177" lon="11.9562067"><ele>267.0</ele><time>2026-04-06T07:25:50.909Z</time></trkpt><trkpt lat="43.341805" lon="11.9560617"><ele>267.0</ele><time>2026-04-06T07:25:52.911Z</time></trkpt><trkpt lat="43.3418383" lon="11.9559117"><ele>267.0</ele><time>2026-04-06T07:25:54.92Z</time></trkpt><trkpt lat="43.3418617" lon="11.9557717"><ele>267.0</ele><time>2026-04-06T07:25:56.912Z</time></trkpt><trkpt lat="43.3418783" lon="11.9556367"><ele>267.0</ele><time>2026-04-06T07:25:58.913Z</time></trkpt><trkpt lat="43.3418733" lon="11.9555033"><ele>267.0</ele><time>2026-04-06T07:26:00.909Z</time></trkpt><trkpt lat="43.3418367" lon="11.95536"><ele>267.0</ele><time>2026-04-06T07:26:02.906Z</time></trkpt><trkpt lat="43.3417783" lon="11.9552333"><ele>267.0</ele><time>2026-04-06T07:26:04.903Z</time></trkpt><trkpt lat="43.3417167" lon="11.955115"><ele>267.0</ele><time>2026-04-06T07:26:06.908Z</time></trkpt><trkpt lat="43.341655" lon="11.954995"><ele>267.0</ele><time>2026-04-06T07:26:08.916Z</time></trkpt><trkpt lat="43.3415883" lon="11.9548917"><ele>267.0</ele><time>2026-04-06T07:26:10.906Z</time></trkpt><trkpt lat="43.341525" lon="11.954795"><ele>267.0</ele><time>2026-04-06T07:26:12.916Z</time></trkpt><trkpt lat="43.3414583" lon="11.9546867"><ele>267.0</ele><time>2026-04-06T07:26:14.92Z</time></trkpt><trkpt lat="43.3413983" lon="11.9545817"><ele>267.0</ele><time>2026-04-06T07:26:16.912Z</time></trkpt><trkpt lat="43.34134" lon="11.954495"><ele>267.0</ele><time>2026-04-06T07:26:18.913Z</time></trkpt><trkpt lat="43.34129" lon="11.9544083"><ele>267.0</ele><time>2026-04-06T07:26:20.902Z</time></trkpt><trkpt lat="43.3412367" lon="11.954315"><ele>267.0</ele><time>2026-04-06T07:26:22.91Z</time></trkpt><trkpt lat="43.3411817" lon="11.9542233"><ele>267.0</ele><time>2026-04-06T07:26:24.909Z</time></trkpt><trkpt lat="43.3411167" lon="11.9541233"><ele>267.4</ele><time>2026-04-06T07:26:26.917Z</time></trkpt><trkpt lat="43.341035" lon="11.9540317"><ele>267.79999999999995</ele><time>2026-04-06T07:26:28.901Z</time></trkpt><trkpt lat="43.340955" lon="11.9539417"><ele>268.2</ele><time>2026-04-06T07:26:30.903Z</time></trkpt><trkpt lat="43.340885" lon="11.9538483"><ele>268.59999999999997</ele><time>2026-04-06T07:26:32.907Z</time></trkpt><trkpt lat="43.3408183" lon="11.953775"><ele>269.0</ele><time>2026-04-06T07:26:34.904Z</time></trkpt><trkpt lat="43.3407567" lon="11.9537033"><ele>269.0</ele><time>2026-04-06T07:26:36.906Z</time></trkpt><trkpt lat="43.3407017" lon="11.9536433"><ele>269.0</ele><time>2026-04-06T07:26:38.91Z</time></trkpt><trkpt lat="43.34065" lon="11.9535767"><ele>269.0</ele><time>2026-04-06T07:26:40.91Z</time></trkpt><trkpt lat="43.3406017" lon="11.9535167"><ele>269.0</ele><time>2026-04-06T07:26:42.911Z</time></trkpt><trkpt lat="43.3405383" lon="11.9534317"><ele>269.0</ele><time>2026-04-06T07:26:45.916Z</time></trkpt><trkpt lat="43.340475" lon="11.9533367"><ele>269.0</ele><time>2026-04-06T07:26:48.904Z</time></trkpt><trkpt lat="43.3404217" lon="11.9532383"><ele>269.33333333333337</ele><time>2026-04-06T07:26:50.905Z</time></trkpt><trkpt lat="43.340355" lon="11.953125"><ele>269.6666666666667</ele><time>2026-04-06T07:26:52.904Z</time></trkpt><trkpt lat="43.34028" lon="11.9530033"><ele>270.0</ele><time>2026-04-06T07:26:54.916Z</time></trkpt><trkpt lat="43.3402417" lon="11.9529333"><ele>270.3333333333333</ele><time>2026-04-06T07:26:55.912Z</time></trkpt><trkpt lat="43.3402" lon="11.9528667"><ele>270.66666666666663</ele><time>2026-04-06T07:26:56.91Z</time></trkpt><trkpt lat="43.3401533" lon="11.9528033"><ele>271.0</ele><time>2026-04-06T07:26:57.912Z</time></trkpt><trkpt lat="43.3401133" lon="11.9527317"><ele>271.0</ele><time>2026-04-06T07:26:58.906Z</time></trkpt><trkpt lat="43.3400733" lon="11.9526583"><ele>271.0</ele><time>2026-04-06T07:26:59.919Z</time></trkpt><trkpt lat="43.3400367" lon="11.9525783"><ele>271.0</ele><time>2026-04-06T07:27:00.916Z</time></trkpt><trkpt lat="43.340005" lon="11.9524983"><ele>271.0</ele><time>2026-04-06T07:27:01.915Z</time></trkpt><trkpt lat="43.3399767" lon="11.95242"><ele>271.0</ele><time>2026-04-06T07:27:02.915Z</time></trkpt><trkpt lat="43.3399467" lon="11.95234"><ele>271.0</ele><time>2026-04-06T07:27:03.913Z</time></trkpt><trkpt lat="43.339915" lon="11.9522617"><ele>271.0</ele><time>2026-04-06T07:27:04.913Z</time></trkpt><trkpt lat="43.3398567" lon="11.9521117"><ele>270.2</ele><time>2026-04-06T07:27:06.904Z</time></trkpt><trkpt lat="43.3398317" lon="11.9520317"><ele>269.40000000000003</ele><time>2026-04-06T07:27:07.914Z</time></trkpt><trkpt lat="43.339775" lon="11.9518883"><ele>268.6</ele><time>2026-04-06T07:27:09.916Z</time></trkpt><trkpt lat="43.33972" lon="11.9517417"><ele>267.8</ele><time>2026-04-06T07:27:11.913Z</time></trkpt><trkpt lat="43.3396617" lon="11.951605"><ele>267.0</ele><time>2026-04-06T07:27:13.907Z</time></trkpt><trkpt lat="43.339605" lon="11.951455"><ele>266.5</ele><time>2026-04-06T07:27:15.905Z</time></trkpt><trkpt lat="43.3395517" lon="11.9513117"><ele>266.0</ele><time>2026-04-06T07:27:17.911Z</time></trkpt><trkpt lat="43.3394967" lon="11.95117"><ele>265.5</ele><time>2026-04-06T07:27:19.907Z</time></trkpt><trkpt lat="43.3394467" lon="11.9510283"><ele>265.0</ele><time>2026-04-06T07:27:21.913Z</time></trkpt><trkpt lat="43.3393983" lon="11.9509017"><ele>264.6</ele><time>2026-04-06T07:27:23.914Z</time></trkpt><trkpt lat="43.3393483" lon="11.9507817"><ele>264.2</ele><time>2026-04-06T07:27:25.91Z</time></trkpt><trkpt lat="43.3393033" lon="11.95067"><ele>263.8</ele><time>2026-04-06T07:27:27.913Z</time></trkpt><trkpt lat="43.3392617" lon="11.9505483"><ele>263.4</ele><time>2026-04-06T07:27:29.917Z</time></trkpt><trkpt lat="43.33921" lon="11.9504317"><ele>263.0</ele><time>2026-04-06T07:27:31.906Z</time></trkpt><trkpt lat="43.3391633" lon="11.9503167"><ele>263.0</ele><time>2026-04-06T07:27:33.907Z</time></trkpt><trkpt lat="43.3391217" lon="11.9502017"><ele>263.0</ele><time>2026-04-06T07:27:35.902Z</time></trkpt><trkpt lat="43.3390767" lon="11.9500833"><ele>263.0</ele><time>2026-04-06T07:27:37.909Z</time></trkpt><trkpt lat="43.3390283" lon="11.949975"><ele>263.0</ele><time>2026-04-06T07:27:39.913Z</time></trkpt><trkpt lat="43.3389733" lon="11.9498683"><ele>263.0</ele><time>2026-04-06T07:27:41.918Z</time></trkpt><trkpt lat="43.3389283" lon="11.9497617"><ele>263.33333333333337</ele><time>2026-04-06T07:27:43.918Z</time></trkpt><trkpt lat="43.3388783" lon="11.94966"><ele>263.6666666666667</ele><time>2026-04-06T07:27:45.91Z</time></trkpt><trkpt lat="43.3388317" lon="11.9495617"><ele>264.0</ele><time>2026-04-06T07:27:47.913Z</time></trkpt><trkpt lat="43.338785" lon="11.949465"><ele>264.3333333333333</ele><time>2026-04-06T07:27:49.913Z</time></trkpt><trkpt lat="43.3387417" lon="11.949355"><ele>264.66666666666663</ele><time>2026-04-06T07:27:51.918Z</time></trkpt><trkpt lat="43.3387133" lon="11.9492467"><ele>265.0</ele><time>2026-04-06T07:27:53.909Z</time></trkpt><trkpt lat="43.3387067" lon="11.94915"><ele>265.16666666666663</ele><time>2026-04-06T07:27:55.905Z</time></trkpt><trkpt lat="43.338715" lon="11.9490483"><ele>265.3333333333333</ele><time>2026-04-06T07:27:57.908Z</time></trkpt><trkpt lat="43.3387417" lon="11.9489383"><ele>265.5</ele><time>2026-04-06T07:27:59.915Z</time></trkpt><trkpt lat="43.3387783" lon="11.948835"><ele>265.6666666666667</ele><time>2026-04-06T07:28:01.903Z</time></trkpt><trkpt lat="43.33882" lon="11.948735"><ele>265.83333333333337</ele><time>2026-04-06T07:28:03.897Z</time></trkpt><trkpt lat="43.3388667" lon="11.9486333"><ele>266.0</ele><time>2026-04-06T07:28:05.911Z</time></trkpt><trkpt lat="43.3389067" lon="11.9485317"><ele>266.0</ele><time>2026-04-06T07:28:07.92Z</time></trkpt><trkpt lat="43.33895" lon="11.9484317"><ele>266.0</ele><time>2026-04-06T07:28:09.903Z</time></trkpt><trkpt lat="43.33899" lon="11.948335"><ele>266.0</ele><time>2026-04-06T07:28:11.904Z</time></trkpt><trkpt lat="43.3390317" lon="11.94824"><ele>266.0</ele><time>2026-04-06T07:28:13.912Z</time></trkpt><trkpt lat="43.33907" lon="11.9481483"><ele>266.0</ele><time>2026-04-06T07:28:15.921Z</time></trkpt><trkpt lat="43.3391033" lon="11.9480617"><ele>266.0</ele><time>2026-04-06T07:28:17.91Z</time></trkpt><trkpt lat="43.339135" lon="11.9479783"><ele>266.0</ele><time>2026-04-06T07:28:19.909Z</time></trkpt><trkpt lat="43.3391683" lon="11.9478817"><ele>266.0</ele><time>2026-04-06T07:28:21.907Z</time></trkpt><trkpt lat="43.3391967" lon="11.9477867"><ele>266.0</ele><time>2026-04-06T07:28:23.903Z</time></trkpt><trkpt lat="43.3392233" lon="11.9476817"><ele>266.0</ele><time>2026-04-06T07:28:25.906Z</time></trkpt><trkpt lat="43.339255" lon="11.94758"><ele>266.0</ele><time>2026-04-06T07:28:27.909Z</time></trkpt><trkpt lat="43.339295" lon="11.9474783"><ele>266.0</ele><time>2026-04-06T07:28:29.915Z</time></trkpt><trkpt lat="43.3393383" lon="11.947365"><ele>265.6</ele><time>2026-04-06T07:28:31.918Z</time></trkpt><trkpt lat="43.3393883" lon="11.947245"><ele>265.20000000000005</ele><time>2026-04-06T07:28:33.905Z</time></trkpt><trkpt lat="43.3394367" lon="11.9471017"><ele>264.79999999999995</ele><time>2026-04-06T07:28:35.909Z</time></trkpt><trkpt lat="43.3394917" lon="11.9469367"><ele>264.4</ele><time>2026-04-06T07:28:37.911Z</time></trkpt><trkpt lat="43.3395183" lon="11.946855"><ele>264.0</ele><time>2026-04-06T07:28:38.926Z</time></trkpt><trkpt lat="43.3395483" lon="11.9467733"><ele>263.85714285714283</ele><time>2026-04-06T07:28:39.905Z</time></trkpt><trkpt lat="43.3395717" lon="11.94669"><ele>263.7142857142857</ele><time>2026-04-06T07:28:40.904Z</time></trkpt><trkpt lat="43.3396017" lon="11.946605"><ele>263.57142857142856</ele><time>2026-04-06T07:28:41.905Z</time></trkpt><trkpt lat="43.3396317" lon="11.9465267"><ele>263.42857142857144</ele><time>2026-04-06T07:28:42.908Z</time></trkpt><trkpt lat="43.3396617" lon="11.9464483"><ele>263.2857142857143</ele><time>2026-04-06T07:28:43.913Z</time></trkpt><trkpt lat="43.3396867" lon="11.9463667"><ele>263.1428571428571</ele><time>2026-04-06T07:28:44.906Z</time></trkpt><trkpt lat="43.3397117" lon="11.94628"><ele>263.0</ele><time>2026-04-06T07:28:45.931Z</time></trkpt><trkpt lat="43.3397367" lon="11.9462"><ele>263.0</ele><time>2026-04-06T07:28:46.911Z</time></trkpt><trkpt lat="43.339785" lon="11.946045"><ele>263.0</ele><time>2026-04-06T07:28:48.904Z</time></trkpt><trkpt lat="43.33981" lon="11.9459633"><ele>263.0</ele><time>2026-04-06T07:28:49.91Z</time></trkpt><trkpt lat="43.3398617" lon="11.9458117"><ele>263.0</ele><time>2026-04-06T07:28:51.902Z</time></trkpt><trkpt lat="43.3399083" lon="11.9456583"><ele>263.0</ele><time>2026-04-06T07:28:53.914Z</time></trkpt><trkpt lat="43.33995" lon="11.94553"><ele>263.0</ele><time>2026-04-06T07:28:55.916Z</time></trkpt><trkpt lat="43.339985" lon="11.9454083"><ele>263.0</ele><time>2026-04-06T07:28:57.914Z</time></trkpt><trkpt lat="43.3400233" lon="11.945285"><ele>263.0</ele><time>2026-04-06T07:28:59.912Z</time></trkpt><trkpt lat="43.3400567" lon="11.9451617"><ele>263.0</ele><time>2026-04-06T07:29:01.902Z</time></trkpt><trkpt lat="43.340085" lon="11.94504"><ele>263.0</ele><time>2026-04-06T07:29:03.902Z</time></trkpt><trkpt lat="43.3401167" lon="11.9449283"><ele>263.1666666666667</ele><time>2026-04-06T07:29:05.908Z</time></trkpt><trkpt lat="43.3401483" lon="11.9448133"><ele>263.33333333333337</ele><time>2026-04-06T07:29:07.915Z</time></trkpt><trkpt lat="43.3401767" lon="11.9447017"><ele>263.5</ele><time>2026-04-06T07:29:09.909Z</time></trkpt><trkpt lat="43.3402" lon="11.9445783"><ele>263.6666666666667</ele><time>2026-04-06T07:29:11.904Z</time></trkpt><trkpt lat="43.34022" lon="11.9444517"><ele>263.8333333333333</ele><time>2026-04-06T07:29:13.9Z</time></trkpt><trkpt lat="43.34024" lon="11.94434"><ele>264.0</ele><time>2026-04-06T07:29:15.915Z</time></trkpt><trkpt lat="43.3402633" lon="11.944225"><ele>263.6666666666667</ele><time>2026-04-06T07:29:17.917Z</time></trkpt><trkpt lat="43.340285" lon="11.9441183"><ele>263.3333333333333</ele><time>2026-04-06T07:29:19.909Z</time></trkpt><trkpt lat="43.3403033" lon="11.9439983"><ele>263.0</ele><time>2026-04-06T07:29:21.912Z</time></trkpt><trkpt lat="43.340335" lon="11.94388"><ele>262.66666666666663</ele><time>2026-04-06T07:29:23.914Z</time></trkpt><trkpt lat="43.3403883" lon="11.9437767"><ele>262.3333333333333</ele><time>2026-04-06T07:29:25.917Z</time></trkpt><trkpt lat="43.3404467" lon="11.9436883"><ele>262.0</ele><time>2026-04-06T07:29:27.907Z</time></trkpt><trkpt lat="43.340515" lon="11.943605"><ele>262.0</ele><time>2026-04-06T07:29:29.915Z</time></trkpt><trkpt lat="43.3405783" lon="11.9435317"><ele>262.0</ele><time>2026-04-06T07:29:31.909Z</time></trkpt><trkpt lat="43.3406517" lon="11.94346"><ele>262.0</ele><time>2026-04-06T07:29:33.9Z</time></trkpt><trkpt lat="43.3407267" lon="11.9433883"><ele>262.0</ele><time>2026-04-06T07:29:35.914Z</time></trkpt><trkpt lat="43.3408" lon="11.9433133"><ele>262.0</ele><time>2026-04-06T07:29:37.906Z</time></trkpt><trkpt lat="43.3408733" lon="11.943225"><ele>262.2</ele><time>2026-04-06T07:29:39.905Z</time></trkpt><trkpt lat="43.3409283" lon="11.9431167"><ele>262.4</ele><time>2026-04-06T07:29:41.91Z</time></trkpt><trkpt lat="43.34097" lon="11.942995"><ele>262.6</ele><time>2026-04-06T07:29:43.912Z</time></trkpt><trkpt lat="43.3410067" lon="11.94288"><ele>262.8</ele><time>2026-04-06T07:29:45.912Z</time></trkpt><trkpt lat="43.34104" lon="11.9427667"><ele>263.0</ele><time>2026-04-06T07:29:47.903Z</time></trkpt><trkpt lat="43.34107" lon="11.9426433"><ele>262.8</ele><time>2026-04-06T07:29:49.918Z</time></trkpt><trkpt lat="43.3411083" lon="11.9425167"><ele>262.6</ele><time>2026-04-06T07:29:51.912Z</time></trkpt><trkpt lat="43.34115" lon="11.9424033"><ele>262.4</ele><time>2026-04-06T07:29:53.907Z</time></trkpt><trkpt lat="43.3411917" lon="11.9422833"><ele>262.2</ele><time>2026-04-06T07:29:55.9Z</time></trkpt><trkpt lat="43.341225" lon="11.942165"><ele>262.0</ele><time>2026-04-06T07:29:57.906Z</time></trkpt><trkpt lat="43.34126" lon="11.942055"><ele>262.0</ele><time>2026-04-06T07:29:59.912Z</time></trkpt><trkpt lat="43.3412967" lon="11.9419483"><ele>262.0</ele><time>2026-04-06T07:30:01.909Z</time></trkpt><trkpt lat="43.3413267" lon="11.9418417"><ele>262.0</ele><time>2026-04-06T07:30:03.905Z</time></trkpt><trkpt lat="43.3413517" lon="11.94176"><ele>262.0</ele><time>2026-04-06T07:30:05.908Z</time></trkpt><trkpt lat="43.3413767" lon="11.9416383"><ele>262.0</ele><time>2026-04-06T07:30:08.924Z</time></trkpt><trkpt lat="43.3413867" lon="11.9415183"><ele>262.0</ele><time>2026-04-06T07:30:10.907Z</time></trkpt><trkpt lat="43.3414" lon="11.94137"><ele>262.4</ele><time>2026-04-06T07:30:12.914Z</time></trkpt><trkpt lat="43.3414133" lon="11.9412"><ele>262.79999999999995</ele><time>2026-04-06T07:30:14.902Z</time></trkpt><trkpt lat="43.3414183" lon="11.9411133"><ele>263.2</ele><time>2026-04-06T07:30:15.909Z</time></trkpt><trkpt lat="43.3414217" lon="11.9410267"><ele>263.59999999999997</ele><time>2026-04-06T07:30:16.913Z</time></trkpt><trkpt lat="43.3414217" lon="11.9408617"><ele>264.0</ele><time>2026-04-06T07:30:18.913Z</time></trkpt><trkpt lat="43.3414283" lon="11.940695"><ele>264.2</ele><time>2026-04-06T07:30:20.914Z</time></trkpt><trkpt lat="43.341445" lon="11.94053"><ele>264.4</ele><time>2026-04-06T07:30:22.907Z</time></trkpt><trkpt lat="43.341475" lon="11.9403883"><ele>264.6</ele><time>2026-04-06T07:30:24.912Z</time></trkpt><trkpt lat="43.3415033" lon="11.9402683"><ele>264.8</ele><time>2026-04-06T07:30:26.916Z</time></trkpt><trkpt lat="43.3415417" lon="11.9401417"><ele>265.0</ele><time>2026-04-06T07:30:28.913Z</time></trkpt><trkpt lat="43.34158" lon="11.9400167"><ele>265.0</ele><time>2026-04-06T07:30:30.917Z</time></trkpt><trkpt lat="43.3416233" lon="11.9399033"><ele>265.0</ele><time>2026-04-06T07:30:32.922Z</time></trkpt><trkpt lat="43.34167" lon="11.9398"><ele>265.0</ele><time>2026-04-06T07:30:34.902Z</time></trkpt><trkpt lat="43.3417183" lon="11.93971"><ele>265.0</ele><time>2026-04-06T07:30:36.909Z</time></trkpt><trkpt lat="43.341775" lon="11.9396167"><ele>265.0</ele><time>2026-04-06T07:30:38.909Z</time></trkpt><trkpt lat="43.3418383" lon="11.9395183"><ele>265.0</ele><time>2026-04-06T07:30:40.907Z</time></trkpt><trkpt lat="43.3419017" lon="11.9394167"><ele>265.0</ele><time>2026-04-06T07:30:42.905Z</time></trkpt><trkpt lat="43.3419533" lon="11.93931"><ele>265.0</ele><time>2026-04-06T07:30:44.905Z</time></trkpt><trkpt lat="43.3419983" lon="11.9391933"><ele>265.0</ele><time>2026-04-06T07:30:46.912Z</time></trkpt><trkpt lat="43.3420433" lon="11.93907"><ele>265.0</ele><time>2026-04-06T07:30:48.909Z</time></trkpt><trkpt lat="43.3420783" lon="11.938955"><ele>265.0</ele><time>2026-04-06T07:30:50.906Z</time></trkpt><trkpt lat="43.342105" lon="11.93883"><ele>264.6</ele><time>2026-04-06T07:30:52.902Z</time></trkpt><trkpt lat="43.34213" lon="11.9387133"><ele>264.2</ele><time>2026-04-06T07:30:54.904Z</time></trkpt><trkpt lat="43.3421467" lon="11.93859"><ele>263.8</ele><time>2026-04-06T07:30:56.907Z</time></trkpt><trkpt lat="43.342165" lon="11.9384567"><ele>263.4</ele><time>2026-04-06T07:30:58.907Z</time></trkpt><trkpt lat="43.3421883" lon="11.9383233"><ele>263.0</ele><time>2026-04-06T07:31:00.917Z</time></trkpt><trkpt lat="43.3422067" lon="11.9381883"><ele>263.1666666666667</ele><time>2026-04-06T07:31:02.911Z</time></trkpt><trkpt lat="43.3422233" lon="11.93806"><ele>263.33333333333337</ele><time>2026-04-06T07:31:04.907Z</time></trkpt><trkpt lat="43.3422383" lon="11.9379383"><ele>263.5</ele><time>2026-04-06T07:31:06.905Z</time></trkpt><trkpt lat="43.3422567" lon="11.9378183"><ele>263.6666666666667</ele><time>2026-04-06T07:31:08.907Z</time></trkpt><trkpt lat="43.3422733" lon="11.9377033"><ele>263.8333333333333</ele><time>2026-04-06T07:31:10.902Z</time></trkpt><trkpt lat="43.3423067" lon="11.9375933"><ele>264.0</ele><time>2026-04-06T07:31:12.913Z</time></trkpt><trkpt lat="43.3423417" lon="11.9374783"><ele>264.1666666666667</ele><time>2026-04-06T07:31:14.911Z</time></trkpt><trkpt lat="43.3423717" lon="11.9373733"><ele>264.3333333333333</ele><time>2026-04-06T07:31:16.908Z</time></trkpt><trkpt lat="43.3424" lon="11.9372733"><ele>264.5</ele><time>2026-04-06T07:31:18.905Z</time></trkpt><trkpt lat="43.34243" lon="11.937175"><ele>264.66666666666663</ele><time>2026-04-06T07:31:20.905Z</time></trkpt><trkpt lat="43.34247" lon="11.9370767"><ele>264.8333333333333</ele><time>2026-04-06T07:31:22.907Z</time></trkpt><trkpt lat="43.342505" lon="11.9369667"><ele>265.0</ele><time>2026-04-06T07:31:24.904Z</time></trkpt><trkpt lat="43.342535" lon="11.9368583"><ele>265.0</ele><time>2026-04-06T07:31:26.902Z</time></trkpt><trkpt lat="43.3425733" lon="11.9367333"><ele>265.0</ele><time>2026-04-06T07:31:28.905Z</time></trkpt><trkpt lat="43.34261" lon="11.9366067"><ele>265.0</ele><time>2026-04-06T07:31:30.911Z</time></trkpt><trkpt lat="43.342645" lon="11.9364767"><ele>265.0</ele><time>2026-04-06T07:31:32.911Z</time></trkpt><trkpt lat="43.3426533" lon="11.9363333"><ele>265.0</ele><time>2026-04-06T07:31:34.92Z</time></trkpt><trkpt lat="43.3426517" lon="11.9361883"><ele>265.16666666666663</ele><time>2026-04-06T07:31:36.912Z</time></trkpt><trkpt lat="43.3426533" lon="11.9360583"><ele>265.3333333333333</ele><time>2026-04-06T07:31:38.895Z</time></trkpt><trkpt lat="43.3426783" lon="11.93594"><ele>265.5</ele><time>2026-04-06T07:31:40.908Z</time></trkpt><trkpt lat="43.342725" lon="11.9358567"><ele>265.6666666666667</ele><time>2026-04-06T07:31:42.922Z</time></trkpt><trkpt lat="43.3427833" lon="11.9357733"><ele>265.83333333333337</ele><time>2026-04-06T07:31:45.905Z</time></trkpt><trkpt lat="43.3427967" lon="11.9356683"><ele>266.0</ele><time>2026-04-06T07:31:47.916Z</time></trkpt><trkpt lat="43.3427633" lon="11.9355233"><ele>266.0</ele><time>2026-04-06T07:31:49.917Z</time></trkpt><trkpt lat="43.34274" lon="11.9354367"><ele>266.0</ele><time>2026-04-06T07:31:50.906Z</time></trkpt><trkpt lat="43.342715" lon="11.9353533"><ele>266.0</ele><time>2026-04-06T07:31:51.9Z</time></trkpt><trkpt lat="43.3426883" lon="11.93527"><ele>266.0</ele><time>2026-04-06T07:31:52.904Z</time></trkpt><trkpt lat="43.34266" lon="11.93519"><ele>266.0</ele><time>2026-04-06T07:31:53.908Z</time></trkpt><trkpt lat="43.3426333" lon="11.93511"><ele>266.0</ele><time>2026-04-06T07:31:54.915Z</time></trkpt><trkpt lat="43.3425667" lon="11.9349683"><ele>265.6</ele><time>2026-04-06T07:31:56.906Z</time></trkpt><trkpt lat="43.3424783" lon="11.93485"><ele>265.20000000000005</ele><time>2026-04-06T07:31:58.911Z</time></trkpt><trkpt lat="43.3424367" lon="11.934785"><ele>264.79999999999995</ele><time>2026-04-06T07:31:59.916Z</time></trkpt><trkpt lat="43.3423533" lon="11.9346767"><ele>264.4</ele><time>2026-04-06T07:32:01.905Z</time></trkpt><trkpt lat="43.342265" lon="11.9345733"><ele>264.0</ele><time>2026-04-06T07:32:03.906Z</time></trkpt><trkpt lat="43.342175" lon="11.9344617"><ele>263.59999999999997</ele><time>2026-04-06T07:32:05.903Z</time></trkpt><trkpt lat="43.342095" lon="11.9343483"><ele>263.2</ele><time>2026-04-06T07:32:07.915Z</time></trkpt><trkpt lat="43.34202" lon="11.9342417"><ele>262.79999999999995</ele><time>2026-04-06T07:32:09.918Z</time></trkpt><trkpt lat="43.34195" lon="11.9341267"><ele>262.4</ele><time>2026-04-06T07:32:11.904Z</time></trkpt><trkpt lat="43.3418767" lon="11.9340133"><ele>262.0</ele><time>2026-04-06T07:32:13.901Z</time></trkpt><trkpt lat="43.3418083" lon="11.9338867"><ele>262.0</ele><time>2026-04-06T07:32:15.907Z</time></trkpt><trkpt lat="43.3417683" lon="11.9338133"><ele>262.0</ele><time>2026-04-06T07:32:16.908Z</time></trkpt><trkpt lat="43.341725" lon="11.9337483"><ele>262.0</ele><time>2026-04-06T07:32:17.918Z</time></trkpt><trkpt lat="43.3416833" lon="11.9336767"><ele>262.0</ele><time>2026-04-06T07:32:18.909Z</time></trkpt><trkpt lat="43.3416033" lon="11.9335383"><ele>262.0</ele><time>2026-04-06T07:32:20.914Z</time></trkpt><trkpt lat="43.341535" lon="11.9334"><ele>262.0</ele><time>2026-04-06T07:32:22.917Z</time></trkpt><trkpt lat="43.341465" lon="11.933275"><ele>262.0</ele><time>2026-04-06T07:32:24.91Z</time></trkpt><trkpt lat="43.341405" lon="11.93316"><ele>262.0</ele><time>2026-04-06T07:32:26.912Z</time></trkpt><trkpt lat="43.3413517" lon="11.9330383"><ele>262.0</ele><time>2026-04-06T07:32:28.907Z</time></trkpt><trkpt lat="43.3412967" lon="11.93292"><ele>262.0</ele><time>2026-04-06T07:32:30.917Z</time></trkpt><trkpt lat="43.3412467" lon="11.9328067"><ele>262.0</ele><time>2026-04-06T07:32:32.914Z</time></trkpt><trkpt lat="43.3411967" lon="11.9326917"><ele>262.0</ele><time>2026-04-06T07:32:34.908Z</time></trkpt><trkpt lat="43.3411583" lon="11.9325717"><ele>262.0</ele><time>2026-04-06T07:32:36.92Z</time></trkpt><trkpt lat="43.3411283" lon="11.93245"><ele>262.0</ele><time>2026-04-06T07:32:38.925Z</time></trkpt><trkpt lat="43.3411067" lon="11.9323317"><ele>262.0</ele><time>2026-04-06T07:32:40.916Z</time></trkpt><trkpt lat="43.34109" lon="11.9322317"><ele>262.0</ele><time>2026-04-06T07:32:42.909Z</time></trkpt><trkpt lat="43.3410667" lon="11.9321283"><ele>262.0</ele><time>2026-04-06T07:32:44.914Z</time></trkpt><trkpt lat="43.3410517" lon="11.9320183"><ele>262.0</ele><time>2026-04-06T07:32:46.916Z</time></trkpt><trkpt lat="43.3410433" lon="11.9319133"><ele>262.0</ele><time>2026-04-06T07:32:48.914Z</time></trkpt><trkpt lat="43.341025" lon="11.9318167"><ele>262.0</ele><time>2026-04-06T07:32:50.903Z</time></trkpt><trkpt lat="43.3410067" lon="11.9317267"><ele>262.0</ele><time>2026-04-06T07:32:52.904Z</time></trkpt><trkpt lat="43.34099" lon="11.9316383"><ele>262.0</ele><time>2026-04-06T07:32:54.913Z</time></trkpt><trkpt lat="43.3409583" lon="11.931555"><ele>262.0</ele><time>2026-04-06T07:32:56.908Z</time></trkpt><trkpt lat="43.3409333" lon="11.9314567"><ele>262.0</ele><time>2026-04-06T07:32:58.906Z</time></trkpt><trkpt lat="43.340905" lon="11.931355"><ele>262.2857142857143</ele><time>2026-04-06T07:33:00.911Z</time></trkpt><trkpt lat="43.3408767" lon="11.9312633"><ele>262.5714285714286</ele><time>2026-04-06T07:33:02.907Z</time></trkpt><trkpt lat="43.34084" lon="11.9311767"><ele>262.8571428571429</ele><time>2026-04-06T07:33:04.907Z</time></trkpt><trkpt lat="43.3408083" lon="11.9311017"><ele>263.14285714285717</ele><time>2026-04-06T07:33:06.937Z</time></trkpt><trkpt lat="43.3407983" lon="11.931005"><ele>263.42857142857144</ele><time>2026-04-06T07:33:08.911Z</time></trkpt><trkpt lat="43.3407783" lon="11.9308983"><ele>263.7142857142857</ele><time>2026-04-06T07:33:10.91Z</time></trkpt><trkpt lat="43.3407467" lon="11.9307833"><ele>264.0</ele><time>2026-04-06T07:33:12.908Z</time></trkpt><trkpt lat="43.3407017" lon="11.9306833"><ele>264.0</ele><time>2026-04-06T07:33:14.906Z</time></trkpt><trkpt lat="43.3406467" lon="11.9305783"><ele>264.0</ele><time>2026-04-06T07:33:16.91Z</time></trkpt><trkpt lat="43.3405867" lon="11.9304867"><ele>264.0</ele><time>2026-04-06T07:33:18.92Z</time></trkpt><trkpt lat="43.3405117" lon="11.9303983"><ele>264.0</ele><time>2026-04-06T07:33:20.91Z</time></trkpt><trkpt lat="43.340445" lon="11.9303033"><ele>264.0</ele><time>2026-04-06T07:33:22.912Z</time></trkpt><trkpt lat="43.3404317" lon="11.9301967"><ele>264.0</ele><time>2026-04-06T07:33:24.911Z</time></trkpt><trkpt lat="43.3404633" lon="11.9300917"><ele>264.0</ele><time>2026-04-06T07:33:26.91Z</time></trkpt><trkpt lat="43.3404983" lon="11.9299983"><ele>264.0</ele><time>2026-04-06T07:33:28.911Z</time></trkpt><trkpt lat="43.3405133" lon="11.9298967"><ele>264.0</ele><time>2026-04-06T07:33:30.906Z</time></trkpt><trkpt lat="43.3405133" lon="11.929775"><ele>264.0</ele><time>2026-04-06T07:33:32.908Z</time></trkpt><trkpt lat="43.3405033" lon="11.92967"><ele>264.0</ele><time>2026-04-06T07:33:34.922Z</time></trkpt><trkpt lat="43.34046" lon="11.929575"><ele>263.59999999999997</ele><time>2026-04-06T07:33:36.903Z</time></trkpt><trkpt lat="43.3404133" lon="11.9294717"><ele>263.2</ele><time>2026-04-06T07:33:38.914Z</time></trkpt><trkpt lat="43.3403817" lon="11.9293517"><ele>262.79999999999995</ele><time>2026-04-06T07:33:40.921Z</time></trkpt><trkpt lat="43.3403383" lon="11.92922"><ele>262.4</ele><time>2026-04-06T07:33:42.903Z</time></trkpt><trkpt lat="43.3402917" lon="11.9290867"><ele>262.0</ele><time>2026-04-06T07:33:44.902Z</time></trkpt><trkpt lat="43.3402533" lon="11.9289633"><ele>261.6</ele><time>2026-04-06T07:33:46.909Z</time></trkpt><trkpt lat="43.3402283" lon="11.928825"><ele>261.2</ele><time>2026-04-06T07:33:48.906Z</time></trkpt><trkpt lat="43.34021" lon="11.9286883"><ele>260.8</ele><time>2026-04-06T07:33:50.918Z</time></trkpt><trkpt lat="43.3401817" lon="11.9285567"><ele>260.4</ele><time>2026-04-06T07:33:52.91Z</time></trkpt><trkpt lat="43.3401617" lon="11.9284317"><ele>260.0</ele><time>2026-04-06T07:33:54.907Z</time></trkpt><trkpt lat="43.3401417" lon="11.9283183"><ele>260.0</ele><time>2026-04-06T07:33:56.908Z</time></trkpt><trkpt lat="43.3401217" lon="11.928205"><ele>260.0</ele><time>2026-04-06T07:33:58.916Z</time></trkpt><trkpt lat="43.3401067" lon="11.9280917"><ele>260.0</ele><time>2026-04-06T07:34:00.911Z</time></trkpt><trkpt lat="43.3400883" lon="11.9279817"><ele>260.0</ele><time>2026-04-06T07:34:02.911Z</time></trkpt><trkpt lat="43.3400683" lon="11.9278817"><ele>260.0</ele><time>2026-04-06T07:34:04.908Z</time></trkpt><trkpt lat="43.3400433" lon="11.9277833"><ele>260.0</ele><time>2026-04-06T07:34:06.907Z</time></trkpt><trkpt lat="43.340015" lon="11.9276833"><ele>260.0</ele><time>2026-04-06T07:34:08.913Z</time></trkpt><trkpt lat="43.3399967" lon="11.9275917"><ele>260.0</ele><time>2026-04-06T07:34:10.921Z</time></trkpt><trkpt lat="43.3399683" lon="11.9274867"><ele>260.0</ele><time>2026-04-06T07:34:13.913Z</time></trkpt><trkpt lat="43.3399317" lon="11.927385"><ele>260.0</ele><time>2026-04-06T07:34:16.909Z</time></trkpt><trkpt lat="43.3398883" lon="11.927285"><ele>260.0</ele><time>2026-04-06T07:34:19.903Z</time></trkpt><trkpt lat="43.3398383" lon="11.927175"><ele>260.0</ele><time>2026-04-06T07:34:22.914Z</time></trkpt><trkpt lat="43.3397867" lon="11.9270633"><ele>260.0</ele><time>2026-04-06T07:34:25.909Z</time></trkpt><trkpt lat="43.339745" lon="11.926995"><ele>260.0</ele><time>2026-04-06T07:34:27.915Z</time></trkpt><trkpt lat="43.3397083" lon="11.92692"><ele>260.0</ele><time>2026-04-06T07:34:29.903Z</time></trkpt><trkpt lat="43.3396583" lon="11.9268183"><ele>260.0</ele><time>2026-04-06T07:34:32.913Z</time></trkpt><trkpt lat="43.3396033" lon="11.9267283"><ele>260.0</ele><time>2026-04-06T07:34:35.91Z</time></trkpt><trkpt lat="43.3395633" lon="11.926625"><ele>260.0</ele><time>2026-04-06T07:34:38.905Z</time></trkpt><trkpt lat="43.33954" lon="11.9265267"><ele>260.5</ele><time>2026-04-06T07:34:41.909Z</time></trkpt><trkpt lat="43.3395167" lon="11.9264233"><ele>261.0</ele><time>2026-04-06T07:34:44.905Z</time></trkpt><trkpt lat="43.3394983" lon="11.9263167"><ele>261.5</ele><time>2026-04-06T07:34:47.914Z</time></trkpt><trkpt lat="43.339485" lon="11.9262083"><ele>262.0</ele><time>2026-04-06T07:34:50.91Z</time></trkpt><trkpt lat="43.3394683" lon="11.926115"><ele>262.5</ele><time>2026-04-06T07:34:53.912Z</time></trkpt><trkpt lat="43.3394483" lon="11.9260133"><ele>263.0</ele><time>2026-04-06T07:34:56.909Z</time></trkpt><trkpt lat="43.3394233" lon="11.9259067"><ele>263.6666666666667</ele><time>2026-04-06T07:34:59.92Z</time></trkpt><trkpt lat="43.3393917" lon="11.9258133"><ele>264.33333333333337</ele><time>2026-04-06T07:35:02.903Z</time></trkpt><trkpt lat="43.339355" lon="11.92571"><ele>265.0</ele><time>2026-04-06T07:35:05.918Z</time></trkpt><trkpt lat="43.3393233" lon="11.9256133"><ele>265.6666666666667</ele><time>2026-04-06T07:35:08.908Z</time></trkpt><trkpt lat="43.33929" lon="11.9255117"><ele>266.3333333333333</ele><time>2026-04-06T07:35:11.915Z</time></trkpt><trkpt lat="43.3392617" lon="11.92542"><ele>267.0</ele><time>2026-04-06T07:35:14.918Z</time></trkpt><trkpt lat="43.3392217" lon="11.9253267"><ele>267.0</ele><time>2026-04-06T07:35:17.921Z</time></trkpt><trkpt lat="43.3391767" lon="11.925225"><ele>267.0</ele><time>2026-04-06T07:35:20.915Z</time></trkpt><trkpt lat="43.3391333" lon="11.9251233"><ele>267.0</ele><time>2026-04-06T07:35:23.907Z</time></trkpt><trkpt lat="43.33909" lon="11.9250217"><ele>267.0</ele><time>2026-04-06T07:35:26.914Z</time></trkpt><trkpt lat="43.3390483" lon="11.9249283"><ele>267.0</ele><time>2026-04-06T07:35:29.905Z</time></trkpt><trkpt lat="43.3390083" lon="11.9248517"><ele>267.0</ele><time>2026-04-06T07:35:32.911Z</time></trkpt><trkpt lat="43.338965" lon="11.92477"><ele>267.00000000000006</ele><time>2026-04-06T07:35:35.918Z</time></trkpt><trkpt lat="43.338915" lon="11.924685"><ele>267.0</ele><time>2026-04-06T07:35:39.914Z</time></trkpt><trkpt lat="43.3388617" lon="11.92462"><ele>267.0</ele><time>2026-04-06T07:35:42.908Z</time></trkpt><trkpt lat="43.3388167" lon="11.92455"><ele>267.0</ele><time>2026-04-06T07:35:44.917Z</time></trkpt><trkpt lat="43.3387667" lon="11.92447"><ele>267.0</ele><time>2026-04-06T07:35:46.911Z</time></trkpt><trkpt lat="43.338725" lon="11.92438"><ele>267.00000000000006</ele><time>2026-04-06T07:35:48.906Z</time></trkpt><trkpt lat="43.3386867" lon="11.924295"><ele>267.0</ele><time>2026-04-06T07:35:50.91Z</time></trkpt><trkpt lat="43.338655" lon="11.9242083"><ele>267.00000000000006</ele><time>2026-04-06T07:35:52.93Z</time></trkpt><trkpt lat="43.3386333" lon="11.924125"><ele>267.0</ele><time>2026-04-06T07:35:54.909Z</time></trkpt><trkpt lat="43.3386183" lon="11.9240367"><ele>267.0</ele><time>2026-04-06T07:35:56.903Z</time></trkpt><trkpt lat="43.3386033" lon="11.923945"><ele>267.0</ele><time>2026-04-06T07:35:58.914Z</time></trkpt><trkpt lat="43.3385917" lon="11.923855"><ele>267.0</ele><time>2026-04-06T07:36:00.916Z</time></trkpt><trkpt lat="43.3385833" lon="11.9237317"><ele>267.00000000000006</ele><time>2026-04-06T07:36:03.907Z</time></trkpt><trkpt lat="43.3385667" lon="11.9236217"><ele>267.0</ele><time>2026-04-06T07:36:06.912Z</time></trkpt><trkpt lat="43.3385483" lon="11.92351"><ele>267.6666666666667</ele><time>2026-04-06T07:36:09.921Z</time></trkpt><trkpt lat="43.3385283" lon="11.923395"><ele>268.3333333333333</ele><time>2026-04-06T07:36:12.909Z</time></trkpt><trkpt lat="43.3385017" lon="11.9232733"><ele>269.0</ele><time>2026-04-06T07:36:15.914Z</time></trkpt><trkpt lat="43.3384933" lon="11.9231467"><ele>269.66666666666663</ele><time>2026-04-06T07:36:18.904Z</time></trkpt><trkpt lat="43.3384983" lon="11.923025"><ele>270.3333333333333</ele><time>2026-04-06T07:36:21.91Z</time></trkpt><trkpt lat="43.3385217" lon="11.9229433"><ele>271.0</ele><time>2026-04-06T07:36:26.91Z</time></trkpt><trkpt lat="43.338515" lon="11.922845"><ele>271.0</ele><time>2026-04-06T07:36:29.909Z</time></trkpt><trkpt lat="43.3384983" lon="11.9227317"><ele>271.0</ele><time>2026-04-06T07:36:32.92Z</time></trkpt><trkpt lat="43.3384967" lon="11.9226383"><ele>271.0</ele><time>2026-04-06T07:36:34.909Z</time></trkpt><trkpt lat="43.33849" lon="11.9225467"><ele>271.0</ele><time>2026-04-06T07:36:36.908Z</time></trkpt><trkpt lat="43.3384933" lon="11.9224183"><ele>271.0</ele><time>2026-04-06T07:36:39.907Z</time></trkpt><trkpt lat="43.3384983" lon="11.9223267"><ele>271.0</ele><time>2026-04-06T07:36:41.907Z</time></trkpt><trkpt lat="43.3384833" lon="11.922225"><ele>270.8333333333333</ele><time>2026-04-06T07:36:43.903Z</time></trkpt><trkpt lat="43.3384683" lon="11.9220983"><ele>270.66666666666663</ele><time>2026-04-06T07:36:45.911Z</time></trkpt><trkpt lat="43.33846" lon="11.9219817"><ele>270.5</ele><time>2026-04-06T07:36:47.906Z</time></trkpt><trkpt lat="43.3384567" lon="11.9218867"><ele>270.3333333333333</ele><time>2026-04-06T07:36:49.912Z</time></trkpt><trkpt lat="43.3384583" lon="11.9217817"><ele>270.1666666666667</ele><time>2026-04-06T07:36:51.907Z</time></trkpt><trkpt lat="43.3384683" lon="11.9216717"><ele>270.0</ele><time>2026-04-06T07:36:53.914Z</time></trkpt><trkpt lat="43.3384883" lon="11.9215717"><ele>269.3333333333333</ele><time>2026-04-06T07:36:55.923Z</time></trkpt><trkpt lat="43.338505" lon="11.9214583"><ele>268.6666666666667</ele><time>2026-04-06T07:36:58.91Z</time></trkpt><trkpt lat="43.3385317" lon="11.9213533"><ele>268.0</ele><time>2026-04-06T07:37:00.91Z</time></trkpt><trkpt lat="43.3385733" lon="11.9212433"><ele>267.33333333333337</ele><time>2026-04-06T07:37:02.911Z</time></trkpt><trkpt lat="43.3386233" lon="11.921165"><ele>266.6666666666667</ele><time>2026-04-06T07:37:04.912Z</time></trkpt><trkpt lat="43.3386583" lon="11.921085"><ele>266.0</ele><time>2026-04-06T07:37:06.908Z</time></trkpt><trkpt lat="43.338695" lon="11.9210067"><ele>266.0</ele><time>2026-04-06T07:37:08.906Z</time></trkpt><trkpt lat="43.3387517" lon="11.9209133"><ele>266.0</ele><time>2026-04-06T07:37:11.906Z</time></trkpt><trkpt lat="43.338805" lon="11.9208333"><ele>266.0</ele><time>2026-04-06T07:37:14.897Z</time></trkpt><trkpt lat="43.33887" lon="11.9207433"><ele>266.0</ele><time>2026-04-06T07:37:17.916Z</time></trkpt><trkpt lat="43.3389367" lon="11.9206517"><ele>266.0</ele><time>2026-04-06T07:37:20.91Z</time></trkpt><trkpt lat="43.3389833" lon="11.920585"><ele>266.0</ele><time>2026-04-06T07:37:22.913Z</time></trkpt><trkpt lat="43.3390217" lon="11.920505"><ele>266.6666666666667</ele><time>2026-04-06T07:37:24.914Z</time></trkpt><trkpt lat="43.33907" lon="11.9204283"><ele>267.33333333333337</ele><time>2026-04-06T07:37:26.911Z</time></trkpt><trkpt lat="43.3391217" lon="11.92035"><ele>268.0</ele><time>2026-04-06T07:37:28.911Z</time></trkpt><trkpt lat="43.3391767" lon="11.920265"><ele>268.6666666666667</ele><time>2026-04-06T07:37:30.909Z</time></trkpt><trkpt lat="43.339235" lon="11.92018"><ele>269.3333333333333</ele><time>2026-04-06T07:37:32.917Z</time></trkpt><trkpt lat="43.339295" lon="11.9200917"><ele>270.0</ele><time>2026-04-06T07:37:34.921Z</time></trkpt><trkpt lat="43.3393517" lon="11.9199933"><ele>268.4</ele><time>2026-04-06T07:37:36.902Z</time></trkpt><trkpt lat="43.339415" lon="11.919895"><ele>266.8</ele><time>2026-04-06T07:37:38.912Z</time></trkpt><trkpt lat="43.33948" lon="11.919795"><ele>265.2</ele><time>2026-04-06T07:37:40.907Z</time></trkpt><trkpt lat="43.3395533" lon="11.919695"><ele>263.6</ele><time>2026-04-06T07:37:42.907Z</time></trkpt><trkpt lat="43.3396183" lon="11.9195917"><ele>262.0</ele><time>2026-04-06T07:37:44.915Z</time></trkpt><trkpt lat="43.3396883" lon="11.9194867"><ele>262.2</ele><time>2026-04-06T07:37:46.912Z</time></trkpt><trkpt lat="43.33976" lon="11.91938"><ele>262.4</ele><time>2026-04-06T07:37:48.907Z</time></trkpt><trkpt lat="43.3398283" lon="11.9192767"><ele>262.6</ele><time>2026-04-06T07:37:50.927Z</time></trkpt><trkpt lat="43.3399" lon="11.91917"><ele>262.8</ele><time>2026-04-06T07:37:52.914Z</time></trkpt><trkpt lat="43.339975" lon="11.91906"><ele>263.0</ele><time>2026-04-06T07:37:54.914Z</time></trkpt><trkpt lat="43.34005" lon="11.9189483"><ele>263.0</ele><time>2026-04-06T07:37:56.913Z</time></trkpt><trkpt lat="43.3401233" lon="11.9188333"><ele>263.0</ele><time>2026-04-06T07:37:58.916Z</time></trkpt><trkpt lat="43.3402017" lon="11.9187183"><ele>263.0</ele><time>2026-04-06T07:38:00.92Z</time></trkpt><trkpt lat="43.34028" lon="11.9186"><ele>263.0</ele><time>2026-04-06T07:38:02.911Z</time></trkpt><trkpt lat="43.3403567" lon="11.9184733"><ele>262.6</ele><time>2026-04-06T07:38:04.914Z</time></trkpt><trkpt lat="43.3404333" lon="11.9183417"><ele>262.20000000000005</ele><time>2026-04-06T07:38:06.912Z</time></trkpt><trkpt lat="43.3404717" lon="11.9182717"><ele>261.8</ele><time>2026-04-06T07:38:07.92Z</time></trkpt><trkpt lat="43.3405517" lon="11.918145"><ele>261.40000000000003</ele><time>2026-04-06T07:38:09.914Z</time></trkpt><trkpt lat="43.3406283" lon="11.9180267"><ele>261.0</ele><time>2026-04-06T07:38:11.911Z</time></trkpt><trkpt lat="43.340705" lon="11.9179133"><ele>261.0</ele><time>2026-04-06T07:38:13.904Z</time></trkpt><trkpt lat="43.340785" lon="11.9178033"><ele>261.0</ele><time>2026-04-06T07:38:15.9Z</time></trkpt><trkpt lat="43.3408533" lon="11.9176917"><ele>261.0</ele><time>2026-04-06T07:38:17.916Z</time></trkpt><trkpt lat="43.3409167" lon="11.9175867"><ele>261.0</ele><time>2026-04-06T07:38:19.92Z</time></trkpt><trkpt lat="43.3409833" lon="11.9174917"><ele>261.0</ele><time>2026-04-06T07:38:21.909Z</time></trkpt><trkpt lat="43.3410483" lon="11.9174017"><ele>261.0</ele><time>2026-04-06T07:38:23.907Z</time></trkpt><trkpt lat="43.3411117" lon="11.9173083"><ele>261.0</ele><time>2026-04-06T07:38:25.909Z</time></trkpt><trkpt lat="43.3411717" lon="11.9172267"><ele>261.0</ele><time>2026-04-06T07:38:27.909Z</time></trkpt><trkpt lat="43.3412217" lon="11.917145"><ele>261.0</ele><time>2026-04-06T07:38:29.911Z</time></trkpt><trkpt lat="43.3412717" lon="11.9170717"><ele>261.0</ele><time>2026-04-06T07:38:31.906Z</time></trkpt><trkpt lat="43.3413167" lon="11.916995"><ele>261.0</ele><time>2026-04-06T07:38:33.906Z</time></trkpt><trkpt lat="43.3413617" lon="11.9169317"><ele>261.6666666666667</ele><time>2026-04-06T07:38:35.918Z</time></trkpt><trkpt lat="43.341405" lon="11.916865"><ele>262.3333333333333</ele><time>2026-04-06T07:38:37.917Z</time></trkpt><trkpt lat="43.341445" lon="11.9167967"><ele>263.0</ele><time>2026-04-06T07:38:39.91Z</time></trkpt><trkpt lat="43.341505" lon="11.9166983"><ele>263.66666666666663</ele><time>2026-04-06T07:38:42.917Z</time></trkpt><trkpt lat="43.3415517" lon="11.9166367"><ele>264.3333333333333</ele><time>2026-04-06T07:38:44.907Z</time></trkpt><trkpt lat="43.3416117" lon="11.9165417"><ele>265.0</ele><time>2026-04-06T07:38:47.903Z</time></trkpt><trkpt lat="43.341675" lon="11.91644"><ele>265.0</ele><time>2026-04-06T07:38:50.913Z</time></trkpt><trkpt lat="43.34174" lon="11.9163467"><ele>265.0</ele><time>2026-04-06T07:38:53.917Z</time></trkpt><trkpt lat="43.3418017" lon="11.9162583"><ele>265.0</ele><time>2026-04-06T07:38:56.916Z</time></trkpt><trkpt lat="43.3418583" lon="11.9161583"><ele>265.0</ele><time>2026-04-06T07:38:59.905Z</time></trkpt><trkpt lat="43.3419133" lon="11.9160583"><ele>265.0</ele><time>2026-04-06T07:39:02.904Z</time></trkpt><trkpt lat="43.3419733" lon="11.9159767"><ele>264.8333333333333</ele><time>2026-04-06T07:39:05.905Z</time></trkpt><trkpt lat="43.3420383" lon="11.91589"><ele>264.66666666666663</ele><time>2026-04-06T07:39:08.929Z</time></trkpt><trkpt lat="43.3420833" lon="11.9158267"><ele>264.5</ele><time>2026-04-06T07:39:10.902Z</time></trkpt><trkpt lat="43.34214" lon="11.9157417"><ele>264.3333333333333</ele><time>2026-04-06T07:39:13.915Z</time></trkpt><trkpt lat="43.3421983" lon="11.9156567"><ele>264.1666666666667</ele><time>2026-04-06T07:39:16.906Z</time></trkpt><trkpt lat="43.3422683" lon="11.915605"><ele>264.0</ele><time>2026-04-06T07:39:19.906Z</time></trkpt><trkpt lat="43.3423333" lon="11.9155833"><ele>264.8333333333333</ele><time>2026-04-06T07:39:21.907Z</time></trkpt><trkpt lat="43.3424167" lon="11.9155767"><ele>265.6666666666667</ele><time>2026-04-06T07:39:24.908Z</time></trkpt><trkpt lat="43.342485" lon="11.915595"><ele>266.5</ele><time>2026-04-06T07:39:27.912Z</time></trkpt><trkpt lat="43.3425633" lon="11.9156533"><ele>267.33333333333337</ele><time>2026-04-06T07:39:30.909Z</time></trkpt><trkpt lat="43.3426267" lon="11.9156917"><ele>268.1666666666667</ele><time>2026-04-06T07:39:33.915Z</time></trkpt><trkpt lat="43.3426883" lon="11.91575"><ele>269.0</ele><time>2026-04-06T07:39:36.906Z</time></trkpt><trkpt lat="43.34275" lon="11.9157917"><ele>269.0</ele><time>2026-04-06T07:39:39.908Z</time></trkpt><trkpt lat="43.34282" lon="11.915825"><ele>269.0</ele><time>2026-04-06T07:39:43.909Z</time></trkpt><trkpt lat="43.342905" lon="11.9158467"><ele>269.0</ele><time>2026-04-06T07:41:11.905Z</time></trkpt><trkpt lat="43.342985" lon="11.9158883"><ele>269.0</ele><time>2026-04-06T07:41:15.905Z</time></trkpt><trkpt lat="43.3430417" lon="11.915935"><ele>269.0</ele><time>2026-04-06T07:41:17.907Z</time></trkpt><trkpt lat="43.3431183" lon="11.9159833"><ele>269.0</ele><time>2026-04-06T07:41:20.914Z</time></trkpt><trkpt lat="43.343185" lon="11.9160467"><ele>270.0</ele><time>2026-04-06T07:41:23.913Z</time></trkpt><trkpt lat="43.3432467" lon="11.9161167"><ele>271.0</ele><time>2026-04-06T07:41:26.904Z</time></trkpt><trkpt lat="43.3433033" lon="11.916165"><ele>272.0</ele><time>2026-04-06T07:41:29.906Z</time></trkpt><trkpt lat="43.343365" lon="11.9162183"><ele>273.0</ele><time>2026-04-06T07:41:32.907Z</time></trkpt><trkpt lat="43.3434233" lon="11.91626"><ele>274.0</ele><time>2026-04-06T07:41:35.909Z</time></trkpt><trkpt lat="43.3434917" lon="11.9163233"><ele>275.0</ele><time>2026-04-06T07:41:39.907Z</time></trkpt><trkpt lat="43.34357" lon="11.9163633"><ele>275.0</ele><time>2026-04-06T07:42:25.909Z</time></trkpt><trkpt lat="43.3436317" lon="11.9164183"><ele>275.0</ele><time>2026-04-06T07:42:28.923Z</time></trkpt><trkpt lat="43.3436883" lon="11.9164633"><ele>275.0</ele><time>2026-04-06T07:42:30.912Z</time></trkpt><trkpt lat="43.343745" lon="11.916505"><ele>275.0</ele><time>2026-04-06T07:42:32.917Z</time></trkpt><trkpt lat="43.3438083" lon="11.916545"><ele>275.0</ele><time>2026-04-06T07:42:34.911Z</time></trkpt><trkpt lat="43.34387" lon="11.9165933"><ele>275.0</ele><time>2026-04-06T07:42:36.908Z</time></trkpt><trkpt lat="43.343945" lon="11.9166467"><ele>275.0</ele><time>2026-04-06T07:42:39.924Z</time></trkpt><trkpt lat="43.3440083" lon="11.916715"><ele>276.0</ele><time>2026-04-06T07:42:42.907Z</time></trkpt><trkpt lat="43.3440783" lon="11.916765"><ele>277.0</ele><time>2026-04-06T07:42:46.909Z</time></trkpt><trkpt lat="43.3441367" lon="11.9168"><ele>278.0</ele><time>2026-04-06T07:42:49.907Z</time></trkpt><trkpt lat="43.34419" lon="11.9168467"><ele>279.0</ele><time>2026-04-06T07:42:52.919Z</time></trkpt><trkpt lat="43.3442417" lon="11.9168983"><ele>280.0</ele><time>2026-04-06T07:42:55.91Z</time></trkpt><trkpt lat="43.3442983" lon="11.9169417"><ele>281.0</ele><time>2026-04-06T07:42:58.904Z</time></trkpt><trkpt lat="43.34436" lon="11.91701"><ele>282.0</ele><time>2026-04-06T07:43:02.912Z</time></trkpt><trkpt lat="43.34442" lon="11.917055"><ele>282.0</ele><time>2026-04-06T07:43:06.906Z</time></trkpt><trkpt lat="43.3444767" lon="11.9170933"><ele>282.0</ele><time>2026-04-06T07:43:10.904Z</time></trkpt><trkpt lat="43.3445533" lon="11.917145"><ele>282.0</ele><time>2026-04-06T07:43:14.911Z</time></trkpt><trkpt lat="43.3446167" lon="11.9171883"><ele>282.0</ele><time>2026-04-06T07:43:17.906Z</time></trkpt><trkpt lat="43.3446717" lon="11.9172367"><ele>282.0</ele><time>2026-04-06T07:43:20.917Z</time></trkpt><trkpt lat="43.3447233" lon="11.9173017"><ele>282.0</ele><time>2026-04-06T07:43:23.908Z</time></trkpt><trkpt lat="43.3447933" lon="11.9173633"><ele>282.0</ele><time>2026-04-06T07:43:27.908Z</time></trkpt><trkpt lat="43.3448483" lon="11.91741"><ele>282.8571428571429</ele><time>2026-04-06T07:43:30.914Z</time></trkpt><trkpt lat="43.34491" lon="11.9174617"><ele>283.7142857142857</ele><time>2026-04-06T07:43:33.908Z</time></trkpt><trkpt lat="43.34497" lon="11.917505"><ele>284.57142857142856</ele><time>2026-04-06T07:43:36.91Z</time></trkpt><trkpt lat="43.3450367" lon="11.9175567"><ele>285.42857142857144</ele><time>2026-04-06T07:43:40.907Z</time></trkpt><trkpt lat="43.3450983" lon="11.9175917"><ele>286.2857142857143</ele><time>2026-04-06T07:43:44.903Z</time></trkpt><trkpt lat="43.3451483" lon="11.9176667"><ele>287.14285714285717</ele><time>2026-04-06T07:43:48.915Z</time></trkpt><trkpt lat="43.3451783" lon="11.9177533"><ele>288.0</ele><time>2026-04-06T07:43:51.919Z</time></trkpt><trkpt lat="43.3451717" lon="11.9178417"><ele>288.7142857142857</ele><time>2026-04-06T07:43:54.921Z</time></trkpt><trkpt lat="43.3451433" lon="11.917925"><ele>289.42857142857144</ele><time>2026-04-06T07:43:57.912Z</time></trkpt><trkpt lat="43.345105" lon="11.9180067"><ele>290.1428571428571</ele><time>2026-04-06T07:44:00.91Z</time></trkpt><trkpt lat="43.34506" lon="11.918075"><ele>290.8571428571429</ele><time>2026-04-06T07:44:03.917Z</time></trkpt><trkpt lat="43.34501" lon="11.9181467"><ele>291.57142857142856</ele><time>2026-04-06T07:44:06.918Z</time></trkpt><trkpt lat="43.34497" lon="11.9182167"><ele>292.2857142857143</ele><time>2026-04-06T07:44:09.914Z</time></trkpt><trkpt lat="43.3449183" lon="11.9183067"><ele>293.0</ele><time>2026-04-06T07:44:13.906Z</time></trkpt><trkpt lat="43.3448733" lon="11.9184033"><ele>292.99999999999994</ele><time>2026-04-06T07:44:17.902Z</time></trkpt><trkpt lat="43.34483" lon="11.9184917"><ele>293.0</ele><time>2026-04-06T07:44:21.911Z</time></trkpt><trkpt lat="43.344775" lon="11.9185783"><ele>293.0</ele><time>2026-04-06T07:44:25.91Z</time></trkpt><trkpt lat="43.3447283" lon="11.91865"><ele>293.0</ele><time>2026-04-06T07:44:28.915Z</time></trkpt><trkpt lat="43.3446883" lon="11.9187333"><ele>293.0</ele><time>2026-04-06T07:44:31.911Z</time></trkpt><trkpt lat="43.3446667" lon="11.9188267"><ele>292.99999999999994</ele><time>2026-04-06T07:44:34.919Z</time></trkpt><trkpt lat="43.3446267" lon="11.9189083"><ele>293.0</ele><time>2026-04-06T07:44:37.902Z</time></trkpt><trkpt lat="43.3445983" lon="11.91899"><ele>293.0</ele><time>2026-04-06T07:44:40.921Z</time></trkpt><trkpt lat="43.3445733" lon="11.9190817"><ele>293.0</ele><time>2026-04-06T07:44:43.909Z</time></trkpt><trkpt lat="43.344535" lon="11.9191833"><ele>293.0</ele><time>2026-04-06T07:44:47.918Z</time></trkpt><trkpt lat="43.3445" lon="11.9192667"><ele>293.0</ele><time>2026-04-06T07:45:43.919Z</time></trkpt><trkpt lat="43.34449" lon="11.919375"><ele>293.0</ele><time>2026-04-06T07:45:47.919Z</time></trkpt><trkpt lat="43.3444783" lon="11.9194733"><ele>293.0</ele><time>2026-04-06T07:45:50.922Z</time></trkpt><trkpt lat="43.3444517" lon="11.9195683"><ele>294.2857142857143</ele><time>2026-04-06T07:45:53.908Z</time></trkpt><trkpt lat="43.344425" lon="11.9196617"><ele>295.57142857142856</ele><time>2026-04-06T07:45:56.91Z</time></trkpt><trkpt lat="43.3444017" lon="11.9197717"><ele>296.8571428571429</ele><time>2026-04-06T07:45:59.907Z</time></trkpt><trkpt lat="43.34438" lon="11.9198767"><ele>298.1428571428571</ele><time>2026-04-06T07:46:02.903Z</time></trkpt><trkpt lat="43.3443583" lon="11.9199667"><ele>299.42857142857144</ele><time>2026-04-06T07:46:05.902Z</time></trkpt><trkpt lat="43.3443417" lon="11.92006"><ele>300.7142857142857</ele><time>2026-04-06T07:46:08.912Z</time></trkpt><trkpt lat="43.3443117" lon="11.9201533"><ele>302.0</ele><time>2026-04-06T07:46:11.913Z</time></trkpt><trkpt lat="43.3442817" lon="11.9202417"><ele>303.42857142857144</ele><time>2026-04-06T07:46:14.912Z</time></trkpt><trkpt lat="43.3442667" lon="11.9203333"><ele>304.8571428571429</ele><time>2026-04-06T07:46:17.919Z</time></trkpt><trkpt lat="43.3442483" lon="11.9204217"><ele>306.28571428571433</ele><time>2026-04-06T07:46:20.905Z</time></trkpt><trkpt lat="43.34423" lon="11.920515"><ele>307.7142857142857</ele><time>2026-04-06T07:46:23.908Z</time></trkpt><trkpt lat="43.344215" lon="11.9206033"><ele>309.1428571428571</ele><time>2026-04-06T07:46:26.921Z</time></trkpt><trkpt lat="43.3442033" lon="11.9206917"><ele>310.5714285714286</ele><time>2026-04-06T07:46:29.91Z</time></trkpt><trkpt lat="43.344165" lon="11.9207883"><ele>312.0</ele><time>2026-04-06T07:46:33.9Z</time></trkpt><trkpt lat="43.3441217" lon="11.9208617"><ele>313.3333333333333</ele><time>2026-04-06T07:46:36.908Z</time></trkpt><trkpt lat="43.3440633" lon="11.92092"><ele>314.6666666666667</ele><time>2026-04-06T07:46:39.909Z</time></trkpt><trkpt lat="43.3440083" lon="11.9209917"><ele>316.0</ele><time>2026-04-06T07:46:43.904Z</time></trkpt><trkpt lat="43.3439367" lon="11.9210583"><ele>317.33333333333337</ele><time>2026-04-06T07:46:47.91Z</time></trkpt><trkpt lat="43.34389" lon="11.9211283"><ele>318.6666666666667</ele><time>2026-04-06T07:46:50.911Z</time></trkpt><trkpt lat="43.3438667" lon="11.921225"><ele>320.0</ele><time>2026-04-06T07:46:53.905Z</time></trkpt><trkpt lat="43.34388" lon="11.9213283"><ele>320.0</ele><time>2026-04-06T07:46:56.915Z</time></trkpt><trkpt lat="43.3439033" lon="11.92141"><ele>320.0</ele><time>2026-04-06T07:48:23.907Z</time></trkpt><trkpt lat="43.3439433" lon="11.921505"><ele>320.0</ele><time>2026-04-06T07:48:26.911Z</time></trkpt><trkpt lat="43.3439867" lon="11.9215967"><ele>320.0</ele><time>2026-04-06T07:48:29.906Z</time></trkpt><trkpt lat="43.34404" lon="11.9216883"><ele>320.0</ele><time>2026-04-06T07:48:32.912Z</time></trkpt><trkpt lat="43.3440817" lon="11.9217833"><ele>320.0</ele><time>2026-04-06T07:48:35.91Z</time></trkpt><trkpt lat="43.344135" lon="11.921885"><ele>320.5</ele><time>2026-04-06T07:48:38.913Z</time></trkpt><trkpt lat="43.3441817" lon="11.92199"><ele>321.0</ele><time>2026-04-06T07:48:41.91Z</time></trkpt><trkpt lat="43.3442233" lon="11.9220967"><ele>321.5</ele><time>2026-04-06T07:48:44.909Z</time></trkpt><trkpt lat="43.3442683" lon="11.9221967"><ele>322.0</ele><time>2026-04-06T07:48:47.898Z</time></trkpt><trkpt lat="43.3443067" lon="11.9222933"><ele>322.5</ele><time>2026-04-06T07:48:50.919Z</time></trkpt><trkpt lat="43.3443333" lon="11.9223733"><ele>323.0</ele><time>2026-04-06T07:48:52.912Z</time></trkpt><trkpt lat="43.34439" lon="11.9224767"><ele>322.5</ele><time>2026-04-06T07:48:55.912Z</time></trkpt><trkpt lat="43.3444367" lon="11.9225817"><ele>322.0</ele><time>2026-04-06T07:48:58.91Z</time></trkpt><trkpt lat="43.34447" lon="11.92269"><ele>321.5</ele><time>2026-04-06T07:49:01.906Z</time></trkpt><trkpt lat="43.3445167" lon="11.9227817"><ele>321.0</ele><time>2026-04-06T07:49:04.912Z</time></trkpt><trkpt lat="43.3445733" lon="11.9228883"><ele>320.5</ele><time>2026-04-06T07:49:07.908Z</time></trkpt><trkpt lat="43.3446117" lon="11.922965"><ele>320.0</ele><time>2026-04-06T07:49:09.906Z</time></trkpt><trkpt lat="43.34465" lon="11.9230383"><ele>320.0</ele><time>2026-04-06T07:49:11.908Z</time></trkpt><trkpt lat="43.34469" lon="11.9231067"><ele>320.0</ele><time>2026-04-06T07:49:13.908Z</time></trkpt><trkpt lat="43.3447483" lon="11.9232033"><ele>320.0</ele><time>2026-04-06T07:49:16.914Z</time></trkpt><trkpt lat="43.3447933" lon="11.9232717"><ele>320.0</ele><time>2026-04-06T07:49:18.912Z</time></trkpt><trkpt lat="43.3448533" lon="11.92337"><ele>320.0</ele><time>2026-04-06T07:49:21.924Z</time></trkpt><trkpt lat="43.3449117" lon="11.9234617"><ele>320.0</ele><time>2026-04-06T07:49:24.91Z</time></trkpt><trkpt lat="43.3449583" lon="11.9235417"><ele>319.6666666666667</ele><time>2026-04-06T07:49:27.906Z</time></trkpt><trkpt lat="43.3450117" lon="11.92362"><ele>319.33333333333337</ele><time>2026-04-06T07:49:30.908Z</time></trkpt><trkpt lat="43.345055" lon="11.9237"><ele>319.0</ele><time>2026-04-06T07:49:33.916Z</time></trkpt><trkpt lat="43.34511" lon="11.923765"><ele>318.6666666666667</ele><time>2026-04-06T07:49:36.908Z</time></trkpt><trkpt lat="43.3451683" lon="11.92384"><ele>318.3333333333333</ele><time>2026-04-06T07:49:39.902Z</time></trkpt><trkpt lat="43.34522" lon="11.9239283"><ele>318.0</ele><time>2026-04-06T07:49:42.908Z</time></trkpt><trkpt lat="43.3452883" lon="11.9239917"><ele>318.0</ele><time>2026-04-06T07:49:45.906Z</time></trkpt><trkpt lat="43.3453517" lon="11.9240767"><ele>318.0</ele><time>2026-04-06T07:49:48.902Z</time></trkpt><trkpt lat="43.3454067" lon="11.924145"><ele>318.0</ele><time>2026-04-06T07:49:51.909Z</time></trkpt><trkpt lat="43.3454767" lon="11.924235"><ele>318.0</ele><time>2026-04-06T07:49:54.913Z</time></trkpt><trkpt lat="43.34553" lon="11.9243"><ele>318.0</ele><time>2026-04-06T07:49:56.906Z</time></trkpt><trkpt lat="43.345585" lon="11.9243717"><ele>318.0</ele><time>2026-04-06T07:49:58.907Z</time></trkpt><trkpt lat="43.3456583" lon="11.9244433"><ele>317.8333333333333</ele><time>2026-04-06T07:50:01.908Z</time></trkpt><trkpt lat="43.345715" lon="11.9245083"><ele>317.6666666666667</ele><time>2026-04-06T07:50:04.912Z</time></trkpt><trkpt lat="43.3457667" lon="11.92457"><ele>317.5</ele><time>2026-04-06T07:50:06.93Z</time></trkpt><trkpt lat="43.34584" lon="11.9246417"><ele>317.33333333333337</ele><time>2026-04-06T07:50:09.914Z</time></trkpt><trkpt lat="43.3458967" lon="11.9247"><ele>317.1666666666667</ele><time>2026-04-06T07:50:11.932Z</time></trkpt><trkpt lat="43.34596" lon="11.9247583"><ele>317.0</ele><time>2026-04-06T07:50:14.909Z</time></trkpt><trkpt lat="43.346035" lon="11.924805"><ele>317.0</ele><time>2026-04-06T07:50:18.908Z</time></trkpt><trkpt lat="43.3461133" lon="11.924855"><ele>317.0</ele><time>2026-04-06T07:50:21.918Z</time></trkpt><trkpt lat="43.3461717" lon="11.9248967"><ele>317.0</ele><time>2026-04-06T07:50:23.911Z</time></trkpt><trkpt lat="43.3462333" lon="11.924935"><ele>317.0</ele><time>2026-04-06T07:50:25.907Z</time></trkpt><trkpt lat="43.3463" lon="11.9249717"><ele>317.0</ele><time>2026-04-06T07:50:27.901Z</time></trkpt><trkpt lat="43.34636" lon="11.9250033"><ele>317.0</ele><time>2026-04-06T07:50:29.909Z</time></trkpt><trkpt lat="43.3464383" lon="11.9250767"><ele>316.5</ele><time>2026-04-06T07:50:32.908Z</time></trkpt><trkpt lat="43.346515" lon="11.92514"><ele>316.0</ele><time>2026-04-06T07:50:35.911Z</time></trkpt><trkpt lat="43.3465867" lon="11.9251717"><ele>315.5</ele><time>2026-04-06T07:50:38.919Z</time></trkpt><trkpt lat="43.34667" lon="11.925225"><ele>315.0</ele><time>2026-04-06T07:50:41.912Z</time></trkpt><trkpt lat="43.3467483" lon="11.92528"><ele>314.5</ele><time>2026-04-06T07:50:44.906Z</time></trkpt><trkpt lat="43.346825" lon="11.925325"><ele>314.0</ele><time>2026-04-06T07:50:47.901Z</time></trkpt><trkpt lat="43.3469183" lon="11.92538"><ele>314.0</ele><time>2026-04-06T07:50:50.904Z</time></trkpt><trkpt lat="43.3470033" lon="11.9254217"><ele>314.0</ele><time>2026-04-06T07:50:53.904Z</time></trkpt><trkpt lat="43.3470967" lon="11.925465"><ele>314.0</ele><time>2026-04-06T07:50:56.908Z</time></trkpt><trkpt lat="43.3471717" lon="11.9254717"><ele>314.0</ele><time>2026-04-06T07:50:58.907Z</time></trkpt><trkpt lat="43.3472367" lon="11.9254867"><ele>314.0</ele><time>2026-04-06T07:51:00.916Z</time></trkpt><trkpt lat="43.3473033" lon="11.9254983"><ele>314.0</ele><time>2026-04-06T07:51:02.903Z</time></trkpt><trkpt lat="43.3473683" lon="11.9255117"><ele>315.0</ele><time>2026-04-06T07:51:04.916Z</time></trkpt><trkpt lat="43.347455" lon="11.9255167"><ele>316.0</ele><time>2026-04-06T07:51:07.905Z</time></trkpt><trkpt lat="43.3475183" lon="11.9254967"><ele>317.0</ele><time>2026-04-06T07:51:09.906Z</time></trkpt><trkpt lat="43.3476017" lon="11.9254517"><ele>318.0</ele><time>2026-04-06T07:51:12.909Z</time></trkpt><trkpt lat="43.3476633" lon="11.9253917"><ele>319.0</ele><time>2026-04-06T07:51:15.904Z</time></trkpt><trkpt lat="43.3477167" lon="11.9253217"><ele>320.0</ele><time>2026-04-06T07:51:18.905Z</time></trkpt><trkpt lat="43.3477617" lon="11.9252433"><ele>320.0</ele><time>2026-04-06T07:51:21.913Z</time></trkpt><trkpt lat="43.3478167" lon="11.92519"><ele>320.0</ele><time>2026-04-06T07:51:24.903Z</time></trkpt><trkpt lat="43.3478767" lon="11.9251417"><ele>320.0</ele><time>2026-04-06T07:51:27.904Z</time></trkpt><trkpt lat="43.3479433" lon="11.9251033"><ele>320.0</ele><time>2026-04-06T07:51:30.909Z</time></trkpt><trkpt lat="43.3480067" lon="11.9250517"><ele>320.0</ele><time>2026-04-06T07:51:33.909Z</time></trkpt><trkpt lat="43.3480683" lon="11.9250317"><ele>320.0</ele><time>2026-04-06T07:51:36.921Z</time></trkpt><trkpt lat="43.3481383" lon="11.925005"><ele>320.0</ele><time>2026-04-06T07:51:39.905Z</time></trkpt><trkpt lat="43.3482033" lon="11.9249967"><ele>320.0</ele><time>2026-04-06T07:51:42.901Z</time></trkpt><trkpt lat="43.34828" lon="11.9249817"><ele>320.0</ele><time>2026-04-06T07:51:45.919Z</time></trkpt><trkpt lat="43.348355" lon="11.9249667"><ele>320.0</ele><time>2026-04-06T07:51:48.913Z</time></trkpt><trkpt lat="43.3484267" lon="11.9249767"><ele>320.0</ele><time>2026-04-06T07:51:51.916Z</time></trkpt><trkpt lat="43.348495" lon="11.925"><ele>320.0</ele><time>2026-04-06T07:51:54.911Z</time></trkpt><trkpt lat="43.34856" lon="11.9250617"><ele>320.0</ele><time>2026-04-06T07:51:57.911Z</time></trkpt><trkpt lat="43.3486" lon="11.9251583"><ele>320.0</ele><time>2026-04-06T07:52:00.907Z</time></trkpt><trkpt lat="43.348635" lon="11.9252633"><ele>320.0</ele><time>2026-04-06T07:52:03.912Z</time></trkpt><trkpt lat="43.34867" lon="11.925365"><ele>320.0</ele><time>2026-04-06T07:52:06.912Z</time></trkpt><trkpt lat="43.3487117" lon="11.9254667"><ele>320.0</ele><time>2026-04-06T07:52:09.908Z</time></trkpt><trkpt lat="43.3487633" lon="11.92557"><ele>320.0</ele><time>2026-04-06T07:52:12.905Z</time></trkpt><trkpt lat="43.3488267" lon="11.9256517"><ele>320.0</ele><time>2026-04-06T07:52:15.907Z</time></trkpt><trkpt lat="43.3488917" lon="11.92573"><ele>322.5</ele><time>2026-04-06T07:52:18.906Z</time></trkpt><trkpt lat="43.348955" lon="11.925775"><ele>325.0</ele><time>2026-04-06T07:52:21.901Z</time></trkpt><trkpt lat="43.3490333" lon="11.9258167"><ele>327.5</ele><time>2026-04-06T07:52:24.9Z</time></trkpt><trkpt lat="43.3491167" lon="11.925845"><ele>330.0</ele><time>2026-04-06T07:52:27.914Z</time></trkpt><trkpt lat="43.3492033" lon="11.9258533"><ele>332.5</ele><time>2026-04-06T07:52:30.912Z</time></trkpt><trkpt lat="43.3492917" lon="11.9258467"><ele>335.0</ele><time>2026-04-06T07:52:33.9Z</time></trkpt><trkpt lat="43.34938" lon="11.92585"><ele>335.0</ele><time>2026-04-06T07:52:36.902Z</time></trkpt><trkpt lat="43.349465" lon="11.9258417"><ele>335.0</ele><time>2026-04-06T07:52:39.9Z</time></trkpt><trkpt lat="43.3495483" lon="11.9258083"><ele>335.0</ele><time>2026-04-06T07:52:42.904Z</time></trkpt><trkpt lat="43.3496183" lon="11.925775"><ele>335.0</ele><time>2026-04-06T07:52:45.908Z</time></trkpt><trkpt lat="43.3496917" lon="11.9257417"><ele>335.0</ele><time>2026-04-06T07:52:48.912Z</time></trkpt><trkpt lat="43.3497767" lon="11.925695"><ele>335.0</ele><time>2026-04-06T07:52:51.922Z</time></trkpt><trkpt lat="43.3498583" lon="11.9256617"><ele>334.6666666666667</ele><time>2026-04-06T07:52:54.91Z</time></trkpt><trkpt lat="43.3499333" lon="11.9256233"><ele>334.33333333333337</ele><time>2026-04-06T07:52:57.901Z</time></trkpt><trkpt lat="43.3499933" lon="11.92558"><ele>334.0</ele><time>2026-04-06T07:53:00.905Z</time></trkpt><trkpt lat="43.35006" lon="11.92554"><ele>333.6666666666667</ele><time>2026-04-06T07:53:03.905Z</time></trkpt><trkpt lat="43.350125" lon="11.9254867"><ele>333.3333333333333</ele><time>2026-04-06T07:53:06.903Z</time></trkpt><trkpt lat="43.35019" lon="11.925425"><ele>333.0</ele><time>2026-04-06T07:53:11.908Z</time></trkpt><trkpt lat="43.3502467" lon="11.9253517"><ele>333.0</ele><time>2026-04-06T07:53:15.906Z</time></trkpt><trkpt lat="43.3503117" lon="11.9253083"><ele>333.0</ele><time>2026-04-06T07:53:18.904Z</time></trkpt><trkpt lat="43.3503717" lon="11.9252667"><ele>333.0</ele><time>2026-04-06T07:53:21.916Z</time></trkpt><trkpt lat="43.3504317" lon="11.9251967"><ele>333.0</ele><time>2026-04-06T07:54:11.905Z</time></trkpt><trkpt lat="43.3504967" lon="11.925135"><ele>333.0</ele><time>2026-04-06T07:54:14.906Z</time></trkpt><trkpt lat="43.3505567" lon="11.9251067"><ele>333.0</ele><time>2026-04-06T07:54:16.915Z</time></trkpt><trkpt lat="43.3506467" lon="11.92508"><ele>334.5</ele><time>2026-04-06T07:54:19.903Z</time></trkpt><trkpt lat="43.350735" lon="11.9250667"><ele>336.0</ele><time>2026-04-06T07:54:22.904Z</time></trkpt><trkpt lat="43.35082" lon="11.9250783"><ele>337.5</ele><time>2026-04-06T07:54:25.912Z</time></trkpt><trkpt lat="43.3509" lon="11.9250783"><ele>339.0</ele><time>2026-04-06T07:54:28.909Z</time></trkpt><trkpt lat="43.3509733" lon="11.9250783"><ele>340.5</ele><time>2026-04-06T07:54:31.908Z</time></trkpt><trkpt lat="43.3510517" lon="11.925095"><ele>342.0</ele><time>2026-04-06T07:54:34.913Z</time></trkpt><trkpt lat="43.3511217" lon="11.925135"><ele>342.0</ele><time>2026-04-06T07:54:37.926Z</time></trkpt><trkpt lat="43.3511867" lon="11.9252"><ele>342.0</ele><time>2026-04-06T07:54:40.9Z</time></trkpt><trkpt lat="43.3512117" lon="11.92528"><ele>342.0</ele><time>2026-04-06T07:54:42.908Z</time></trkpt><trkpt lat="43.351215" lon="11.92537"><ele>342.0</ele><time>2026-04-06T07:54:44.915Z</time></trkpt><trkpt lat="43.3511867" lon="11.9254883"><ele>342.0</ele><time>2026-04-06T07:54:47.905Z</time></trkpt><trkpt lat="43.351155" lon="11.9256133"><ele>342.0</ele><time>2026-04-06T07:54:50.911Z</time></trkpt><trkpt lat="43.3511133" lon="11.925735"><ele>342.0</ele><time>2026-04-06T07:54:53.905Z</time></trkpt><trkpt lat="43.35108" lon="11.92585"><ele>342.0</ele><time>2026-04-06T07:54:56.909Z</time></trkpt><trkpt lat="43.351055" lon="11.925975"><ele>342.0</ele><time>2026-04-06T07:54:59.907Z</time></trkpt><trkpt lat="43.3510217" lon="11.9260817"><ele>342.0</ele><time>2026-04-06T07:55:02.897Z</time></trkpt><trkpt lat="43.3509833" lon="11.9262017"><ele>342.0</ele><time>2026-04-06T07:55:05.901Z</time></trkpt><trkpt lat="43.3509583" lon="11.9263267"><ele>342.5</ele><time>2026-04-06T07:55:08.915Z</time></trkpt><trkpt lat="43.350935" lon="11.9264483"><ele>343.0</ele><time>2026-04-06T07:55:11.921Z</time></trkpt><trkpt lat="43.3509117" lon="11.9265333"><ele>343.5</ele><time>2026-04-06T07:55:13.907Z</time></trkpt><trkpt lat="43.35089" lon="11.92666"><ele>344.0</ele><time>2026-04-06T07:55:16.917Z</time></trkpt><trkpt lat="43.3508767" lon="11.926745"><ele>344.5</ele><time>2026-04-06T07:55:18.919Z</time></trkpt><trkpt lat="43.3508667" lon="11.9268333"><ele>345.0</ele><time>2026-04-06T07:55:20.912Z</time></trkpt><trkpt lat="43.3508433" lon="11.9269383"><ele>346.0</ele><time>2026-04-06T07:55:23.914Z</time></trkpt><trkpt lat="43.3508383" lon="11.92704"><ele>347.0</ele><time>2026-04-06T07:57:43.909Z</time></trkpt><trkpt lat="43.3508167" lon="11.92714"><ele>348.0</ele><time>2026-04-06T07:57:45.906Z</time></trkpt><trkpt lat="43.3507983" lon="11.92727"><ele>349.0</ele><time>2026-04-06T07:57:48.907Z</time></trkpt><trkpt lat="43.350785" lon="11.927365"><ele>350.0</ele><time>2026-04-06T07:57:50.907Z</time></trkpt><trkpt lat="43.35077" lon="11.927455"><ele>351.0</ele><time>2026-04-06T07:57:52.902Z</time></trkpt><trkpt lat="43.3507633" lon="11.9275467"><ele>351.0</ele><time>2026-04-06T07:57:54.918Z</time></trkpt><trkpt lat="43.3507583" lon="11.9276667"><ele>351.0</ele><time>2026-04-06T07:57:57.916Z</time></trkpt><trkpt lat="43.3507783" lon="11.9277917"><ele>351.0</ele><time>2026-04-06T07:58:00.908Z</time></trkpt><trkpt lat="43.3508217" lon="11.9279033"><ele>351.0</ele><time>2026-04-06T07:58:03.914Z</time></trkpt><trkpt lat="43.3508683" lon="11.9280017"><ele>351.0</ele><time>2026-04-06T07:58:06.907Z</time></trkpt><trkpt lat="43.3509233" lon="11.92808"><ele>351.0</ele><time>2026-04-06T07:58:09.908Z</time></trkpt><trkpt lat="43.350985" lon="11.9281533"><ele>351.0</ele><time>2026-04-06T07:58:12.905Z</time></trkpt><trkpt lat="43.3510417" lon="11.928215"><ele>351.0</ele><time>2026-04-06T07:58:15.913Z</time></trkpt><trkpt lat="43.3511017" lon="11.928275"><ele>351.0</ele><time>2026-04-06T07:58:18.903Z</time></trkpt><trkpt lat="43.35116" lon="11.9283167"><ele>351.0</ele><time>2026-04-06T07:58:21.906Z</time></trkpt><trkpt lat="43.351245" lon="11.9283633"><ele>351.0</ele><time>2026-04-06T07:58:24.911Z</time></trkpt><trkpt lat="43.3513317" lon="11.9284117"><ele>351.0</ele><time>2026-04-06T07:58:27.911Z</time></trkpt><trkpt lat="43.3514167" lon="11.9284467"><ele>349.42857142857144</ele><time>2026-04-06T07:58:30.906Z</time></trkpt><trkpt lat="43.35148" lon="11.9284633"><ele>347.8571428571429</ele><time>2026-04-06T07:58:32.913Z</time></trkpt><trkpt lat="43.351575" lon="11.92848"><ele>346.28571428571433</ele><time>2026-04-06T07:58:35.909Z</time></trkpt><trkpt lat="43.35164" lon="11.9284867"><ele>344.7142857142857</ele><time>2026-04-06T07:58:37.906Z</time></trkpt><trkpt lat="43.3517033" lon="11.928495"><ele>343.1428571428571</ele><time>2026-04-06T07:58:39.902Z</time></trkpt><trkpt lat="43.3517883" lon="11.9285117"><ele>341.5714285714286</ele><time>2026-04-06T07:58:42.906Z</time></trkpt><trkpt lat="43.3518567" lon="11.9285217"><ele>340.0</ele><time>2026-04-06T07:58:44.906Z</time></trkpt><trkpt lat="43.3519217" lon="11.9285433"><ele>340.0</ele><time>2026-04-06T07:58:46.9Z</time></trkpt><trkpt lat="43.3520083" lon="11.928565"><ele>340.0</ele><time>2026-04-06T07:58:49.907Z</time></trkpt><trkpt lat="43.3520717" lon="11.9285733"><ele>340.0</ele><time>2026-04-06T07:58:51.904Z</time></trkpt><trkpt lat="43.352135" lon="11.92859"><ele>340.0</ele><time>2026-04-06T07:58:53.902Z</time></trkpt><trkpt lat="43.3522" lon="11.9286117"><ele>340.0</ele><time>2026-04-06T07:58:55.903Z</time></trkpt><trkpt lat="43.3522933" lon="11.9286333"><ele>340.0</ele><time>2026-04-06T07:58:58.915Z</time></trkpt><trkpt lat="43.3523883" lon="11.9286433"><ele>341.66666666666663</ele><time>2026-04-06T07:59:01.912Z</time></trkpt><trkpt lat="43.3524767" lon="11.9286417"><ele>343.3333333333333</ele><time>2026-04-06T07:59:04.901Z</time></trkpt><trkpt lat="43.3525667" lon="11.9286433"><ele>345.0</ele><time>2026-04-06T07:59:07.905Z</time></trkpt><trkpt lat="43.3526333" lon="11.9286333"><ele>346.6666666666667</ele><time>2026-04-06T07:59:09.908Z</time></trkpt><trkpt lat="43.3527033" lon="11.92862"><ele>348.33333333333337</ele><time>2026-04-06T07:59:11.906Z</time></trkpt><trkpt lat="43.3527883" lon="11.9286167"><ele>350.0</ele><time>2026-04-06T07:59:14.905Z</time></trkpt><trkpt lat="43.352865" lon="11.9286383"><ele>350.0</ele><time>2026-04-06T07:59:17.903Z</time></trkpt><trkpt lat="43.35292" lon="11.92869"><ele>350.0</ele><time>2026-04-06T07:59:19.911Z</time></trkpt><trkpt lat="43.3529783" lon="11.9287533"><ele>350.0</ele><time>2026-04-06T07:59:21.906Z</time></trkpt><trkpt lat="43.3530283" lon="11.9288333"><ele>350.0</ele><time>2026-04-06T07:59:23.908Z</time></trkpt><trkpt lat="43.353065" lon="11.9289433"><ele>350.0</ele><time>2026-04-06T07:59:26.899Z</time></trkpt><trkpt lat="43.3530933" lon="11.929025"><ele>350.0</ele><time>2026-04-06T07:59:28.909Z</time></trkpt><trkpt lat="43.3531233" lon="11.9291417"><ele>354.1666666666667</ele><time>2026-04-06T07:59:31.905Z</time></trkpt><trkpt lat="43.3531433" lon="11.9292617"><ele>358.33333333333337</ele><time>2026-04-06T07:59:34.901Z</time></trkpt><trkpt lat="43.353155" lon="11.92935"><ele>362.5</ele><time>2026-04-06T07:59:36.911Z</time></trkpt><trkpt lat="43.3531383" lon="11.9294433"><ele>366.6666666666667</ele><time>2026-04-06T07:59:38.92Z</time></trkpt><trkpt lat="43.3531117" lon="11.92956"><ele>370.8333333333333</ele><time>2026-04-06T07:59:41.906Z</time></trkpt><trkpt lat="43.353085" lon="11.92967"><ele>375.0</ele><time>2026-04-06T07:59:44.908Z</time></trkpt><trkpt lat="43.3530583" lon="11.929795"><ele>375.0</ele><time>2026-04-06T07:59:47.909Z</time></trkpt><trkpt lat="43.3530433" lon="11.9298867"><ele>375.0</ele><time>2026-04-06T07:59:49.91Z</time></trkpt><trkpt lat="43.3530383" lon="11.9299733"><ele>375.0</ele><time>2026-04-06T07:59:51.909Z</time></trkpt><trkpt lat="43.35304" lon="11.9300617"><ele>375.0</ele><time>2026-04-06T07:59:53.911Z</time></trkpt><trkpt lat="43.3530383" lon="11.9301517"><ele>375.0</ele><time>2026-04-06T07:59:55.908Z</time></trkpt><trkpt lat="43.3530317" lon="11.9302717"><ele>375.0</ele><time>2026-04-06T07:59:58.922Z</time></trkpt><trkpt lat="43.353025" lon="11.93039"><ele>375.0</ele><time>2026-04-06T08:00:01.912Z</time></trkpt><trkpt lat="43.3530167" lon="11.93051"><ele>371.1666666666667</ele><time>2026-04-06T08:00:04.904Z</time></trkpt><trkpt lat="43.3529967" lon="11.9306367"><ele>367.3333333333333</ele><time>2026-04-06T08:00:07.909Z</time></trkpt><trkpt lat="43.35299" lon="11.9307267"><ele>363.5</ele><time>2026-04-06T08:00:09.909Z</time></trkpt><trkpt lat="43.35298" lon="11.9308217"><ele>359.66666666666663</ele><time>2026-04-06T08:00:11.905Z</time></trkpt><trkpt lat="43.3529733" lon="11.9309417"><ele>355.8333333333333</ele><time>2026-04-06T08:00:14.906Z</time></trkpt><trkpt lat="43.3529683" lon="11.9310533"><ele>352.0</ele><time>2026-04-06T08:00:17.909Z</time></trkpt><trkpt lat="43.35297" lon="11.931155"><ele>351.8333333333333</ele><time>2026-04-06T08:00:20.907Z</time></trkpt><trkpt lat="43.3529633" lon="11.931265"><ele>351.66666666666663</ele><time>2026-04-06T08:00:23.907Z</time></trkpt><trkpt lat="43.3529667" lon="11.9313683"><ele>351.5</ele><time>2026-04-06T08:00:26.907Z</time></trkpt><trkpt lat="43.352955" lon="11.931475"><ele>351.3333333333333</ele><time>2026-04-06T08:00:29.912Z</time></trkpt><trkpt lat="43.3529533" lon="11.9316033"><ele>351.1666666666667</ele><time>2026-04-06T08:00:32.922Z</time></trkpt><trkpt lat="43.3529367" lon="11.9317217"><ele>351.0</ele><time>2026-04-06T08:00:35.91Z</time></trkpt><trkpt lat="43.3529167" lon="11.9318317"><ele>352.0</ele><time>2026-04-06T08:00:38.908Z</time></trkpt><trkpt lat="43.352895" lon="11.9319433"><ele>353.0</ele><time>2026-04-06T08:00:41.904Z</time></trkpt><trkpt lat="43.3528983" lon="11.9320333"><ele>354.0</ele><time>2026-04-06T08:00:43.904Z</time></trkpt><trkpt lat="43.35291" lon="11.93212"><ele>355.0</ele><time>2026-04-06T08:00:45.907Z</time></trkpt><trkpt lat="43.35289" lon="11.932235"><ele>356.0</ele><time>2026-04-06T08:00:48.908Z</time></trkpt><trkpt lat="43.3528833" lon="11.9323433"><ele>357.0</ele><time>2026-04-06T08:00:51.915Z</time></trkpt><trkpt lat="43.35285" lon="11.932465"><ele>358.5</ele><time>2026-04-06T08:00:54.915Z</time></trkpt><trkpt lat="43.352805" lon="11.9325667"><ele>360.0</ele><time>2026-04-06T08:00:57.905Z</time></trkpt><trkpt lat="43.3527417" lon="11.93266"><ele>361.5</ele><time>2026-04-06T08:01:00.913Z</time></trkpt><trkpt lat="43.35269" lon="11.93274"><ele>363.0</ele><time>2026-04-06T08:01:04.918Z</time></trkpt><trkpt lat="43.352675" lon="11.932845"><ele>364.5</ele><time>2026-04-06T08:01:07.905Z</time></trkpt><trkpt lat="43.35266" lon="11.932955"><ele>366.0</ele><time>2026-04-06T08:01:10.907Z</time></trkpt><trkpt lat="43.35266" lon="11.9330633"><ele>366.0</ele><time>2026-04-06T08:01:13.908Z</time></trkpt><trkpt lat="43.35267" lon="11.933165"><ele>366.0</ele><time>2026-04-06T08:01:16.906Z</time></trkpt><trkpt lat="43.3526767" lon="11.9332667"><ele>366.0</ele><time>2026-04-06T08:01:19.908Z</time></trkpt><trkpt lat="43.3526883" lon="11.9333767"><ele>366.0</ele><time>2026-04-06T08:01:22.902Z</time></trkpt><trkpt lat="43.3526967" lon="11.933485"><ele>366.0</ele><time>2026-04-06T08:01:25.904Z</time></trkpt><trkpt lat="43.352725" lon="11.93361"><ele>366.0</ele><time>2026-04-06T08:01:28.907Z</time></trkpt><trkpt lat="43.352755" lon="11.9336867"><ele>366.7142857142857</ele><time>2026-04-06T08:01:30.898Z</time></trkpt><trkpt lat="43.3528117" lon="11.9337683"><ele>367.42857142857144</ele><time>2026-04-06T08:01:33.909Z</time></trkpt><trkpt lat="43.3528583" lon="11.9338267"><ele>368.1428571428571</ele><time>2026-04-06T08:01:36.903Z</time></trkpt><trkpt lat="43.3529183" lon="11.9338717"><ele>368.8571428571429</ele><time>2026-04-06T08:01:39.911Z</time></trkpt><trkpt lat="43.3529833" lon="11.9339083"><ele>369.57142857142856</ele><time>2026-04-06T08:01:41.908Z</time></trkpt><trkpt lat="43.3530633" lon="11.93394"><ele>370.2857142857143</ele><time>2026-04-06T08:01:44.911Z</time></trkpt><trkpt lat="43.353145" lon="11.9339533"><ele>371.0</ele><time>2026-04-06T08:01:47.906Z</time></trkpt><trkpt lat="43.3532233" lon="11.9339767"><ele>371.0</ele><time>2026-04-06T08:01:50.914Z</time></trkpt><trkpt lat="43.353305" lon="11.9339883"><ele>371.0</ele><time>2026-04-06T08:01:53.914Z</time></trkpt><trkpt lat="43.3533817" lon="11.934005"><ele>371.0</ele><time>2026-04-06T08:01:56.921Z</time></trkpt><trkpt lat="43.353455" lon="11.9340233"><ele>371.0</ele><time>2026-04-06T08:01:59.906Z</time></trkpt><trkpt lat="43.3535283" lon="11.93404"><ele>371.0</ele><time>2026-04-06T08:02:02.912Z</time></trkpt><trkpt lat="43.35361" lon="11.9340583"><ele>371.0</ele><time>2026-04-06T08:02:05.91Z</time></trkpt><trkpt lat="43.35369" lon="11.9340733"><ele>371.0</ele><time>2026-04-06T08:02:08.905Z</time></trkpt><trkpt lat="43.3537733" lon="11.9340833"><ele>371.0</ele><time>2026-04-06T08:02:11.905Z</time></trkpt><trkpt lat="43.35385" lon="11.9341017"><ele>371.0</ele><time>2026-04-06T08:02:14.905Z</time></trkpt><trkpt lat="43.3539233" lon="11.9341367"><ele>371.0</ele><time>2026-04-06T08:02:17.902Z</time></trkpt><trkpt lat="43.3540167" lon="11.9341517"><ele>371.0</ele><time>2026-04-06T08:02:20.912Z</time></trkpt><trkpt lat="43.3540983" lon="11.9341683"><ele>371.0</ele><time>2026-04-06T08:02:23.912Z</time></trkpt><trkpt lat="43.3541867" lon="11.93418"><ele>372.33333333333337</ele><time>2026-04-06T08:02:26.912Z</time></trkpt><trkpt lat="43.35426" lon="11.9341983"><ele>373.6666666666667</ele><time>2026-04-06T08:02:29.904Z</time></trkpt><trkpt lat="43.354345" lon="11.934215"><ele>375.0</ele><time>2026-04-06T08:02:32.908Z</time></trkpt><trkpt lat="43.3544283" lon="11.9342433"><ele>376.3333333333333</ele><time>2026-04-06T08:02:35.914Z</time></trkpt><trkpt lat="43.3545033" lon="11.934265"><ele>377.66666666666663</ele><time>2026-04-06T08:02:38.922Z</time></trkpt><trkpt lat="43.3545617" lon="11.9343283"><ele>379.0</ele><time>2026-04-06T08:02:42.905Z</time></trkpt><trkpt lat="43.3546033" lon="11.934395"><ele>379.0</ele><time>2026-04-06T08:02:44.905Z</time></trkpt><trkpt lat="43.3546133" lon="11.9345067"><ele>379.0</ele><time>2026-04-06T08:02:47.91Z</time></trkpt><trkpt lat="43.35458" lon="11.93461"><ele>379.0</ele><time>2026-04-06T08:02:50.914Z</time></trkpt><trkpt lat="43.35452" lon="11.934685"><ele>379.0</ele><time>2026-04-06T08:02:53.902Z</time></trkpt><trkpt lat="43.35446" lon="11.9347483"><ele>379.0</ele><time>2026-04-06T08:02:56.909Z</time></trkpt><trkpt lat="43.3544067" lon="11.9348083"><ele>379.0</ele><time>2026-04-06T08:02:59.906Z</time></trkpt><trkpt lat="43.354345" lon="11.9348767"><ele>379.0</ele><time>2026-04-06T08:03:02.902Z</time></trkpt><trkpt lat="43.354295" lon="11.9349417"><ele>379.0</ele><time>2026-04-06T08:03:04.908Z</time></trkpt><trkpt lat="43.35425" lon="11.935005"><ele>379.0</ele><time>2026-04-06T08:03:06.906Z</time></trkpt><trkpt lat="43.354205" lon="11.9351117"><ele>379.0</ele><time>2026-04-06T08:03:09.907Z</time></trkpt><trkpt lat="43.3541783" lon="11.9352317"><ele>379.0</ele><time>2026-04-06T08:03:12.913Z</time></trkpt><trkpt lat="43.35417" lon="11.9353217"><ele>379.0</ele><time>2026-04-06T08:03:14.919Z</time></trkpt><trkpt lat="43.3541767" lon="11.93544"><ele>379.66666666666663</ele><time>2026-04-06T08:03:17.908Z</time></trkpt><trkpt lat="43.3542033" lon="11.9355517"><ele>380.3333333333333</ele><time>2026-04-06T08:03:20.914Z</time></trkpt><trkpt lat="43.3542267" lon="11.9356567"><ele>381.0</ele><time>2026-04-06T08:03:23.915Z</time></trkpt><trkpt lat="43.354255" lon="11.9357717"><ele>381.6666666666667</ele><time>2026-04-06T08:03:26.911Z</time></trkpt><trkpt lat="43.35429" lon="11.935875"><ele>382.33333333333337</ele><time>2026-04-06T08:03:29.906Z</time></trkpt><trkpt lat="43.3543217" lon="11.9359817"><ele>383.0</ele><time>2026-04-06T08:03:32.908Z</time></trkpt><trkpt lat="43.354345" lon="11.9360767"><ele>383.33333333333337</ele><time>2026-04-06T08:03:35.904Z</time></trkpt><trkpt lat="43.3543617" lon="11.9361867"><ele>383.6666666666667</ele><time>2026-04-06T08:03:38.905Z</time></trkpt><trkpt lat="43.35436" lon="11.93629"><ele>384.0</ele><time>2026-04-06T08:03:41.912Z</time></trkpt><trkpt lat="43.3543567" lon="11.93639"><ele>384.33333333333337</ele><time>2026-04-06T08:03:44.912Z</time></trkpt><trkpt lat="43.35434" lon="11.9365017"><ele>384.6666666666667</ele><time>2026-04-06T08:03:47.897Z</time></trkpt><trkpt lat="43.35432" lon="11.9366133"><ele>385.0</ele><time>2026-04-06T08:03:50.904Z</time></trkpt><trkpt lat="43.3543217" lon="11.9367017"><ele>385.00000000000006</ele><time>2026-04-06T08:03:53.897Z</time></trkpt><trkpt lat="43.3543167" lon="11.9368067"><ele>385.0</ele><time>2026-04-06T08:03:56.909Z</time></trkpt><trkpt lat="43.3543033" lon="11.9369233"><ele>385.0</ele><time>2026-04-06T08:03:59.902Z</time></trkpt><trkpt lat="43.354295" lon="11.93703"><ele>385.0</ele><time>2026-04-06T08:04:02.902Z</time></trkpt><trkpt lat="43.3542817" lon="11.9371283"><ele>385.00000000000006</ele><time>2026-04-06T08:04:05.916Z</time></trkpt><trkpt lat="43.354305" lon="11.9372433"><ele>385.0</ele><time>2026-04-06T08:04:08.906Z</time></trkpt><trkpt lat="43.3543117" lon="11.93735"><ele>385.00000000000006</ele><time>2026-04-06T08:04:11.896Z</time></trkpt><trkpt lat="43.3543433" lon="11.9374667"><ele>385.0</ele><time>2026-04-06T08:04:14.909Z</time></trkpt><trkpt lat="43.3543833" lon="11.9375667"><ele>385.0</ele><time>2026-04-06T08:04:17.911Z</time></trkpt><trkpt lat="43.3544383" lon="11.9376417"><ele>385.0</ele><time>2026-04-06T08:04:20.905Z</time></trkpt><trkpt lat="43.3544983" lon="11.93771"><ele>385.00000000000006</ele><time>2026-04-06T08:04:23.909Z</time></trkpt><trkpt lat="43.3545633" lon="11.93776"><ele>385.0</ele><time>2026-04-06T08:04:26.906Z</time></trkpt><trkpt lat="43.354645" lon="11.9377817"><ele>385.6666666666667</ele><time>2026-04-06T08:04:29.902Z</time></trkpt><trkpt lat="43.354725" lon="11.937765"><ele>386.33333333333337</ele><time>2026-04-06T08:04:32.911Z</time></trkpt><trkpt lat="43.354805" lon="11.9377333"><ele>387.0</ele><time>2026-04-06T08:04:35.912Z</time></trkpt><trkpt lat="43.3548867" lon="11.9377117"><ele>387.66666666666663</ele><time>2026-04-06T08:04:38.904Z</time></trkpt><trkpt lat="43.354965" lon="11.93768"><ele>388.3333333333333</ele><time>2026-04-06T08:04:41.908Z</time></trkpt><trkpt lat="43.35505" lon="11.9376367"><ele>389.0</ele><time>2026-04-06T08:04:44.904Z</time></trkpt><trkpt lat="43.355125" lon="11.9376183"><ele>389.0</ele><time>2026-04-06T08:04:48.911Z</time></trkpt><trkpt lat="43.3551933" lon="11.9375917"><ele>389.0</ele><time>2026-04-06T08:04:51.917Z</time></trkpt><trkpt lat="43.35526" lon="11.937565"><ele>389.0</ele><time>2026-04-06T08:04:54.908Z</time></trkpt><trkpt lat="43.3553367" lon="11.9375467"><ele>389.0</ele><time>2026-04-06T08:04:57.917Z</time></trkpt><trkpt lat="43.355415" lon="11.9375367"><ele>389.0</ele><time>2026-04-06T08:05:00.908Z</time></trkpt><trkpt lat="43.355485" lon="11.9375367"><ele>389.0</ele><time>2026-04-06T08:05:03.908Z</time></trkpt><trkpt lat="43.355555" lon="11.93757"><ele>389.0</ele><time>2026-04-06T08:05:06.912Z</time></trkpt><trkpt lat="43.3556183" lon="11.9376183"><ele>392.8571428571429</ele><time>2026-04-06T08:05:09.91Z</time></trkpt><trkpt lat="43.3556733" lon="11.9376817"><ele>396.71428571428567</ele><time>2026-04-06T08:05:12.907Z</time></trkpt><trkpt lat="43.3557283" lon="11.9377583"><ele>400.57142857142856</ele><time>2026-04-06T08:05:15.91Z</time></trkpt><trkpt lat="43.355745" lon="11.937845"><ele>404.42857142857144</ele><time>2026-04-06T08:05:18.898Z</time></trkpt><trkpt lat="43.3557417" lon="11.9379383"><ele>408.28571428571433</ele><time>2026-04-06T08:05:21.913Z</time></trkpt><trkpt lat="43.3557417" lon="11.9380417"><ele>412.1428571428571</ele><time>2026-04-06T08:05:24.908Z</time></trkpt><trkpt lat="43.3557333" lon="11.9381383"><ele>416.0</ele><time>2026-04-06T08:05:27.903Z</time></trkpt><trkpt lat="43.3557117" lon="11.93825"><ele>416.0</ele><time>2026-04-06T08:05:30.913Z</time></trkpt><trkpt lat="43.3556817" lon="11.93835"><ele>416.0</ele><time>2026-04-06T08:05:33.905Z</time></trkpt><trkpt lat="43.35565" lon="11.938435"><ele>416.0</ele><time>2026-04-06T08:05:36.909Z</time></trkpt><trkpt lat="43.3555983" lon="11.9385167"><ele>416.0</ele><time>2026-04-06T08:05:39.899Z</time></trkpt><trkpt lat="43.355555" lon="11.9385983"><ele>416.0</ele><time>2026-04-06T08:05:42.898Z</time></trkpt><trkpt lat="43.35553" lon="11.93869"><ele>416.0</ele><time>2026-04-06T08:05:45.907Z</time></trkpt><trkpt lat="43.3555317" lon="11.9387817"><ele>416.0</ele><time>2026-04-06T08:05:49.904Z</time></trkpt><trkpt lat="43.3555267" lon="11.9388717"><ele>416.57142857142856</ele><time>2026-04-06T08:05:52.917Z</time></trkpt><trkpt lat="43.355535" lon="11.93898"><ele>417.14285714285717</ele><time>2026-04-06T08:05:55.917Z</time></trkpt><trkpt lat="43.3555483" lon="11.93909"><ele>417.7142857142857</ele><time>2026-04-06T08:05:58.906Z</time></trkpt><trkpt lat="43.3555683" lon="11.9391783"><ele>418.2857142857143</ele><time>2026-04-06T08:06:01.907Z</time></trkpt><trkpt lat="43.355595" lon="11.93926"><ele>418.8571428571429</ele><time>2026-04-06T08:06:04.911Z</time></trkpt><trkpt lat="43.3556267" lon="11.9393517"><ele>419.42857142857144</ele><time>2026-04-06T08:06:07.915Z</time></trkpt><trkpt lat="43.355675" lon="11.9394267"><ele>420.0</ele><time>2026-04-06T08:06:10.909Z</time></trkpt><trkpt lat="43.35572" lon="11.9394933"><ele>418.1666666666667</ele><time>2026-04-06T08:06:13.916Z</time></trkpt><trkpt lat="43.3557583" lon="11.93957"><ele>416.33333333333337</ele><time>2026-04-06T08:06:16.912Z</time></trkpt><trkpt lat="43.3557983" lon="11.9396483"><ele>414.5</ele><time>2026-04-06T08:06:19.906Z</time></trkpt><trkpt lat="43.3558483" lon="11.9397067"><ele>412.6666666666667</ele><time>2026-04-06T08:06:22.908Z</time></trkpt><trkpt lat="43.3559067" lon="11.939795"><ele>410.83333333333337</ele><time>2026-04-06T08:06:25.92Z</time></trkpt><trkpt lat="43.355955" lon="11.93989"><ele>409.0</ele><time>2026-04-06T08:06:28.899Z</time></trkpt><trkpt lat="43.356" lon="11.939975"><ele>407.7142857142857</ele><time>2026-04-06T08:06:31.906Z</time></trkpt><trkpt lat="43.3560417" lon="11.94006"><ele>406.42857142857144</ele><time>2026-04-06T08:06:34.907Z</time></trkpt><trkpt lat="43.3560817" lon="11.9401467"><ele>405.14285714285717</ele><time>2026-04-06T08:06:37.906Z</time></trkpt><trkpt lat="43.3561283" lon="11.9402167"><ele>403.8571428571429</ele><time>2026-04-06T08:06:40.915Z</time></trkpt><trkpt lat="43.35618" lon="11.9402867"><ele>402.57142857142856</ele><time>2026-04-06T08:06:43.901Z</time></trkpt><trkpt lat="43.3562283" lon="11.940355"><ele>401.28571428571433</ele><time>2026-04-06T08:06:46.908Z</time></trkpt><trkpt lat="43.356285" lon="11.9404033"><ele>400.0</ele><time>2026-04-06T08:06:49.91Z</time></trkpt><trkpt lat="43.3563567" lon="11.9404617"><ele>403.42857142857144</ele><time>2026-04-06T08:06:53.905Z</time></trkpt><trkpt lat="43.3564267" lon="11.9405117"><ele>406.8571428571429</ele><time>2026-04-06T08:06:57.909Z</time></trkpt><trkpt lat="43.356485" lon="11.94056"><ele>410.28571428571433</ele><time>2026-04-06T08:07:00.926Z</time></trkpt><trkpt lat="43.3565433" lon="11.9406083"><ele>413.7142857142857</ele><time>2026-04-06T08:07:03.912Z</time></trkpt><trkpt lat="43.3566017" lon="11.9406617"><ele>417.1428571428571</ele><time>2026-04-06T08:07:06.907Z</time></trkpt><trkpt lat="43.3566567" lon="11.9407117"><ele>420.5714285714286</ele><time>2026-04-06T08:07:09.906Z</time></trkpt><trkpt lat="43.3567283" lon="11.9407667"><ele>424.0</ele><time>2026-04-06T08:07:13.91Z</time></trkpt><trkpt lat="43.3567867" lon="11.94081"><ele>424.00000000000006</ele><time>2026-04-06T08:07:16.907Z</time></trkpt><trkpt lat="43.3568583" lon="11.940865"><ele>424.0</ele><time>2026-04-06T08:07:20.916Z</time></trkpt><trkpt lat="43.35693" lon="11.9409083"><ele>424.0</ele><time>2026-04-06T08:07:23.9Z</time></trkpt><trkpt lat="43.3569967" lon="11.9409733"><ele>424.0</ele><time>2026-04-06T08:07:26.91Z</time></trkpt><trkpt lat="43.3570233" lon="11.94108"><ele>424.00000000000006</ele><time>2026-04-06T08:07:29.907Z</time></trkpt><trkpt lat="43.3570233" lon="11.94119"><ele>424.0</ele><time>2026-04-06T08:07:32.907Z</time></trkpt><trkpt lat="43.356995" lon="11.9412833"><ele>424.33333333333337</ele><time>2026-04-06T08:07:35.915Z</time></trkpt><trkpt lat="43.3569383" lon="11.9413533"><ele>424.6666666666667</ele><time>2026-04-06T08:07:38.925Z</time></trkpt><trkpt lat="43.3568867" lon="11.9414133"><ele>425.0</ele><time>2026-04-06T08:07:41.901Z</time></trkpt><trkpt lat="43.3568133" lon="11.94147"><ele>425.33333333333337</ele><time>2026-04-06T08:07:45.902Z</time></trkpt><trkpt lat="43.3567533" lon="11.94154"><ele>425.6666666666667</ele><time>2026-04-06T08:07:48.908Z</time></trkpt><trkpt lat="43.3566883" lon="11.941615"><ele>426.0</ele><time>2026-04-06T08:07:51.911Z</time></trkpt><trkpt lat="43.356635" lon="11.9416783"><ele>427.0</ele><time>2026-04-06T08:07:53.919Z</time></trkpt><trkpt lat="43.3565633" lon="11.941755"><ele>428.0</ele><time>2026-04-06T08:07:56.911Z</time></trkpt><trkpt lat="43.3564983" lon="11.9418217"><ele>429.0</ele><time>2026-04-06T08:07:59.905Z</time></trkpt><trkpt lat="43.3564367" lon="11.9418867"><ele>430.0</ele><time>2026-04-06T08:08:02.911Z</time></trkpt><trkpt lat="43.3563833" lon="11.9419367"><ele>431.0</ele><time>2026-04-06T08:08:05.904Z</time></trkpt><trkpt lat="43.3563133" lon="11.941965"><ele>432.0</ele><time>2026-04-06T08:08:09.914Z</time></trkpt><trkpt lat="43.35624" lon="11.9420117"><ele>432.0</ele><time>2026-04-06T08:08:13.917Z</time></trkpt><trkpt lat="43.3561717" lon="11.94205"><ele>432.0</ele><time>2026-04-06T08:08:16.902Z</time></trkpt><trkpt lat="43.356095" lon="11.94209"><ele>432.0</ele><time>2026-04-06T08:08:19.915Z</time></trkpt><trkpt lat="43.356025" lon="11.9421317"><ele>432.0</ele><time>2026-04-06T08:08:22.918Z</time></trkpt><trkpt lat="43.3559367" lon="11.9421533"><ele>432.0</ele><time>2026-04-06T08:08:26.906Z</time></trkpt><trkpt lat="43.355855" lon="11.9421883"><ele>432.0</ele><time>2026-04-06T08:08:29.926Z</time></trkpt><trkpt lat="43.355775" lon="11.9422167"><ele>432.0</ele><time>2026-04-06T08:08:52.906Z</time></trkpt><trkpt lat="43.3556983" lon="11.9422667"><ele>432.0</ele><time>2026-04-06T08:08:55.917Z</time></trkpt><trkpt lat="43.355615" lon="11.942285"><ele>432.0</ele><time>2026-04-06T08:08:58.905Z</time></trkpt><trkpt lat="43.355535" lon="11.9423183"><ele>432.0</ele><time>2026-04-06T08:09:02.909Z</time></trkpt><trkpt lat="43.355465" lon="11.9423533"><ele>432.0</ele><time>2026-04-06T08:09:05.907Z</time></trkpt><trkpt lat="43.3553833" lon="11.94239"><ele>432.0</ele><time>2026-04-06T08:09:09.907Z</time></trkpt><trkpt lat="43.3553083" lon="11.942415"><ele>430.57142857142856</ele><time>2026-04-06T08:09:12.909Z</time></trkpt><trkpt lat="43.3552317" lon="11.9424483"><ele>429.1428571428571</ele><time>2026-04-06T08:09:15.902Z</time></trkpt><trkpt lat="43.3551617" lon="11.9424783"><ele>427.7142857142857</ele><time>2026-04-06T08:09:18.906Z</time></trkpt><trkpt lat="43.3550967" lon="11.9425117"><ele>426.2857142857143</ele><time>2026-04-06T08:09:21.903Z</time></trkpt><trkpt lat="43.35504" lon="11.9425517"><ele>424.8571428571429</ele><time>2026-04-06T08:09:24.912Z</time></trkpt><trkpt lat="43.3549917" lon="11.942625"><ele>423.42857142857144</ele><time>2026-04-06T08:09:27.905Z</time></trkpt><trkpt lat="43.3549767" lon="11.94273"><ele>422.0</ele><time>2026-04-06T08:09:30.913Z</time></trkpt><trkpt lat="43.3549967" lon="11.9428417"><ele>421.8333333333333</ele><time>2026-04-06T08:09:33.898Z</time></trkpt><trkpt lat="43.35505" lon="11.9429133"><ele>421.66666666666663</ele><time>2026-04-06T08:09:36.904Z</time></trkpt><trkpt lat="43.3551133" lon="11.9429833"><ele>421.5</ele><time>2026-04-06T08:09:39.904Z</time></trkpt><trkpt lat="43.3551817" lon="11.9430417"><ele>421.33333333333337</ele><time>2026-04-06T08:09:42.9Z</time></trkpt><trkpt lat="43.35525" lon="11.9431017"><ele>421.1666666666667</ele><time>2026-04-06T08:09:45.918Z</time></trkpt><trkpt lat="43.3553217" lon="11.94315"><ele>421.0</ele><time>2026-04-06T08:09:48.912Z</time></trkpt><trkpt lat="43.3553917" lon="11.943205"><ele>421.00000000000006</ele><time>2026-04-06T08:09:51.906Z</time></trkpt><trkpt lat="43.35546" lon="11.9432533"><ele>421.0</ele><time>2026-04-06T08:09:54.908Z</time></trkpt><trkpt lat="43.3555267" lon="11.9432967"><ele>421.0</ele><time>2026-04-06T08:09:57.909Z</time></trkpt><trkpt lat="43.355595" lon="11.94335"><ele>421.0</ele><time>2026-04-06T08:10:00.909Z</time></trkpt><trkpt lat="43.3556567" lon="11.94339"><ele>421.0</ele><time>2026-04-06T08:10:03.911Z</time></trkpt><trkpt lat="43.35572" lon="11.9434333"><ele>421.00000000000006</ele><time>2026-04-06T08:10:07.908Z</time></trkpt><trkpt lat="43.35579" lon="11.9434867"><ele>421.0</ele><time>2026-04-06T08:10:11.897Z</time></trkpt><trkpt lat="43.3558467" lon="11.94353"><ele>421.28571428571433</ele><time>2026-04-06T08:10:14.913Z</time></trkpt><trkpt lat="43.3559083" lon="11.9435833"><ele>421.57142857142856</ele><time>2026-04-06T08:10:17.901Z</time></trkpt><trkpt lat="43.3559733" lon="11.94364"><ele>421.8571428571429</ele><time>2026-04-06T08:10:21.906Z</time></trkpt><trkpt lat="43.3560467" lon="11.9436933"><ele>422.14285714285717</ele><time>2026-04-06T08:10:25.908Z</time></trkpt><trkpt lat="43.3561" lon="11.9437433"><ele>422.42857142857144</ele><time>2026-04-06T08:10:28.913Z</time></trkpt><trkpt lat="43.3561617" lon="11.9437883"><ele>422.7142857142857</ele><time>2026-04-06T08:10:31.915Z</time></trkpt><trkpt lat="43.35622" lon="11.9438383"><ele>423.0</ele><time>2026-04-06T08:10:35.911Z</time></trkpt><trkpt lat="43.3562917" lon="11.9439083"><ele>423.0</ele><time>2026-04-06T08:10:39.902Z</time></trkpt><trkpt lat="43.3563483" lon="11.94396"><ele>423.0</ele><time>2026-04-06T08:10:42.911Z</time></trkpt><trkpt lat="43.3563967" lon="11.94402"><ele>423.0</ele><time>2026-04-06T08:10:45.917Z</time></trkpt><trkpt lat="43.3564533" lon="11.9440817"><ele>423.0</ele><time>2026-04-06T08:10:48.911Z</time></trkpt><trkpt lat="43.3564983" lon="11.944145"><ele>423.0</ele><time>2026-04-06T08:10:51.907Z</time></trkpt><trkpt lat="43.3565617" lon="11.9442"><ele>423.0</ele><time>2026-04-06T08:10:54.913Z</time></trkpt><trkpt lat="43.35662" lon="11.9442667"><ele>423.0</ele><time>2026-04-06T08:10:57.906Z</time></trkpt><trkpt lat="43.356675" lon="11.9443367"><ele>424.1666666666667</ele><time>2026-04-06T08:11:00.907Z</time></trkpt><trkpt lat="43.3567317" lon="11.94441"><ele>425.33333333333337</ele><time>2026-04-06T08:11:03.901Z</time></trkpt><trkpt lat="43.3567833" lon="11.944475"><ele>426.5</ele><time>2026-04-06T08:11:06.907Z</time></trkpt><trkpt lat="43.3568333" lon="11.9445483"><ele>427.6666666666667</ele><time>2026-04-06T08:11:09.908Z</time></trkpt><trkpt lat="43.356885" lon="11.94462"><ele>428.83333333333337</ele><time>2026-04-06T08:11:12.906Z</time></trkpt><trkpt lat="43.3569267" lon="11.9447133"><ele>430.0</ele><time>2026-04-06T08:11:15.908Z</time></trkpt><trkpt lat="43.35697" lon="11.9448033"><ele>430.0</ele><time>2026-04-06T08:11:18.908Z</time></trkpt><trkpt lat="43.3570017" lon="11.9448983"><ele>430.0</ele><time>2026-04-06T08:11:21.911Z</time></trkpt><trkpt lat="43.3570367" lon="11.9449867"><ele>430.0</ele><time>2026-04-06T08:11:24.916Z</time></trkpt><trkpt lat="43.357065" lon="11.94508"><ele>430.0</ele><time>2026-04-06T08:11:27.906Z</time></trkpt><trkpt lat="43.3571033" lon="11.9451617"><ele>430.0</ele><time>2026-04-06T08:11:30.935Z</time></trkpt><trkpt lat="43.3571517" lon="11.9452517"><ele>430.0</ele><time>2026-04-06T08:11:33.903Z</time></trkpt><trkpt lat="43.3571967" lon="11.9453333"><ele>430.0</ele><time>2026-04-06T08:11:36.911Z</time></trkpt><trkpt lat="43.3572517" lon="11.945405"><ele>433.33333333333337</ele><time>2026-04-06T08:11:39.906Z</time></trkpt><trkpt lat="43.3573167" lon="11.9454767"><ele>436.6666666666667</ele><time>2026-04-06T08:11:43.911Z</time></trkpt><trkpt lat="43.3573933" lon="11.94552"><ele>440.0</ele><time>2026-04-06T08:11:46.909Z</time></trkpt><trkpt lat="43.3574667" lon="11.9455683"><ele>443.33333333333337</ele><time>2026-04-06T08:11:49.91Z</time></trkpt><trkpt lat="43.3575467" lon="11.9456033"><ele>446.6666666666667</ele><time>2026-04-06T08:11:53.905Z</time></trkpt><trkpt lat="43.3576167" lon="11.945625"><ele>450.0</ele><time>2026-04-06T08:11:56.911Z</time></trkpt><trkpt lat="43.3576717" lon="11.94567"><ele>450.00000000000006</ele><time>2026-04-06T08:11:59.908Z</time></trkpt><trkpt lat="43.357705" lon="11.9457733"><ele>450.0</ele><time>2026-04-06T08:12:03.914Z</time></trkpt><trkpt lat="43.35772" lon="11.9458733"><ele>450.00000000000006</ele><time>2026-04-06T08:12:07.918Z</time></trkpt><trkpt lat="43.3577367" lon="11.9459817"><ele>450.00000000000006</ele><time>2026-04-06T08:12:11.909Z</time></trkpt><trkpt lat="43.357765" lon="11.9460667"><ele>450.0</ele><time>2026-04-06T08:12:14.916Z</time></trkpt><trkpt lat="43.3577883" lon="11.9461533"><ele>450.00000000000006</ele><time>2026-04-06T08:12:17.906Z</time></trkpt><trkpt lat="43.35781" lon="11.9462367"><ele>450.00000000000006</ele><time>2026-04-06T08:12:20.901Z</time></trkpt><trkpt lat="43.3578467" lon="11.946325"><ele>450.57142857142867</ele><time>2026-04-06T08:12:24.899Z</time></trkpt><trkpt lat="43.3578967" lon="11.946385"><ele>451.14285714285717</ele><time>2026-04-06T08:12:27.893Z</time></trkpt><trkpt lat="43.3579483" lon="11.94644"><ele>451.7142857142858</ele><time>2026-04-06T08:12:30.918Z</time></trkpt><trkpt lat="43.358015" lon="11.9465133"><ele>452.28571428571433</ele><time>2026-04-06T08:12:34.9Z</time></trkpt><trkpt lat="43.3580683" lon="11.9465733"><ele>452.8571428571429</ele><time>2026-04-06T08:12:37.911Z</time></trkpt><trkpt lat="43.3581217" lon="11.9466367"><ele>453.42857142857144</ele><time>2026-04-06T08:12:40.911Z</time></trkpt><trkpt lat="43.35818" lon="11.94671"><ele>454.0</ele><time>2026-04-06T08:12:44.91Z</time></trkpt><trkpt lat="43.3582333" lon="11.9467683"><ele>454.0</ele><time>2026-04-06T08:12:47.921Z</time></trkpt><trkpt lat="43.3582767" lon="11.9468317"><ele>454.00000000000006</ele><time>2026-04-06T08:12:50.896Z</time></trkpt><trkpt lat="43.3583317" lon="11.94689"><ele>454.0</ele><time>2026-04-06T08:12:53.915Z</time></trkpt><trkpt lat="43.3583733" lon="11.9469617"><ele>454.0</ele><time>2026-04-06T08:12:56.907Z</time></trkpt><trkpt lat="43.35843" lon="11.9470383"><ele>454.00000000000006</ele><time>2026-04-06T08:13:00.916Z</time></trkpt><trkpt lat="43.3584783" lon="11.9471"><ele>454.0</ele><time>2026-04-06T08:13:03.908Z</time></trkpt><trkpt lat="43.358515" lon="11.9471833"><ele>454.0</ele><time>2026-04-06T08:13:07.914Z</time></trkpt><trkpt lat="43.3585483" lon="11.9472667"><ele>454.0</ele><time>2026-04-06T08:13:11.909Z</time></trkpt><trkpt lat="43.35858" lon="11.9473533"><ele>454.00000000000006</ele><time>2026-04-06T08:13:15.905Z</time></trkpt><trkpt lat="43.3586017" lon="11.94744"><ele>454.0</ele><time>2026-04-06T08:13:18.908Z</time></trkpt><trkpt lat="43.3586333" lon="11.9475233"><ele>454.0</ele><time>2026-04-06T08:13:21.907Z</time></trkpt><trkpt lat="43.3586783" lon="11.9476217"><ele>454.00000000000006</ele><time>2026-04-06T08:13:25.92Z</time></trkpt><trkpt lat="43.3587133" lon="11.947695"><ele>454.0</ele><time>2026-04-06T08:13:28.904Z</time></trkpt><trkpt lat="43.3587583" lon="11.9477933"><ele>454.0</ele><time>2026-04-06T08:13:32.908Z</time></trkpt><trkpt lat="43.358795" lon="11.9478717"><ele>454.50000000000006</ele><time>2026-04-06T08:13:34.911Z</time></trkpt><trkpt lat="43.3588267" lon="11.9479533"><ele>455.0</ele><time>2026-04-06T08:13:37.917Z</time></trkpt><trkpt lat="43.3588617" lon="11.94804"><ele>455.5</ele><time>2026-04-06T08:13:41.911Z</time></trkpt><trkpt lat="43.3589133" lon="11.94813"><ele>456.0</ele><time>2026-04-06T08:13:45.906Z</time></trkpt><trkpt lat="43.3589533" lon="11.94822"><ele>456.50000000000006</ele><time>2026-04-06T08:13:49.907Z</time></trkpt><trkpt lat="43.3589967" lon="11.9482967"><ele>457.0</ele><time>2026-04-06T08:13:53.916Z</time></trkpt><trkpt lat="43.3590567" lon="11.948375"><ele>461.1428571428572</ele><time>2026-04-06T08:13:57.91Z</time></trkpt><trkpt lat="43.3591133" lon="11.948435"><ele>465.28571428571433</ele><time>2026-04-06T08:14:00.903Z</time></trkpt><trkpt lat="43.359175" lon="11.9485167"><ele>469.42857142857144</ele><time>2026-04-06T08:14:04.917Z</time></trkpt><trkpt lat="43.3591983" lon="11.94861"><ele>473.5714285714286</ele><time>2026-04-06T08:14:07.907Z</time></trkpt><trkpt lat="43.35919" lon="11.9487"><ele>477.7142857142858</ele><time>2026-04-06T08:14:10.906Z</time></trkpt><trkpt lat="43.35917" lon="11.9487833"><ele>481.85714285714283</ele><time>2026-04-06T08:14:13.907Z</time></trkpt><trkpt lat="43.3591317" lon="11.9488733"><ele>486.0</ele><time>2026-04-06T08:14:17.904Z</time></trkpt><trkpt lat="43.3590783" lon="11.948945"><ele>486.0</ele><time>2026-04-06T08:14:20.915Z</time></trkpt><trkpt lat="43.3590217" lon="11.948995"><ele>486.0</ele><time>2026-04-06T08:14:23.908Z</time></trkpt><trkpt lat="43.3589467" lon="11.9490367"><ele>486.0</ele><time>2026-04-06T08:14:27.924Z</time></trkpt><trkpt lat="43.3588733" lon="11.9490683"><ele>486.0</ele><time>2026-04-06T08:14:31.905Z</time></trkpt><trkpt lat="43.358805" lon="11.9490983"><ele>486.0</ele><time>2026-04-06T08:14:35.919Z</time></trkpt><trkpt lat="43.3587317" lon="11.94912"><ele>486.0</ele><time>2026-04-06T08:14:39.912Z</time></trkpt><trkpt lat="43.3586683" lon="11.94912"><ele>486.0</ele><time>2026-04-06T08:14:42.91Z</time></trkpt><trkpt lat="43.3585867" lon="11.9491433"><ele>485.2857142857143</ele><time>2026-04-06T08:14:46.914Z</time></trkpt><trkpt lat="43.35852" lon="11.9491467"><ele>484.57142857142856</ele><time>2026-04-06T08:14:49.927Z</time></trkpt><trkpt lat="43.3584417" lon="11.9491483"><ele>483.85714285714283</ele><time>2026-04-06T08:14:52.892Z</time></trkpt><trkpt lat="43.3583717" lon="11.9491367"><ele>483.1428571428571</ele><time>2026-04-06T08:14:55.908Z</time></trkpt><trkpt lat="43.358305" lon="11.9491333"><ele>482.42857142857144</ele><time>2026-04-06T08:14:58.927Z</time></trkpt><trkpt lat="43.3582317" lon="11.949125"><ele>481.71428571428567</ele><time>2026-04-06T08:15:01.912Z</time></trkpt><trkpt lat="43.3581633" lon="11.94911"><ele>480.99999999999994</ele><time>2026-04-06T08:15:04.915Z</time></trkpt><trkpt lat="43.3581" lon="11.9490883"><ele>480.6666666666667</ele><time>2026-04-06T08:15:07.904Z</time></trkpt><trkpt lat="43.3580283" lon="11.9490533"><ele>480.33333333333337</ele><time>2026-04-06T08:15:11.911Z</time></trkpt><trkpt lat="43.3579617" lon="11.949035"><ele>480.0</ele><time>2026-04-06T08:15:14.909Z</time></trkpt><trkpt lat="43.3578817" lon="11.9490367"><ele>479.66666666666663</ele><time>2026-04-06T08:15:17.909Z</time></trkpt><trkpt lat="43.3578017" lon="11.9490183"><ele>479.3333333333333</ele><time>2026-04-06T08:15:20.908Z</time></trkpt><trkpt lat="43.357735" lon="11.9490317"><ele>479.0</ele><time>2026-04-06T08:15:23.91Z</time></trkpt><trkpt lat="43.3576683" lon="11.9491083"><ele>479.0</ele><time>2026-04-06T08:15:27.905Z</time></trkpt><trkpt lat="43.3576067" lon="11.9491767"><ele>479.0</ele><time>2026-04-06T08:15:30.908Z</time></trkpt><trkpt lat="43.3575533" lon="11.9492333"><ele>479.0</ele><time>2026-04-06T08:15:33.906Z</time></trkpt><trkpt lat="43.3574917" lon="11.949285"><ele>479.0</ele><time>2026-04-06T08:15:36.913Z</time></trkpt><trkpt lat="43.3574317" lon="11.9493183"><ele>479.0</ele><time>2026-04-06T08:15:39.9Z</time></trkpt><trkpt lat="43.35737" lon="11.9493383"><ele>479.0</ele><time>2026-04-06T08:15:42.896Z</time></trkpt><trkpt lat="43.357305" lon="11.9493567"><ele>479.0</ele><time>2026-04-06T08:15:45.911Z</time></trkpt><trkpt lat="43.35724" lon="11.9493533"><ele>482.71428571428567</ele><time>2026-04-06T08:15:48.91Z</time></trkpt><trkpt lat="43.357175" lon="11.949375"><ele>486.42857142857144</ele><time>2026-04-06T08:15:51.907Z</time></trkpt><trkpt lat="43.3571033" lon="11.9493783"><ele>490.1428571428571</ele><time>2026-04-06T08:15:54.909Z</time></trkpt><trkpt lat="43.3570317" lon="11.94939"><ele>493.85714285714283</ele><time>2026-04-06T08:15:57.905Z</time></trkpt><trkpt lat="43.3569617" lon="11.9494"><ele>497.57142857142856</ele><time>2026-04-06T08:16:01.906Z</time></trkpt><trkpt lat="43.356885" lon="11.949405"><ele>501.2857142857143</ele><time>2026-04-06T08:16:05.913Z</time></trkpt><trkpt lat="43.35682" lon="11.9494067"><ele>505.0</ele><time>2026-04-06T08:16:08.901Z</time></trkpt><trkpt lat="43.3567517" lon="11.9493933"><ele>505.0</ele><time>2026-04-06T08:16:11.918Z</time></trkpt><trkpt lat="43.35668" lon="11.94939"><ele>504.99999999999994</ele><time>2026-04-06T08:16:14.909Z</time></trkpt><trkpt lat="43.35661" lon="11.94938"><ele>505.0</ele><time>2026-04-06T08:16:17.903Z</time></trkpt><trkpt lat="43.3565433" lon="11.949375"><ele>505.0</ele><time>2026-04-06T08:16:20.901Z</time></trkpt><trkpt lat="43.356465" lon="11.9494017"><ele>504.99999999999994</ele><time>2026-04-06T08:16:23.909Z</time></trkpt><trkpt lat="43.35639" lon="11.9494317"><ele>505.0</ele><time>2026-04-06T08:16:26.913Z</time></trkpt><trkpt lat="43.356325" lon="11.949485"><ele>505.0</ele><time>2026-04-06T08:16:29.916Z</time></trkpt><trkpt lat="43.3562717" lon="11.9495317"><ele>502.83333333333337</ele><time>2026-04-06T08:16:32.913Z</time></trkpt><trkpt lat="43.3561983" lon="11.9495867"><ele>500.6666666666667</ele><time>2026-04-06T08:16:36.905Z</time></trkpt><trkpt lat="43.3561367" lon="11.9496517"><ele>498.5</ele><time>2026-04-06T08:16:39.903Z</time></trkpt><trkpt lat="43.3560833" lon="11.9497133"><ele>496.33333333333337</ele><time>2026-04-06T08:16:42.909Z</time></trkpt><trkpt lat="43.3560217" lon="11.9497467"><ele>494.1666666666667</ele><time>2026-04-06T08:16:45.905Z</time></trkpt><trkpt lat="43.3559533" lon="11.9497967"><ele>492.0</ele><time>2026-04-06T08:16:48.904Z</time></trkpt><trkpt lat="43.3558733" lon="11.9498483"><ele>492.00000000000006</ele><time>2026-04-06T08:16:51.904Z</time></trkpt><trkpt lat="43.355815" lon="11.949885"><ele>492.0</ele><time>2026-04-06T08:16:53.9Z</time></trkpt><trkpt lat="43.355755" lon="11.9499667"><ele>492.00000000000006</ele><time>2026-04-06T08:16:56.902Z</time></trkpt><trkpt lat="43.355695" lon="11.950035"><ele>492.00000000000006</ele><time>2026-04-06T08:16:59.908Z</time></trkpt><trkpt lat="43.3556633" lon="11.9501133"><ele>492.0</ele><time>2026-04-06T08:17:02.912Z</time></trkpt><trkpt lat="43.355655" lon="11.9502233"><ele>492.00000000000006</ele><time>2026-04-06T08:17:05.92Z</time></trkpt><trkpt lat="43.35566" lon="11.950325"><ele>492.00000000000006</ele><time>2026-04-06T08:17:08.903Z</time></trkpt><trkpt lat="43.3556883" lon="11.9504383"><ele>492.4285714285715</ele><time>2026-04-06T08:17:12.918Z</time></trkpt><trkpt lat="43.3557117" lon="11.9505367"><ele>492.8571428571429</ele><time>2026-04-06T08:17:15.916Z</time></trkpt><trkpt lat="43.3557133" lon="11.950635"><ele>493.2857142857143</ele><time>2026-04-06T08:17:18.911Z</time></trkpt><trkpt lat="43.3557117" lon="11.9507283"><ele>493.7142857142857</ele><time>2026-04-06T08:17:21.909Z</time></trkpt><trkpt lat="43.3557183" lon="11.9508433"><ele>494.1428571428571</ele><time>2026-04-06T08:17:25.912Z</time></trkpt><trkpt lat="43.35572" lon="11.9509467"><ele>494.5714285714285</ele><time>2026-04-06T08:17:28.916Z</time></trkpt><trkpt lat="43.3557217" lon="11.9510483"><ele>494.99999999999994</ele><time>2026-04-06T08:17:31.91Z</time></trkpt><trkpt lat="43.355735" lon="11.95115"><ele>494.99999999999994</ele><time>2026-04-06T08:17:34.906Z</time></trkpt><trkpt lat="43.355755" lon="11.9512483"><ele>495.0</ele><time>2026-04-06T08:17:37.909Z</time></trkpt><trkpt lat="43.3557883" lon="11.95134"><ele>494.99999999999994</ele><time>2026-04-06T08:17:40.903Z</time></trkpt><trkpt lat="43.35582" lon="11.9514167"><ele>494.99999999999994</ele><time>2026-04-06T08:17:43.907Z</time></trkpt><trkpt lat="43.3558617" lon="11.9515083"><ele>495.0</ele><time>2026-04-06T08:17:47.914Z</time></trkpt><trkpt lat="43.355895" lon="11.9515867"><ele>494.99999999999994</ele><time>2026-04-06T08:17:50.906Z</time></trkpt><trkpt lat="43.3559483" lon="11.95167"><ele>494.99999999999994</ele><time>2026-04-06T08:17:54.917Z</time></trkpt><trkpt lat="43.3560067" lon="11.9517083"><ele>493.0</ele><time>2026-04-06T08:17:58.903Z</time></trkpt><trkpt lat="43.35608" lon="11.9517517"><ele>491.0</ele><time>2026-04-06T08:18:02.921Z</time></trkpt><trkpt lat="43.3561533" lon="11.9517733"><ele>489.0</ele><time>2026-04-06T08:18:05.907Z</time></trkpt><trkpt lat="43.3562267" lon="11.9517783"><ele>487.0</ele><time>2026-04-06T08:18:08.91Z</time></trkpt><trkpt lat="43.356295" lon="11.9518"><ele>485.0</ele><time>2026-04-06T08:18:11.905Z</time></trkpt><trkpt lat="43.3563683" lon="11.9518033"><ele>483.0</ele><time>2026-04-06T08:18:14.906Z</time></trkpt><trkpt lat="43.35645" lon="11.9518167"><ele>483.0</ele><time>2026-04-06T08:18:18.91Z</time></trkpt><trkpt lat="43.3565333" lon="11.95183"><ele>483.0</ele><time>2026-04-06T08:18:22.907Z</time></trkpt><trkpt lat="43.3566017" lon="11.9518433"><ele>483.0</ele><time>2026-04-06T08:18:25.903Z</time></trkpt><trkpt lat="43.3566667" lon="11.9518533"><ele>483.0</ele><time>2026-04-06T08:18:29.9Z</time></trkpt><trkpt lat="43.3567417" lon="11.95189"><ele>483.0</ele><time>2026-04-06T08:18:32.907Z</time></trkpt><trkpt lat="43.3568133" lon="11.95193"><ele>483.0</ele><time>2026-04-06T08:18:35.911Z</time></trkpt><trkpt lat="43.3568767" lon="11.9519667"><ele>483.0</ele><time>2026-04-06T08:18:39.91Z</time></trkpt><trkpt lat="43.35694" lon="11.952025"><ele>483.0</ele><time>2026-04-06T08:18:42.902Z</time></trkpt><trkpt lat="43.3570083" lon="11.95209"><ele>483.0</ele><time>2026-04-06T08:18:45.919Z</time></trkpt><trkpt lat="43.3570617" lon="11.952165"><ele>483.0</ele><time>2026-04-06T08:18:48.903Z</time></trkpt><trkpt lat="43.3571183" lon="11.95223"><ele>483.0</ele><time>2026-04-06T08:18:51.897Z</time></trkpt><trkpt lat="43.3571783" lon="11.9523083"><ele>483.0</ele><time>2026-04-06T08:18:54.904Z</time></trkpt><trkpt lat="43.3572417" lon="11.952385"><ele>483.0</ele><time>2026-04-06T08:18:57.913Z</time></trkpt><trkpt lat="43.3573033" lon="11.9524383"><ele>486.1666666666667</ele><time>2026-04-06T08:19:00.909Z</time></trkpt><trkpt lat="43.3573733" lon="11.952495"><ele>489.33333333333337</ele><time>2026-04-06T08:19:03.908Z</time></trkpt><trkpt lat="43.3574467" lon="11.9525283"><ele>492.5</ele><time>2026-04-06T08:19:06.913Z</time></trkpt><trkpt lat="43.3575217" lon="11.952535"><ele>495.6666666666667</ele><time>2026-04-06T08:19:09.913Z</time></trkpt><trkpt lat="43.3575933" lon="11.9525017"><ele>498.83333333333337</ele><time>2026-04-06T08:19:12.906Z</time></trkpt><trkpt lat="43.3576533" lon="11.9524583"><ele>502.0</ele><time>2026-04-06T08:19:15.921Z</time></trkpt><trkpt lat="43.35771" lon="11.9523783"><ele>501.99999999999994</ele><time>2026-04-06T08:19:19.91Z</time></trkpt><trkpt lat="43.3577583" lon="11.9522767"><ele>502.0</ele><time>2026-04-06T08:19:23.909Z</time></trkpt><trkpt lat="43.35779" lon="11.9521967"><ele>501.99999999999994</ele><time>2026-04-06T08:19:26.912Z</time></trkpt><trkpt lat="43.3578117" lon="11.9521"><ele>501.99999999999994</ele><time>2026-04-06T08:19:30.913Z</time></trkpt><trkpt lat="43.3578367" lon="11.952015"><ele>502.0</ele><time>2026-04-06T08:19:33.899Z</time></trkpt><trkpt lat="43.3578617" lon="11.9519283"><ele>501.99999999999994</ele><time>2026-04-06T08:19:36.909Z</time></trkpt><trkpt lat="43.3578867" lon="11.9518417"><ele>501.99999999999994</ele><time>2026-04-06T08:19:39.91Z</time></trkpt><trkpt lat="43.3579167" lon="11.9517583"><ele>503.1428571428571</ele><time>2026-04-06T08:19:42.905Z</time></trkpt><trkpt lat="43.3579617" lon="11.951675"><ele>504.2857142857143</ele><time>2026-04-06T08:19:45.914Z</time></trkpt><trkpt lat="43.3580117" lon="11.9516017"><ele>505.42857142857144</ele><time>2026-04-06T08:19:48.919Z</time></trkpt><trkpt lat="43.3580567" lon="11.95154"><ele>506.57142857142856</ele><time>2026-04-06T08:19:51.911Z</time></trkpt><trkpt lat="43.3581167" lon="11.9514783"><ele>507.7142857142858</ele><time>2026-04-06T08:19:54.912Z</time></trkpt><trkpt lat="43.3581783" lon="11.951425"><ele>508.8571428571429</ele><time>2026-04-06T08:19:57.91Z</time></trkpt><trkpt lat="43.3582467" lon="11.9513933"><ele>510.0</ele><time>2026-04-06T08:20:00.924Z</time></trkpt><trkpt lat="43.3583117" lon="11.95139"><ele>510.0</ele><time>2026-04-06T08:20:03.9Z</time></trkpt><trkpt lat="43.3583967" lon="11.9514017"><ele>510.0</ele><time>2026-04-06T08:20:07.898Z</time></trkpt><trkpt lat="43.358465" lon="11.9513967"><ele>510.0</ele><time>2026-04-06T08:20:10.913Z</time></trkpt><trkpt lat="43.358535" lon="11.9514033"><ele>510.0</ele><time>2026-04-06T08:20:13.911Z</time></trkpt><trkpt lat="43.3586033" lon="11.9513967"><ele>510.0</ele><time>2026-04-06T08:20:16.914Z</time></trkpt><trkpt lat="43.3586783" lon="11.9513717"><ele>510.0</ele><time>2026-04-06T08:20:19.908Z</time></trkpt><trkpt lat="43.358765" lon="11.9513683"><ele>510.0</ele><time>2026-04-06T08:20:23.919Z</time></trkpt><trkpt lat="43.3588317" lon="11.9513583"><ele>510.00000000000006</ele><time>2026-04-06T08:20:26.901Z</time></trkpt><trkpt lat="43.3589117" lon="11.95134"><ele>510.0</ele><time>2026-04-06T08:20:30.901Z</time></trkpt><trkpt lat="43.358985" lon="11.951335"><ele>510.0</ele><time>2026-04-06T08:20:33.907Z</time></trkpt><trkpt lat="43.3590533" lon="11.9513283"><ele>510.00000000000006</ele><time>2026-04-06T08:20:36.905Z</time></trkpt><trkpt lat="43.3591233" lon="11.9513283"><ele>510.0</ele><time>2026-04-06T08:20:39.906Z</time></trkpt><trkpt lat="43.359195" lon="11.9513333"><ele>510.0</ele><time>2026-04-06T08:20:42.905Z</time></trkpt><trkpt lat="43.3592633" lon="11.951345"><ele>509.42857142857144</ele><time>2026-04-06T08:20:45.911Z</time></trkpt><trkpt lat="43.3593317" lon="11.95137"><ele>508.8571428571429</ele><time>2026-04-06T08:20:48.906Z</time></trkpt><trkpt lat="43.3594033" lon="11.9514133"><ele>508.28571428571433</ele><time>2026-04-06T08:20:52.905Z</time></trkpt><trkpt lat="43.3594717" lon="11.9514683"><ele>507.7142857142858</ele><time>2026-04-06T08:20:56.906Z</time></trkpt><trkpt lat="43.3595367" lon="11.9515033"><ele>507.14285714285717</ele><time>2026-04-06T08:20:59.91Z</time></trkpt><trkpt lat="43.3595967" lon="11.95155"><ele>506.57142857142867</ele><time>2026-04-06T08:21:02.905Z</time></trkpt><trkpt lat="43.3596567" lon="11.951585"><ele>506.00000000000006</ele><time>2026-04-06T08:21:05.906Z</time></trkpt><trkpt lat="43.3597183" lon="11.951605"><ele>507.4285714285715</ele><time>2026-04-06T08:21:08.913Z</time></trkpt><trkpt lat="43.359785" lon="11.9516133"><ele>508.8571428571429</ele><time>2026-04-06T08:21:11.894Z</time></trkpt><trkpt lat="43.35986" lon="11.9516267"><ele>510.2857142857143</ele><time>2026-04-06T08:21:14.911Z</time></trkpt><trkpt lat="43.3599283" lon="11.9516133"><ele>511.7142857142857</ele><time>2026-04-06T08:21:17.904Z</time></trkpt><trkpt lat="43.3599917" lon="11.9516117"><ele>513.1428571428571</ele><time>2026-04-06T08:21:20.905Z</time></trkpt><trkpt lat="43.3600633" lon="11.951595"><ele>514.5714285714286</ele><time>2026-04-06T08:21:24.904Z</time></trkpt><trkpt lat="43.3601283" lon="11.9515883"><ele>516.0</ele><time>2026-04-06T08:21:28.913Z</time></trkpt><trkpt lat="43.3601933" lon="11.9515683"><ele>516.0</ele><time>2026-04-06T08:21:32.9Z</time></trkpt><trkpt lat="43.3602583" lon="11.9515567"><ele>516.0</ele><time>2026-04-06T08:21:35.91Z</time></trkpt><trkpt lat="43.3603233" lon="11.9515417"><ele>516.0</ele><time>2026-04-06T08:21:38.906Z</time></trkpt><trkpt lat="43.3604017" lon="11.9515233"><ele>516.0</ele><time>2026-04-06T08:21:42.911Z</time></trkpt><trkpt lat="43.3604717" lon="11.9515283"><ele>516.0</ele><time>2026-04-06T08:21:45.908Z</time></trkpt><trkpt lat="43.3605583" lon="11.9515433"><ele>516.0</ele><time>2026-04-06T08:21:48.91Z</time></trkpt><trkpt lat="43.3606467" lon="11.9515683"><ele>517.5714285714286</ele><time>2026-04-06T08:21:51.909Z</time></trkpt><trkpt lat="43.3607117" lon="11.95161"><ele>519.1428571428571</ele><time>2026-04-06T08:21:54.894Z</time></trkpt><trkpt lat="43.36077" lon="11.9516517"><ele>520.7142857142858</ele><time>2026-04-06T08:21:57.911Z</time></trkpt><trkpt lat="43.360825" lon="11.9517067"><ele>522.2857142857142</ele><time>2026-04-06T08:22:00.899Z</time></trkpt><trkpt lat="43.3608867" lon="11.9517633"><ele>523.8571428571429</ele><time>2026-04-06T08:22:03.904Z</time></trkpt><trkpt lat="43.3609417" lon="11.9518183"><ele>525.4285714285714</ele><time>2026-04-06T08:22:06.904Z</time></trkpt><trkpt lat="43.361005" lon="11.9518633"><ele>527.0</ele><time>2026-04-06T08:22:09.92Z</time></trkpt><trkpt lat="43.36108" lon="11.9518933"><ele>522.8571428571429</ele><time>2026-04-06T08:22:12.912Z</time></trkpt><trkpt lat="43.3611517" lon="11.951915"><ele>518.7142857142858</ele><time>2026-04-06T08:22:15.91Z</time></trkpt><trkpt lat="43.3612267" lon="11.9519267"><ele>514.5714285714286</ele><time>2026-04-06T08:22:18.907Z</time></trkpt><trkpt lat="43.3612917" lon="11.9519233"><ele>510.42857142857144</ele><time>2026-04-06T08:22:21.905Z</time></trkpt><trkpt lat="43.3613583" lon="11.95191"><ele>506.2857142857142</ele><time>2026-04-06T08:22:24.909Z</time></trkpt><trkpt lat="43.3614367" lon="11.9518933"><ele>502.1428571428571</ele><time>2026-04-06T08:22:27.908Z</time></trkpt><trkpt lat="43.3615083" lon="11.9518683"><ele>498.0</ele><time>2026-04-06T08:22:30.912Z</time></trkpt><trkpt lat="43.3615733" lon="11.951845"><ele>498.0</ele><time>2026-04-06T08:22:33.907Z</time></trkpt><trkpt lat="43.3616367" lon="11.951815"><ele>497.99999999999994</ele><time>2026-04-06T08:22:36.917Z</time></trkpt><trkpt lat="43.3617067" lon="11.9517633"><ele>498.0</ele><time>2026-04-06T08:22:40.909Z</time></trkpt><trkpt lat="43.3617583" lon="11.9517083"><ele>498.0</ele><time>2026-04-06T08:22:43.903Z</time></trkpt><trkpt lat="43.36182" lon="11.9516467"><ele>497.99999999999994</ele><time>2026-04-06T08:22:47.908Z</time></trkpt><trkpt lat="43.3618683" lon="11.95159"><ele>498.0</ele><time>2026-04-06T08:22:50.899Z</time></trkpt><trkpt lat="43.3619117" lon="11.9515"><ele>498.0</ele><time>2026-04-06T08:22:54.913Z</time></trkpt><trkpt lat="43.36195" lon="11.9514217"><ele>499.85714285714283</ele><time>2026-04-06T08:22:58.912Z</time></trkpt><trkpt lat="43.3619867" lon="11.95135"><ele>501.71428571428567</ele><time>2026-04-06T08:23:02.909Z</time></trkpt><trkpt lat="43.3620383" lon="11.951295"><ele>503.57142857142856</ele><time>2026-04-06T08:23:05.906Z</time></trkpt><trkpt lat="43.3620967" lon="11.9512533"><ele>505.42857142857144</ele><time>2026-04-06T08:23:08.926Z</time></trkpt><trkpt lat="43.362155" lon="11.95122"><ele>507.2857142857143</ele><time>2026-04-06T08:23:11.91Z</time></trkpt><trkpt lat="43.36222" lon="11.951185"><ele>509.1428571428571</ele><time>2026-04-06T08:23:15.91Z</time></trkpt><trkpt lat="43.3622983" lon="11.951175"><ele>511.0</ele><time>2026-04-06T08:23:18.912Z</time></trkpt><trkpt lat="43.3623833" lon="11.95117"><ele>511.0</ele><time>2026-04-06T08:23:21.899Z</time></trkpt><trkpt lat="43.3624517" lon="11.95115"><ele>511.0</ele><time>2026-04-06T08:23:24.911Z</time></trkpt><trkpt lat="43.362515" lon="11.95112"><ele>511.0</ele><time>2026-04-06T08:23:27.916Z</time></trkpt><trkpt lat="43.36258" lon="11.9510533"><ele>511.0</ele><time>2026-04-06T08:23:31.908Z</time></trkpt><trkpt lat="43.3626333" lon="11.950985"><ele>511.0</ele><time>2026-04-06T08:23:35.907Z</time></trkpt><trkpt lat="43.362675" lon="11.95092"><ele>511.0</ele><time>2026-04-06T08:23:38.907Z</time></trkpt><trkpt lat="43.36273" lon="11.950835"><ele>511.0</ele><time>2026-04-06T08:23:42.904Z</time></trkpt><trkpt lat="43.3627767" lon="11.9507667"><ele>516.0</ele><time>2026-04-06T08:23:45.903Z</time></trkpt><trkpt lat="43.3628183" lon="11.9506833"><ele>521.0</ele><time>2026-04-06T08:23:48.908Z</time></trkpt><trkpt lat="43.3628533" lon="11.9506017"><ele>526.0</ele><time>2026-04-06T08:23:51.913Z</time></trkpt><trkpt lat="43.3629067" lon="11.9505217"><ele>531.0</ele><time>2026-04-06T08:23:54.907Z</time></trkpt><trkpt lat="43.3629683" lon="11.950465"><ele>536.0</ele><time>2026-04-06T08:23:57.905Z</time></trkpt><trkpt lat="43.3630433" lon="11.9504517"><ele>541.0</ele><time>2026-04-06T08:24:00.904Z</time></trkpt><trkpt lat="43.3631317" lon="11.9504833"><ele>541.0</ele><time>2026-04-06T08:24:03.904Z</time></trkpt><trkpt lat="43.3632083" lon="11.95052"><ele>541.0</ele><time>2026-04-06T08:24:06.908Z</time></trkpt><trkpt lat="43.36328" lon="11.950605"><ele>541.0</ele><time>2026-04-06T08:24:09.9Z</time></trkpt><trkpt lat="43.36334" lon="11.950685"><ele>541.0</ele><time>2026-04-06T08:24:12.903Z</time></trkpt><trkpt lat="43.3633967" lon="11.95076"><ele>541.0</ele><time>2026-04-06T08:24:15.903Z</time></trkpt><trkpt lat="43.363455" lon="11.95082"><ele>541.0</ele><time>2026-04-06T08:24:18.908Z</time></trkpt><trkpt lat="43.3635067" lon="11.9508717"><ele>541.0000000000001</ele><time>2026-04-06T08:24:21.899Z</time></trkpt><trkpt lat="43.363565" lon="11.9509117"><ele>541.0</ele><time>2026-04-06T08:24:24.906Z</time></trkpt><trkpt lat="43.36363" lon="11.950915"><ele>541.0</ele><time>2026-04-06T08:24:27.911Z</time></trkpt><trkpt lat="43.3637" lon="11.9508733"><ele>541.0</ele><time>2026-04-06T08:24:30.905Z</time></trkpt><trkpt lat="43.3637667" lon="11.950805"><ele>541.0</ele><time>2026-04-06T08:24:34.909Z</time></trkpt><trkpt lat="43.3638133" lon="11.95072"><ele>541.0000000000001</ele><time>2026-04-06T08:24:38.905Z</time></trkpt><trkpt lat="43.3638517" lon="11.9506483"><ele>541.0</ele><time>2026-04-06T08:24:42.906Z</time></trkpt><trkpt lat="43.3639067" lon="11.9505567"><ele>541.2857142857143</ele><time>2026-04-06T08:24:46.928Z</time></trkpt><trkpt lat="43.3639383" lon="11.9504733"><ele>541.5714285714286</ele><time>2026-04-06T08:24:49.91Z</time></trkpt><trkpt lat="43.3639833" lon="11.95041"><ele>541.8571428571429</ele><time>2026-04-06T08:24:52.906Z</time></trkpt><trkpt lat="43.364045" lon="11.950385"><ele>542.1428571428571</ele><time>2026-04-06T08:24:55.91Z</time></trkpt><trkpt lat="43.3641217" lon="11.9504"><ele>542.4285714285714</ele><time>2026-04-06T08:24:59.902Z</time></trkpt><trkpt lat="43.3641883" lon="11.9504367"><ele>542.7142857142858</ele><time>2026-04-06T08:25:03.91Z</time></trkpt><trkpt lat="43.36425" lon="11.9504733"><ele>543.0</ele><time>2026-04-06T08:25:06.91Z</time></trkpt><trkpt lat="43.364315" lon="11.9505333"><ele>543.0</ele><time>2026-04-06T08:25:09.905Z</time></trkpt><trkpt lat="43.3643817" lon="11.9505933"><ele>543.0</ele><time>2026-04-06T08:25:12.912Z</time></trkpt><trkpt lat="43.3644317" lon="11.95065"><ele>543.0</ele><time>2026-04-06T08:25:14.921Z</time></trkpt><trkpt lat="43.3645017" lon="11.9506917"><ele>543.0</ele><time>2026-04-06T08:25:17.908Z</time></trkpt><trkpt lat="43.3645683" lon="11.9507"><ele>543.0</ele><time>2026-04-06T08:25:20.909Z</time></trkpt><trkpt lat="43.3646383" lon="11.9506917"><ele>543.0</ele><time>2026-04-06T08:25:23.908Z</time></trkpt><trkpt lat="43.3647117" lon="11.9506783"><ele>543.0</ele><time>2026-04-06T08:25:26.912Z</time></trkpt><trkpt lat="43.364785" lon="11.9506883"><ele>544.7142857142858</ele><time>2026-04-06T08:25:30.908Z</time></trkpt><trkpt lat="43.3648633" lon="11.9507033"><ele>546.4285714285714</ele><time>2026-04-06T08:25:34.909Z</time></trkpt><trkpt lat="43.3649283" lon="11.9507083"><ele>548.1428571428571</ele><time>2026-04-06T08:25:37.909Z</time></trkpt><trkpt lat="43.36501" lon="11.9507083"><ele>549.8571428571429</ele><time>2026-04-06T08:25:41.918Z</time></trkpt><trkpt lat="43.3650883" lon="11.9507083"><ele>551.5714285714286</ele><time>2026-04-06T08:25:45.911Z</time></trkpt><trkpt lat="43.3651583" lon="11.9507167"><ele>553.2857142857143</ele><time>2026-04-06T08:25:49.909Z</time></trkpt><trkpt lat="43.36522" lon="11.9507417"><ele>555.0</ele><time>2026-04-06T08:25:53.904Z</time></trkpt><trkpt lat="43.3652967" lon="11.9507617"><ele>555.0000000000001</ele><time>2026-04-06T08:25:57.909Z</time></trkpt><trkpt lat="43.36537" lon="11.950795"><ele>555.0</ele><time>2026-04-06T08:26:01.906Z</time></trkpt><trkpt lat="43.3654333" lon="11.9508417"><ele>555.0</ele><time>2026-04-06T08:26:04.908Z</time></trkpt><trkpt lat="43.3654883" lon="11.9508867"><ele>555.0</ele><time>2026-04-06T08:26:07.916Z</time></trkpt><trkpt lat="43.3655433" lon="11.9509517"><ele>555.0</ele><time>2026-04-06T08:26:10.907Z</time></trkpt><trkpt lat="43.3655833" lon="11.95106"><ele>555.0000000000001</ele><time>2026-04-06T08:26:14.922Z</time></trkpt><trkpt lat="43.3656233" lon="11.951135"><ele>555.0</ele><time>2026-04-06T08:26:16.915Z</time></trkpt><trkpt lat="43.3656667" lon="11.9512217"><ele>555.8571428571429</ele><time>2026-04-06T08:26:19.92Z</time></trkpt><trkpt lat="43.3657217" lon="11.9512983"><ele>556.7142857142858</ele><time>2026-04-06T08:26:22.905Z</time></trkpt><trkpt lat="43.3657667" lon="11.9513783"><ele>557.5714285714286</ele><time>2026-04-06T08:26:25.915Z</time></trkpt><trkpt lat="43.3658017" lon="11.9514667"><ele>558.4285714285714</ele><time>2026-04-06T08:26:28.905Z</time></trkpt><trkpt lat="43.3658317" lon="11.95155"><ele>559.2857142857142</ele><time>2026-04-06T08:26:31.915Z</time></trkpt><trkpt lat="43.3658417" lon="11.9516367"><ele>560.1428571428571</ele><time>2026-04-06T08:26:34.906Z</time></trkpt><trkpt lat="43.36586" lon="11.951745"><ele>561.0</ele><time>2026-04-06T08:26:37.906Z</time></trkpt><trkpt lat="43.3658667" lon="11.951835"><ele>558.8333333333334</ele><time>2026-04-06T08:26:39.903Z</time></trkpt><trkpt lat="43.3658683" lon="11.951935"><ele>556.6666666666666</ele><time>2026-04-06T08:26:41.906Z</time></trkpt><trkpt lat="43.3658883" lon="11.9520233"><ele>554.5</ele><time>2026-04-06T08:26:43.899Z</time></trkpt><trkpt lat="43.3658983" lon="11.9521417"><ele>552.3333333333333</ele><time>2026-04-06T08:26:46.909Z</time></trkpt><trkpt lat="43.3659083" lon="11.9522533"><ele>550.1666666666666</ele><time>2026-04-06T08:26:49.916Z</time></trkpt><trkpt lat="43.3659417" lon="11.9523483"><ele>548.0</ele><time>2026-04-06T08:26:52.92Z</time></trkpt><trkpt lat="43.3659883" lon="11.9524383"><ele>548.0000000000001</ele><time>2026-04-06T08:26:56.909Z</time></trkpt><trkpt lat="43.3660367" lon="11.9525083"><ele>548.0</ele><time>2026-04-06T08:27:00.915Z</time></trkpt><trkpt lat="43.3661083" lon="11.9525367"><ele>548.0</ele><time>2026-04-06T08:27:04.905Z</time></trkpt><trkpt lat="43.3661917" lon="11.9525467"><ele>548.0</ele><time>2026-04-06T08:27:08.897Z</time></trkpt><trkpt lat="43.366255" lon="11.9525333"><ele>548.0</ele><time>2026-04-06T08:27:11.907Z</time></trkpt><trkpt lat="43.36632" lon="11.952505"><ele>548.0000000000001</ele><time>2026-04-06T08:27:14.908Z</time></trkpt><trkpt lat="43.366395" lon="11.9524733"><ele>548.0</ele><time>2026-04-06T08:27:18.906Z</time></trkpt><trkpt lat="43.3664533" lon="11.9524383"><ele>550.7142857142858</ele><time>2026-04-06T08:27:21.918Z</time></trkpt><trkpt lat="43.3665283" lon="11.9524"><ele>553.4285714285714</ele><time>2026-04-06T08:27:25.914Z</time></trkpt><trkpt lat="43.366595" lon="11.95239"><ele>556.1428571428571</ele><time>2026-04-06T08:27:29.904Z</time></trkpt><trkpt lat="43.3666633" lon="11.9523933"><ele>558.8571428571429</ele><time>2026-04-06T08:27:33.907Z</time></trkpt><trkpt lat="43.3667433" lon="11.95239"><ele>561.5714285714286</ele><time>2026-04-06T08:27:37.909Z</time></trkpt><trkpt lat="43.366825" lon="11.9523817"><ele>564.2857142857143</ele><time>2026-04-06T08:27:41.907Z</time></trkpt><trkpt lat="43.36689" lon="11.9523567"><ele>567.0</ele><time>2026-04-06T08:27:44.912Z</time></trkpt><trkpt lat="43.3669633" lon="11.952325"><ele>567.0</ele><time>2026-04-06T08:27:48.913Z</time></trkpt><trkpt lat="43.3670317" lon="11.95229"><ele>567.0</ele><time>2026-04-06T08:27:52.903Z</time></trkpt><trkpt lat="43.3671017" lon="11.9522433"><ele>567.0</ele><time>2026-04-06T08:27:57.912Z</time></trkpt><trkpt lat="43.3671733" lon="11.9521983"><ele>567.0</ele><time>2026-04-06T08:28:01.921Z</time></trkpt><trkpt lat="43.3672483" lon="11.9521483"><ele>567.0</ele><time>2026-04-06T08:28:05.908Z</time></trkpt><trkpt lat="43.3673117" lon="11.9521"><ele>567.0</ele><time>2026-04-06T08:28:09.911Z</time></trkpt><trkpt lat="43.3673717" lon="11.9520517"><ele>567.8333333333334</ele><time>2026-04-06T08:28:12.907Z</time></trkpt><trkpt lat="43.367435" lon="11.952005"><ele>568.6666666666666</ele><time>2026-04-06T08:28:15.914Z</time></trkpt><trkpt lat="43.3675233" lon="11.9519683"><ele>569.5</ele><time>2026-04-06T08:28:18.907Z</time></trkpt><trkpt lat="43.3675867" lon="11.95192"><ele>570.3333333333333</ele><time>2026-04-06T08:28:21.906Z</time></trkpt><trkpt lat="43.36765" lon="11.9518767"><ele>571.1666666666666</ele><time>2026-04-06T08:28:25.917Z</time></trkpt><trkpt lat="43.3675833" lon="11.9519017"><ele>572.0</ele><time>2026-04-06T08:28:34.912Z</time></trkpt><trkpt lat="43.36752" lon="11.9519633"><ele>572.0</ele><time>2026-04-06T08:28:36.909Z</time></trkpt><trkpt lat="43.3674467" lon="11.9520217"><ele>572.0</ele><time>2026-04-06T08:28:38.907Z</time></trkpt><trkpt lat="43.36738" lon="11.95207"><ele>572.0</ele><time>2026-04-06T08:28:40.905Z</time></trkpt><trkpt lat="43.3673033" lon="11.9521167"><ele>572.0</ele><time>2026-04-06T08:28:42.907Z</time></trkpt><trkpt lat="43.3672017" lon="11.95216"><ele>572.0</ele><time>2026-04-06T08:28:44.905Z</time></trkpt><trkpt lat="43.3671133" lon="11.952205"><ele>572.0</ele><time>2026-04-06T08:28:46.904Z</time></trkpt><trkpt lat="43.3670133" lon="11.9522667"><ele>571.1666666666666</ele><time>2026-04-06T08:28:48.913Z</time></trkpt><trkpt lat="43.3669483" lon="11.9523067"><ele>570.3333333333333</ele><time>2026-04-06T08:28:49.903Z</time></trkpt><trkpt lat="43.3668233" lon="11.9523367"><ele>569.5</ele><time>2026-04-06T08:28:51.902Z</time></trkpt><trkpt lat="43.366755" lon="11.9523433"><ele>568.6666666666666</ele><time>2026-04-06T08:28:52.916Z</time></trkpt><trkpt lat="43.3666883" lon="11.9523467"><ele>567.8333333333334</ele><time>2026-04-06T08:28:53.901Z</time></trkpt><trkpt lat="43.366625" lon="11.95235"><ele>567.0</ele><time>2026-04-06T08:28:54.907Z</time></trkpt><trkpt lat="43.3665617" lon="11.95236"><ele>567.0</ele><time>2026-04-06T08:28:55.906Z</time></trkpt><trkpt lat="43.366455" lon="11.9523917"><ele>567.0</ele><time>2026-04-06T08:28:57.905Z</time></trkpt><trkpt lat="43.3663467" lon="11.95243"><ele>567.0</ele><time>2026-04-06T08:28:59.913Z</time></trkpt><trkpt lat="43.3662817" lon="11.9524467"><ele>567.0</ele><time>2026-04-06T08:29:00.9Z</time></trkpt><trkpt lat="43.3662133" lon="11.95245"><ele>567.0</ele><time>2026-04-06T08:29:01.906Z</time></trkpt><trkpt lat="43.3661383" lon="11.952445"><ele>567.0</ele><time>2026-04-06T08:29:02.907Z</time></trkpt><trkpt lat="43.3660683" lon="11.9524267"><ele>563.2</ele><time>2026-04-06T08:29:03.904Z</time></trkpt><trkpt lat="43.365985" lon="11.9523167"><ele>559.4000000000001</ele><time>2026-04-06T08:29:05.906Z</time></trkpt><trkpt lat="43.3659583" lon="11.9521517"><ele>555.5999999999999</ele><time>2026-04-06T08:29:07.907Z</time></trkpt><trkpt lat="43.3659567" lon="11.952065"><ele>551.8</ele><time>2026-04-06T08:29:08.908Z</time></trkpt><trkpt lat="43.3659617" lon="11.9519067"><ele>548.0</ele><time>2026-04-06T08:29:10.905Z</time></trkpt><trkpt lat="43.365945" lon="11.95175"><ele>550.6</ele><time>2026-04-06T08:29:12.904Z</time></trkpt><trkpt lat="43.365925" lon="11.95159"><ele>553.1999999999999</ele><time>2026-04-06T08:29:14.905Z</time></trkpt><trkpt lat="43.365875" lon="11.951435"><ele>555.8</ele><time>2026-04-06T08:29:16.908Z</time></trkpt><trkpt lat="43.3658133" lon="11.9513067"><ele>558.4</ele><time>2026-04-06T08:29:18.911Z</time></trkpt><trkpt lat="43.3657717" lon="11.9512367"><ele>561.0</ele><time>2026-04-06T08:29:19.907Z</time></trkpt><trkpt lat="43.36572" lon="11.9511167"><ele>561.0</ele><time>2026-04-06T08:29:21.915Z</time></trkpt><trkpt lat="43.3656517" lon="11.9509983"><ele>561.0</ele><time>2026-04-06T08:29:23.916Z</time></trkpt><trkpt lat="43.36558" lon="11.9508917"><ele>561.0</ele><time>2026-04-06T08:29:25.903Z</time></trkpt><trkpt lat="43.36548" lon="11.9508033"><ele>561.0</ele><time>2026-04-06T08:29:27.905Z</time></trkpt><trkpt lat="43.365365" lon="11.950735"><ele>559.8</ele><time>2026-04-06T08:29:29.898Z</time></trkpt><trkpt lat="43.3653033" lon="11.9507017"><ele>558.6</ele><time>2026-04-06T08:29:30.914Z</time></trkpt><trkpt lat="43.3651817" lon="11.9506617"><ele>557.4</ele><time>2026-04-06T08:29:32.904Z</time></trkpt><trkpt lat="43.3650533" lon="11.9506667"><ele>556.2</ele><time>2026-04-06T08:29:34.906Z</time></trkpt><trkpt lat="43.364985" lon="11.9506683"><ele>555.0</ele><time>2026-04-06T08:29:35.911Z</time></trkpt><trkpt lat="43.3649167" lon="11.9506617"><ele>555.0</ele><time>2026-04-06T08:29:36.904Z</time></trkpt><trkpt lat="43.36485" lon="11.950655"><ele>555.0</ele><time>2026-04-06T08:29:37.919Z</time></trkpt><trkpt lat="43.364725" lon="11.9506533"><ele>555.0</ele><time>2026-04-06T08:29:39.912Z</time></trkpt><trkpt lat="43.3646617" lon="11.9506567"><ele>555.0</ele><time>2026-04-06T08:29:40.914Z</time></trkpt><trkpt lat="43.3645967" lon="11.9506567"><ele>555.0</ele><time>2026-04-06T08:29:41.91Z</time></trkpt><trkpt lat="43.3645317" lon="11.9506517"><ele>555.0</ele><time>2026-04-06T08:29:42.916Z</time></trkpt><trkpt lat="43.3644683" lon="11.9506167"><ele>552.6</ele><time>2026-04-06T08:29:43.913Z</time></trkpt><trkpt lat="43.3644183" lon="11.9505617"><ele>550.2</ele><time>2026-04-06T08:29:44.913Z</time></trkpt><trkpt lat="43.364365" lon="11.9505117"><ele>547.8</ele><time>2026-04-06T08:29:45.898Z</time></trkpt><trkpt lat="43.364265" lon="11.95043"><ele>545.4</ele><time>2026-04-06T08:29:47.903Z</time></trkpt><trkpt lat="43.3641667" lon="11.9503667"><ele>543.0</ele><time>2026-04-06T08:29:49.906Z</time></trkpt><trkpt lat="43.3640617" lon="11.9503483"><ele>543.0</ele><time>2026-04-06T08:29:51.91Z</time></trkpt><trkpt lat="43.3639783" lon="11.9503833"><ele>543.0</ele><time>2026-04-06T08:29:53.917Z</time></trkpt><trkpt lat="43.3639217" lon="11.9504717"><ele>543.0</ele><time>2026-04-06T08:29:55.906Z</time></trkpt><trkpt lat="43.3638533" lon="11.95061"><ele>543.0</ele><time>2026-04-06T08:29:57.911Z</time></trkpt><trkpt lat="43.363765" lon="11.950735"><ele>543.0</ele><time>2026-04-06T08:29:59.904Z</time></trkpt><trkpt lat="43.3636633" lon="11.9508233"><ele>542.6666666666666</ele><time>2026-04-06T08:30:01.905Z</time></trkpt><trkpt lat="43.3635983" lon="11.95083"><ele>542.3333333333334</ele><time>2026-04-06T08:30:02.907Z</time></trkpt><trkpt lat="43.36351" lon="11.950775"><ele>542.0</ele><time>2026-04-06T08:30:04.919Z</time></trkpt><trkpt lat="43.3634417" lon="11.9507067"><ele>541.6666666666667</ele><time>2026-04-06T08:30:31.905Z</time></trkpt><trkpt lat="43.3633767" lon="11.95066"><ele>541.3333333333334</ele><time>2026-04-06T08:30:35.915Z</time></trkpt><trkpt lat="43.363305" lon="11.95059"><ele>541.0</ele><time>2026-04-06T08:30:38.916Z</time></trkpt><trkpt lat="43.36324" lon="11.95053"><ele>541.0</ele><time>2026-04-06T08:30:40.905Z</time></trkpt><trkpt lat="43.3631617" lon="11.9504683"><ele>541.0</ele><time>2026-04-06T08:30:42.909Z</time></trkpt><trkpt lat="43.3630667" lon="11.9504233"><ele>541.0</ele><time>2026-04-06T08:30:44.917Z</time></trkpt><trkpt lat="43.36297" lon="11.950435"><ele>541.0</ele><time>2026-04-06T08:30:46.906Z</time></trkpt><trkpt lat="43.3628967" lon="11.95048"><ele>541.0</ele><time>2026-04-06T08:30:48.914Z</time></trkpt><trkpt lat="43.362845" lon="11.9505483"><ele>541.0</ele><time>2026-04-06T08:30:50.904Z</time></trkpt><trkpt lat="43.3628017" lon="11.950635"><ele>542.4</ele><time>2026-04-06T08:30:52.915Z</time></trkpt><trkpt lat="43.3627517" lon="11.950745"><ele>543.8</ele><time>2026-04-06T08:30:54.906Z</time></trkpt><trkpt lat="43.362685" lon="11.9508583"><ele>545.1999999999999</ele><time>2026-04-06T08:30:56.907Z</time></trkpt><trkpt lat="43.3626133" lon="11.9509717"><ele>546.6</ele><time>2026-04-06T08:30:58.913Z</time></trkpt><trkpt lat="43.3625317" lon="11.951075"><ele>548.0</ele><time>2026-04-06T08:31:00.913Z</time></trkpt><trkpt lat="43.3624733" lon="11.951115"><ele>544.4</ele><time>2026-04-06T08:31:01.909Z</time></trkpt><trkpt lat="43.362355" lon="11.9511583"><ele>540.8</ele><time>2026-04-06T08:31:03.91Z</time></trkpt><trkpt lat="43.3622433" lon="11.95116"><ele>537.2</ele><time>2026-04-06T08:31:05.906Z</time></trkpt><trkpt lat="43.362155" lon="11.9511833"><ele>533.6</ele><time>2026-04-06T08:31:07.91Z</time></trkpt><trkpt lat="43.3620767" lon="11.9512067"><ele>530.0</ele><time>2026-04-06T08:31:09.907Z</time></trkpt><trkpt lat="43.3620167" lon="11.9512983"><ele>530.0</ele><time>2026-04-06T08:31:11.908Z</time></trkpt><trkpt lat="43.3619533" lon="11.9514233"><ele>530.0</ele><time>2026-04-06T08:31:13.906Z</time></trkpt><trkpt lat="43.3618783" lon="11.9515517"><ele>530.0</ele><time>2026-04-06T08:31:15.91Z</time></trkpt><trkpt lat="43.3617833" lon="11.9516533"><ele>530.0</ele><time>2026-04-06T08:31:17.915Z</time></trkpt><trkpt lat="43.36168" lon="11.9517283"><ele>523.6</ele><time>2026-04-06T08:31:19.924Z</time></trkpt><trkpt lat="43.3616217" lon="11.951765"><ele>517.2</ele><time>2026-04-06T08:31:20.917Z</time></trkpt><trkpt lat="43.361505" lon="11.951815"><ele>510.79999999999995</ele><time>2026-04-06T08:31:22.911Z</time></trkpt><trkpt lat="43.3613867" lon="11.9518367"><ele>504.4</ele><time>2026-04-06T08:31:24.911Z</time></trkpt><trkpt lat="43.3613217" lon="11.951845"><ele>498.0</ele><time>2026-04-06T08:31:25.916Z</time></trkpt><trkpt lat="43.3612083" lon="11.951855"><ele>497.59999999999997</ele><time>2026-04-06T08:31:27.919Z</time></trkpt><trkpt lat="43.361095" lon="11.9518117"><ele>497.19999999999993</ele><time>2026-04-06T08:31:29.911Z</time></trkpt><trkpt lat="43.360985" lon="11.951755"><ele>496.8</ele><time>2026-04-06T08:31:31.903Z</time></trkpt><trkpt lat="43.3609033" lon="11.951675"><ele>496.4</ele><time>2026-04-06T08:31:33.911Z</time></trkpt><trkpt lat="43.3608133" lon="11.951605"><ele>496.0</ele><time>2026-04-06T08:31:35.91Z</time></trkpt><trkpt lat="43.36071" lon="11.9515467"><ele>501.0</ele><time>2026-04-06T08:31:37.903Z</time></trkpt><trkpt lat="43.3606133" lon="11.9515033"><ele>506.0</ele><time>2026-04-06T08:31:39.909Z</time></trkpt><trkpt lat="43.3605017" lon="11.951485"><ele>511.0</ele><time>2026-04-06T08:31:41.913Z</time></trkpt><trkpt lat="43.3603867" lon="11.9514983"><ele>516.0</ele><time>2026-04-06T08:31:43.93Z</time></trkpt><trkpt lat="43.3602683" lon="11.9515333"><ele>516.0</ele><time>2026-04-06T08:31:45.907Z</time></trkpt><trkpt lat="43.360205" lon="11.9515467"><ele>516.0</ele><time>2026-04-06T08:31:46.913Z</time></trkpt><trkpt lat="43.3600917" lon="11.9515683"><ele>516.0</ele><time>2026-04-06T08:31:48.917Z</time></trkpt><trkpt lat="43.3599767" lon="11.9515833"><ele>516.0</ele><time>2026-04-06T08:31:50.912Z</time></trkpt><trkpt lat="43.3599117" lon="11.9515817"><ele>516.0</ele><time>2026-04-06T08:31:51.905Z</time></trkpt><trkpt lat="43.35979" lon="11.9515633"><ele>515.9999999999999</ele><time>2026-04-06T08:31:53.912Z</time></trkpt><trkpt lat="43.3597217" lon="11.9515433"><ele>516.0</ele><time>2026-04-06T08:31:54.911Z</time></trkpt><trkpt lat="43.3596567" lon="11.951515"><ele>516.0</ele><time>2026-04-06T08:31:55.91Z</time></trkpt><trkpt lat="43.3595917" lon="11.9514817"><ele>516.0</ele><time>2026-04-06T08:31:56.909Z</time></trkpt><trkpt lat="43.3595367" lon="11.9514367"><ele>516.0</ele><time>2026-04-06T08:31:57.907Z</time></trkpt><trkpt lat="43.35948" lon="11.9513967"><ele>515.9999999999999</ele><time>2026-04-06T08:31:58.914Z</time></trkpt><trkpt lat="43.3594217" lon="11.9513617"><ele>516.0</ele><time>2026-04-06T08:31:59.915Z</time></trkpt><trkpt lat="43.35936" lon="11.9513317"><ele>514.0</ele><time>2026-04-06T08:32:00.909Z</time></trkpt><trkpt lat="43.3593" lon="11.951305"><ele>512.0</ele><time>2026-04-06T08:32:01.912Z</time></trkpt><trkpt lat="43.35917" lon="11.95129"><ele>510.0</ele><time>2026-04-06T08:32:03.912Z</time></trkpt><trkpt lat="43.3590483" lon="11.951295"><ele>508.0</ele><time>2026-04-06T08:32:05.906Z</time></trkpt><trkpt lat="43.35898" lon="11.9512983"><ele>506.0</ele><time>2026-04-06T08:32:06.907Z</time></trkpt><trkpt lat="43.3589133" lon="11.9513083"><ele>506.66666666666663</ele><time>2026-04-06T08:32:07.912Z</time></trkpt><trkpt lat="43.35885" lon="11.9513133"><ele>507.3333333333333</ele><time>2026-04-06T08:32:08.91Z</time></trkpt><trkpt lat="43.3587833" lon="11.9513333"><ele>508.0</ele><time>2026-04-06T08:32:09.907Z</time></trkpt><trkpt lat="43.3587183" lon="11.9513483"><ele>508.66666666666663</ele><time>2026-04-06T08:32:10.912Z</time></trkpt><trkpt lat="43.3586533" lon="11.9513517"><ele>509.3333333333333</ele><time>2026-04-06T08:32:11.92Z</time></trkpt><trkpt lat="43.3585317" lon="11.9513517"><ele>510.0</ele><time>2026-04-06T08:32:13.905Z</time></trkpt><trkpt lat="43.358425" lon="11.9513517"><ele>510.0</ele><time>2026-04-06T08:32:15.914Z</time></trkpt><trkpt lat="43.3583233" lon="11.9513517"><ele>510.0</ele><time>2026-04-06T08:32:17.929Z</time></trkpt><trkpt lat="43.358225" lon="11.95137"><ele>510.0</ele><time>2026-04-06T08:32:19.919Z</time></trkpt><trkpt lat="43.3581283" lon="11.9514183"><ele>510.0</ele><time>2026-04-06T08:32:21.91Z</time></trkpt><trkpt lat="43.3580483" lon="11.95149"><ele>510.0</ele><time>2026-04-06T08:32:23.915Z</time></trkpt><trkpt lat="43.35798" lon="11.9515783"><ele>508.4</ele><time>2026-04-06T08:32:25.915Z</time></trkpt><trkpt lat="43.357925" lon="11.9516817"><ele>506.8</ele><time>2026-04-06T08:32:27.917Z</time></trkpt><trkpt lat="43.3578767" lon="11.9517933"><ele>505.20000000000005</ele><time>2026-04-06T08:32:29.912Z</time></trkpt><trkpt lat="43.357835" lon="11.9519267"><ele>503.6</ele><time>2026-04-06T08:32:31.918Z</time></trkpt><trkpt lat="43.3577883" lon="11.95207"><ele>502.0</ele><time>2026-04-06T08:32:33.909Z</time></trkpt><trkpt lat="43.3577683" lon="11.952155"><ele>502.0</ele><time>2026-04-06T08:32:34.911Z</time></trkpt><trkpt lat="43.35771" lon="11.9522917"><ele>502.00000000000006</ele><time>2026-04-06T08:32:36.921Z</time></trkpt><trkpt lat="43.3576433" lon="11.95241"><ele>502.00000000000006</ele><time>2026-04-06T08:32:38.907Z</time></trkpt><trkpt lat="43.3575517" lon="11.9524733"><ele>502.0</ele><time>2026-04-06T08:32:40.913Z</time></trkpt><trkpt lat="43.3574367" lon="11.9524683"><ele>502.0</ele><time>2026-04-06T08:32:42.925Z</time></trkpt><trkpt lat="43.35733" lon="11.9524067"><ele>502.00000000000006</ele><time>2026-04-06T08:32:44.929Z</time></trkpt><trkpt lat="43.3572467" lon="11.95232"><ele>502.0</ele><time>2026-04-06T08:32:46.903Z</time></trkpt><trkpt lat="43.3571783" lon="11.9522383"><ele>502.0</ele><time>2026-04-06T08:32:48.907Z</time></trkpt><trkpt lat="43.3571267" lon="11.9521583"><ele>502.0</ele><time>2026-04-06T08:32:50.917Z</time></trkpt><trkpt lat="43.35707" lon="11.9520817"><ele>502.00000000000006</ele><time>2026-04-06T08:32:52.908Z</time></trkpt><trkpt lat="43.3570067" lon="11.9520133"><ele>502.0</ele><time>2026-04-06T08:32:54.912Z</time></trkpt><trkpt lat="43.3569517" lon="11.951955"><ele>498.83333333333337</ele><time>2026-04-06T08:32:57.914Z</time></trkpt><trkpt lat="43.35688" lon="11.951945"><ele>495.6666666666667</ele><time>2026-04-06T08:35:48.91Z</time></trkpt><trkpt lat="43.35682" lon="11.9518967"><ele>492.5</ele><time>2026-04-06T08:35:50.92Z</time></trkpt><trkpt lat="43.356745" lon="11.9518533"><ele>489.33333333333337</ele><time>2026-04-06T08:35:52.907Z</time></trkpt><trkpt lat="43.3566433" lon="11.9518267"><ele>486.1666666666667</ele><time>2026-04-06T08:35:54.905Z</time></trkpt><trkpt lat="43.35654" lon="11.9518033"><ele>483.0</ele><time>2026-04-06T08:35:56.902Z</time></trkpt><trkpt lat="43.3564317" lon="11.9517783"><ele>482.2</ele><time>2026-04-06T08:35:58.904Z</time></trkpt><trkpt lat="43.35632" lon="11.9517633"><ele>481.4</ele><time>2026-04-06T08:36:00.902Z</time></trkpt><trkpt lat="43.356195" lon="11.9517433"><ele>480.59999999999997</ele><time>2026-04-06T08:36:02.907Z</time></trkpt><trkpt lat="43.3561317" lon="11.95173"><ele>479.79999999999995</ele><time>2026-04-06T08:36:03.899Z</time></trkpt><trkpt lat="43.35607" lon="11.9517067"><ele>479.0</ele><time>2026-04-06T08:36:04.904Z</time></trkpt><trkpt lat="43.3559633" lon="11.95162"><ele>482.2</ele><time>2026-04-06T08:36:06.908Z</time></trkpt><trkpt lat="43.3558883" lon="11.95151"><ele>485.4</ele><time>2026-04-06T08:36:08.908Z</time></trkpt><trkpt lat="43.35584" lon="11.95139"><ele>488.6</ele><time>2026-04-06T08:36:10.907Z</time></trkpt><trkpt lat="43.3557917" lon="11.9512683"><ele>491.8</ele><time>2026-04-06T08:36:12.913Z</time></trkpt><trkpt lat="43.3557517" lon="11.9511333"><ele>495.0</ele><time>2026-04-06T08:36:14.925Z</time></trkpt><trkpt lat="43.3557317" lon="11.950975"><ele>495.4</ele><time>2026-04-06T08:36:16.911Z</time></trkpt><trkpt lat="43.3557383" lon="11.950815"><ele>495.8</ele><time>2026-04-06T08:36:18.902Z</time></trkpt><trkpt lat="43.3557467" lon="11.9506583"><ele>496.20000000000005</ele><time>2026-04-06T08:36:20.912Z</time></trkpt><trkpt lat="43.3557367" lon="11.9505083"><ele>496.6</ele><time>2026-04-06T08:36:22.905Z</time></trkpt><trkpt lat="43.35572" lon="11.950365"><ele>497.0</ele><time>2026-04-06T08:36:24.91Z</time></trkpt><trkpt lat="43.3557067" lon="11.9502133"><ele>497.0</ele><time>2026-04-06T08:36:26.901Z</time></trkpt><trkpt lat="43.3557383" lon="11.9500733"><ele>497.00000000000006</ele><time>2026-04-06T08:36:28.906Z</time></trkpt><trkpt lat="43.3558167" lon="11.949955"><ele>497.00000000000006</ele><time>2026-04-06T08:36:30.908Z</time></trkpt><trkpt lat="43.3559283" lon="11.949875"><ele>497.0</ele><time>2026-04-06T08:36:32.904Z</time></trkpt><trkpt lat="43.3559867" lon="11.9498267"><ele>497.0</ele><time>2026-04-06T08:36:33.899Z</time></trkpt><trkpt lat="43.3560417" lon="11.9497817"><ele>496.0</ele><time>2026-04-06T08:36:34.903Z</time></trkpt><trkpt lat="43.3561383" lon="11.94969"><ele>495.00000000000006</ele><time>2026-04-06T08:36:36.912Z</time></trkpt><trkpt lat="43.3562367" lon="11.9495883"><ele>494.00000000000006</ele><time>2026-04-06T08:36:38.912Z</time></trkpt><trkpt lat="43.3562883" lon="11.9495367"><ele>493.0</ele><time>2026-04-06T08:36:39.897Z</time></trkpt><trkpt lat="43.356345" lon="11.9494883"><ele>492.0</ele><time>2026-04-06T08:36:40.906Z</time></trkpt><trkpt lat="43.356465" lon="11.9494167"><ele>493.8571428571429</ele><time>2026-04-06T08:36:42.91Z</time></trkpt><trkpt lat="43.3565333" lon="11.9494017"><ele>495.7142857142857</ele><time>2026-04-06T08:36:43.916Z</time></trkpt><trkpt lat="43.3566" lon="11.9494067"><ele>497.57142857142856</ele><time>2026-04-06T08:36:44.9Z</time></trkpt><trkpt lat="43.356665" lon="11.9494117"><ele>499.42857142857144</ele><time>2026-04-06T08:36:45.899Z</time></trkpt><trkpt lat="43.3567283" lon="11.9494217"><ele>501.2857142857142</ele><time>2026-04-06T08:36:46.905Z</time></trkpt><trkpt lat="43.3567933" lon="11.9494317"><ele>503.1428571428571</ele><time>2026-04-06T08:36:47.92Z</time></trkpt><trkpt lat="43.3568583" lon="11.9494333"><ele>505.0</ele><time>2026-04-06T08:36:48.92Z</time></trkpt><trkpt lat="43.3569217" lon="11.949425"><ele>505.0</ele><time>2026-04-06T08:36:49.909Z</time></trkpt><trkpt lat="43.3569867" lon="11.9494133"><ele>505.0</ele><time>2026-04-06T08:36:50.934Z</time></trkpt><trkpt lat="43.357115" lon="11.9494067"><ele>505.0</ele><time>2026-04-06T08:36:52.917Z</time></trkpt><trkpt lat="43.3572383" lon="11.9494067"><ele>505.0</ele><time>2026-04-06T08:36:54.906Z</time></trkpt><trkpt lat="43.3573583" lon="11.9493867"><ele>505.0</ele><time>2026-04-06T08:36:56.911Z</time></trkpt><trkpt lat="43.35746" lon="11.9493183"><ele>504.50000000000006</ele><time>2026-04-06T08:36:58.923Z</time></trkpt><trkpt lat="43.3575533" lon="11.9492283"><ele>504.0</ele><time>2026-04-06T08:37:00.907Z</time></trkpt><trkpt lat="43.357605" lon="11.9491667"><ele>503.5</ele><time>2026-04-06T08:37:01.908Z</time></trkpt><trkpt lat="43.3576567" lon="11.9491167"><ele>503.0</ele><time>2026-04-06T08:37:02.914Z</time></trkpt><trkpt lat="43.35777" lon="11.9490567"><ele>502.50000000000006</ele><time>2026-04-06T08:37:04.902Z</time></trkpt><trkpt lat="43.3578367" lon="11.9490533"><ele>502.0</ele><time>2026-04-06T08:37:05.903Z</time></trkpt><trkpt lat="43.35795" lon="11.9490667"><ele>498.50000000000006</ele><time>2026-04-06T08:37:07.913Z</time></trkpt><trkpt lat="43.358065" lon="11.9491017"><ele>495.0</ele><time>2026-04-06T08:37:09.907Z</time></trkpt><trkpt lat="43.3581283" lon="11.94912"><ele>491.5</ele><time>2026-04-06T08:37:10.916Z</time></trkpt><trkpt lat="43.358195" lon="11.9491333"><ele>488.0</ele><time>2026-04-06T08:37:11.908Z</time></trkpt><trkpt lat="43.3582617" lon="11.949145"><ele>484.50000000000006</ele><time>2026-04-06T08:37:12.91Z</time></trkpt><trkpt lat="43.3583317" lon="11.9491533"><ele>481.0</ele><time>2026-04-06T08:37:13.905Z</time></trkpt><trkpt lat="43.3584567" lon="11.9491583"><ele>481.00000000000006</ele><time>2026-04-06T08:37:15.912Z</time></trkpt><trkpt lat="43.358525" lon="11.94916"><ele>481.0</ele><time>2026-04-06T08:37:16.903Z</time></trkpt><trkpt lat="43.358645" lon="11.949155"><ele>481.0</ele><time>2026-04-06T08:37:18.909Z</time></trkpt><trkpt lat="43.3587633" lon="11.9491367"><ele>481.0</ele><time>2026-04-06T08:37:20.907Z</time></trkpt><trkpt lat="43.35883" lon="11.9491167"><ele>481.00000000000006</ele><time>2026-04-06T08:37:21.909Z</time></trkpt><trkpt lat="43.3588933" lon="11.949095"><ele>481.0</ele><time>2026-04-06T08:37:22.912Z</time></trkpt><trkpt lat="43.3589533" lon="11.9490617"><ele>482.0</ele><time>2026-04-06T08:37:23.91Z</time></trkpt><trkpt lat="43.359065" lon="11.9489817"><ele>483.0</ele><time>2026-04-06T08:37:25.913Z</time></trkpt><trkpt lat="43.35915" lon="11.9488583"><ele>484.0</ele><time>2026-04-06T08:37:27.914Z</time></trkpt><trkpt lat="43.3591867" lon="11.94878"><ele>485.0</ele><time>2026-04-06T08:37:28.905Z</time></trkpt><trkpt lat="43.359215" lon="11.9486867"><ele>486.0</ele><time>2026-04-06T08:37:29.906Z</time></trkpt><trkpt lat="43.3592017" lon="11.9485417"><ele>486.0</ele><time>2026-04-06T08:37:31.903Z</time></trkpt><trkpt lat="43.3591183" lon="11.94841"><ele>486.0</ele><time>2026-04-06T08:37:33.91Z</time></trkpt><trkpt lat="43.3590717" lon="11.948345"><ele>486.0</ele><time>2026-04-06T08:37:34.907Z</time></trkpt><trkpt lat="43.3590283" lon="11.9482717"><ele>486.0</ele><time>2026-04-06T08:37:35.907Z</time></trkpt><trkpt lat="43.3589917" lon="11.94819"><ele>486.0</ele><time>2026-04-06T08:37:36.909Z</time></trkpt><trkpt lat="43.358955" lon="11.9481017"><ele>486.0</ele><time>2026-04-06T08:37:37.914Z</time></trkpt><trkpt lat="43.35891" lon="11.9480167"><ele>484.3333333333333</ele><time>2026-04-06T08:37:38.915Z</time></trkpt><trkpt lat="43.3588717" lon="11.9479267"><ele>482.66666666666663</ele><time>2026-04-06T08:37:39.915Z</time></trkpt><trkpt lat="43.3588233" lon="11.94785"><ele>481.0</ele><time>2026-04-06T08:37:40.913Z</time></trkpt><trkpt lat="43.358785" lon="11.947765"><ele>479.3333333333333</ele><time>2026-04-06T08:37:41.914Z</time></trkpt><trkpt lat="43.3587067" lon="11.94761"><ele>477.66666666666663</ele><time>2026-04-06T08:37:43.907Z</time></trkpt><trkpt lat="43.3586733" lon="11.94753"><ele>476.0</ele><time>2026-04-06T08:37:44.913Z</time></trkpt><trkpt lat="43.358645" lon="11.94744"><ele>472.8571428571429</ele><time>2026-04-06T08:37:45.906Z</time></trkpt><trkpt lat="43.3586183" lon="11.9473433"><ele>469.7142857142857</ele><time>2026-04-06T08:37:46.915Z</time></trkpt><trkpt lat="43.35859" lon="11.9472567"><ele>466.57142857142856</ele><time>2026-04-06T08:37:47.913Z</time></trkpt><trkpt lat="43.3585583" lon="11.9471817"><ele>463.42857142857144</ele><time>2026-04-06T08:37:48.917Z</time></trkpt><trkpt lat="43.35852" lon="11.9471067"><ele>460.28571428571433</ele><time>2026-04-06T08:37:49.909Z</time></trkpt><trkpt lat="43.35847" lon="11.9470383"><ele>457.14285714285717</ele><time>2026-04-06T08:37:50.921Z</time></trkpt><trkpt lat="43.358415" lon="11.946975"><ele>454.0</ele><time>2026-04-06T08:37:51.91Z</time></trkpt><trkpt lat="43.358365" lon="11.946905"><ele>454.0</ele><time>2026-04-06T08:37:52.912Z</time></trkpt><trkpt lat="43.35832" lon="11.9468317"><ele>454.00000000000006</ele><time>2026-04-06T08:37:53.911Z</time></trkpt><trkpt lat="43.35827" lon="11.9467567"><ele>454.0</ele><time>2026-04-06T08:37:54.902Z</time></trkpt><trkpt lat="43.358215" lon="11.9466833"><ele>454.0</ele><time>2026-04-06T08:37:55.91Z</time></trkpt><trkpt lat="43.3581617" lon="11.9466233"><ele>454.00000000000006</ele><time>2026-04-06T08:37:56.899Z</time></trkpt><trkpt lat="43.3581017" lon="11.9465617"><ele>454.0</ele><time>2026-04-06T08:37:57.917Z</time></trkpt><trkpt lat="43.358045" lon="11.9464983"><ele>454.0</ele><time>2026-04-06T08:37:58.909Z</time></trkpt><trkpt lat="43.3579917" lon="11.946435"><ele>453.33333333333337</ele><time>2026-04-06T08:37:59.91Z</time></trkpt><trkpt lat="43.35794" lon="11.9463767"><ele>452.6666666666667</ele><time>2026-04-06T08:38:00.911Z</time></trkpt><trkpt lat="43.3578917" lon="11.9463067"><ele>452.0</ele><time>2026-04-06T08:38:01.907Z</time></trkpt><trkpt lat="43.3578483" lon="11.9462383"><ele>451.33333333333337</ele><time>2026-04-06T08:38:02.899Z</time></trkpt><trkpt lat="43.3578133" lon="11.9461633"><ele>450.6666666666667</ele><time>2026-04-06T08:38:03.901Z</time></trkpt><trkpt lat="43.357775" lon="11.9460033"><ele>450.0</ele><time>2026-04-06T08:38:05.909Z</time></trkpt><trkpt lat="43.3577633" lon="11.9458517"><ele>450.0</ele><time>2026-04-06T08:38:07.906Z</time></trkpt><trkpt lat="43.3577267" lon="11.9457183"><ele>450.0</ele><time>2026-04-06T08:38:09.905Z</time></trkpt><trkpt lat="43.3576333" lon="11.9456217"><ele>450.0</ele><time>2026-04-06T08:38:11.91Z</time></trkpt><trkpt lat="43.3575217" lon="11.9455583"><ele>450.0</ele><time>2026-04-06T08:38:13.914Z</time></trkpt><trkpt lat="43.3574517" lon="11.9455267"><ele>450.0</ele><time>2026-04-06T08:38:14.908Z</time></trkpt><trkpt lat="43.3573867" lon="11.9454833"><ele>450.00000000000006</ele><time>2026-04-06T08:38:15.914Z</time></trkpt><trkpt lat="43.35733" lon="11.945425"><ele>450.0</ele><time>2026-04-06T08:38:16.898Z</time></trkpt><trkpt lat="43.35728" lon="11.9453633"><ele>450.00000000000006</ele><time>2026-04-06T08:38:17.906Z</time></trkpt><trkpt lat="43.35723" lon="11.9452967"><ele>450.00000000000006</ele><time>2026-04-06T08:38:18.911Z</time></trkpt><trkpt lat="43.357185" lon="11.9452183"><ele>450.0</ele><time>2026-04-06T08:38:19.916Z</time></trkpt><trkpt lat="43.3571417" lon="11.9451367"><ele>450.00000000000006</ele><time>2026-04-06T08:38:20.921Z</time></trkpt><trkpt lat="43.357105" lon="11.9450517"><ele>450.00000000000006</ele><time>2026-04-06T08:38:21.912Z</time></trkpt><trkpt lat="43.3570733" lon="11.944965"><ele>446.6666666666667</ele><time>2026-04-06T08:38:22.907Z</time></trkpt><trkpt lat="43.3570433" lon="11.9448767"><ele>443.33333333333337</ele><time>2026-04-06T08:38:23.907Z</time></trkpt><trkpt lat="43.35701" lon="11.9447917"><ele>440.0</ele><time>2026-04-06T08:38:24.907Z</time></trkpt><trkpt lat="43.3569767" lon="11.9447067"><ele>436.6666666666667</ele><time>2026-04-06T08:38:25.911Z</time></trkpt><trkpt lat="43.356895" lon="11.9445617"><ele>433.33333333333337</ele><time>2026-04-06T08:38:27.916Z</time></trkpt><trkpt lat="43.3568433" lon="11.9444817"><ele>430.0</ele><time>2026-04-06T08:38:28.916Z</time></trkpt><trkpt lat="43.3567917" lon="11.9444133"><ele>430.0</ele><time>2026-04-06T08:38:29.912Z</time></trkpt><trkpt lat="43.3567383" lon="11.9443483"><ele>430.0</ele><time>2026-04-06T08:38:30.91Z</time></trkpt><trkpt lat="43.356685" lon="11.94429"><ele>430.0</ele><time>2026-04-06T08:38:31.906Z</time></trkpt><trkpt lat="43.3566333" lon="11.9442267"><ele>430.0</ele><time>2026-04-06T08:38:32.912Z</time></trkpt><trkpt lat="43.356575" lon="11.94416"><ele>430.0</ele><time>2026-04-06T08:38:33.904Z</time></trkpt><trkpt lat="43.3565183" lon="11.9441"><ele>430.0</ele><time>2026-04-06T08:38:34.907Z</time></trkpt><trkpt lat="43.3564583" lon="11.9440417"><ele>430.0</ele><time>2026-04-06T08:38:35.907Z</time></trkpt><trkpt lat="43.3563983" lon="11.943975"><ele>428.83333333333337</ele><time>2026-04-06T08:38:36.903Z</time></trkpt><trkpt lat="43.3563367" lon="11.94391"><ele>427.6666666666667</ele><time>2026-04-06T08:38:37.907Z</time></trkpt><trkpt lat="43.3562767" lon="11.943845"><ele>426.5</ele><time>2026-04-06T08:38:38.907Z</time></trkpt><trkpt lat="43.356215" lon="11.9437817"><ele>425.33333333333337</ele><time>2026-04-06T08:38:39.905Z</time></trkpt><trkpt lat="43.3561517" lon="11.9437283"><ele>424.1666666666667</ele><time>2026-04-06T08:38:40.913Z</time></trkpt><trkpt lat="43.3560817" lon="11.9436767"><ele>423.0</ele><time>2026-04-06T08:38:41.907Z</time></trkpt><trkpt lat="43.3560167" lon="11.943625"><ele>423.0</ele><time>2026-04-06T08:38:42.914Z</time></trkpt><trkpt lat="43.35595" lon="11.9435783"><ele>423.0</ele><time>2026-04-06T08:38:43.9Z</time></trkpt><trkpt lat="43.3558917" lon="11.9435283"><ele>423.0</ele><time>2026-04-06T08:38:44.908Z</time></trkpt><trkpt lat="43.3558317" lon="11.9434817"><ele>423.0</ele><time>2026-04-06T08:38:45.909Z</time></trkpt><trkpt lat="43.3557283" lon="11.94339"><ele>423.0</ele><time>2026-04-06T08:38:47.907Z</time></trkpt><trkpt lat="43.3556233" lon="11.9433133"><ele>422.5</ele><time>2026-04-06T08:38:49.903Z</time></trkpt><trkpt lat="43.35552" lon="11.9432417"><ele>422.0</ele><time>2026-04-06T08:38:51.906Z</time></trkpt><trkpt lat="43.3554167" lon="11.94317"><ele>421.5</ele><time>2026-04-06T08:38:53.899Z</time></trkpt><trkpt lat="43.3553133" lon="11.9430967"><ele>421.0</ele><time>2026-04-06T08:38:55.916Z</time></trkpt><trkpt lat="43.3552117" lon="11.943025"><ele>421.0</ele><time>2026-04-06T08:38:57.918Z</time></trkpt><trkpt lat="43.3551217" lon="11.9429483"><ele>421.0</ele><time>2026-04-06T08:38:59.906Z</time></trkpt><trkpt lat="43.3550467" lon="11.9428633"><ele>421.0</ele><time>2026-04-06T08:39:01.92Z</time></trkpt><trkpt lat="43.3550167" lon="11.94273"><ele>421.0</ele><time>2026-04-06T08:39:03.917Z</time></trkpt><trkpt lat="43.3550567" lon="11.942595"><ele>421.0</ele><time>2026-04-06T08:39:05.911Z</time></trkpt><trkpt lat="43.35516" lon="11.94251"><ele>421.25</ele><time>2026-04-06T08:39:07.907Z</time></trkpt><trkpt lat="43.3552717" lon="11.9424583"><ele>421.5</ele><time>2026-04-06T08:39:09.91Z</time></trkpt><trkpt lat="43.3553883" lon="11.9424217"><ele>421.75</ele><time>2026-04-06T08:39:11.91Z</time></trkpt><trkpt lat="43.3554983" lon="11.9423733"><ele>422.0</ele><time>2026-04-06T08:39:13.917Z</time></trkpt><trkpt lat="43.3556" lon="11.9423333"><ele>423.66666666666663</ele><time>2026-04-06T08:39:15.92Z</time></trkpt><trkpt lat="43.355725" lon="11.94228"><ele>425.3333333333333</ele><time>2026-04-06T08:39:17.904Z</time></trkpt><trkpt lat="43.3557917" lon="11.942245"><ele>427.0</ele><time>2026-04-06T08:39:18.909Z</time></trkpt><trkpt lat="43.3558583" lon="11.9422183"><ele>428.66666666666663</ele><time>2026-04-06T08:39:19.917Z</time></trkpt><trkpt lat="43.35593" lon="11.9421967"><ele>430.3333333333333</ele><time>2026-04-06T08:39:20.911Z</time></trkpt><trkpt lat="43.355995" lon="11.942185"><ele>432.0</ele><time>2026-04-06T08:39:21.913Z</time></trkpt><trkpt lat="43.35612" lon="11.9421367"><ele>432.0</ele><time>2026-04-06T08:39:23.908Z</time></trkpt><trkpt lat="43.3561833" lon="11.942105"><ele>432.0</ele><time>2026-04-06T08:39:24.909Z</time></trkpt><trkpt lat="43.356245" lon="11.94208"><ele>432.0</ele><time>2026-04-06T08:39:25.919Z</time></trkpt><trkpt lat="43.3563567" lon="11.942005"><ele>432.0</ele><time>2026-04-06T08:39:27.921Z</time></trkpt><trkpt lat="43.35641" lon="11.9419583"><ele>432.0</ele><time>2026-04-06T08:39:28.908Z</time></trkpt><trkpt lat="43.3565067" lon="11.9418517"><ele>432.0</ele><time>2026-04-06T08:39:30.9Z</time></trkpt><trkpt lat="43.35661" lon="11.941755"><ele>430.8</ele><time>2026-04-06T08:39:32.912Z</time></trkpt><trkpt lat="43.35666" lon="11.9417"><ele>429.6</ele><time>2026-04-06T08:39:33.9Z</time></trkpt><trkpt lat="43.3567567" lon="11.9416033"><ele>428.40000000000003</ele><time>2026-04-06T08:39:35.908Z</time></trkpt><trkpt lat="43.356855" lon="11.941495"><ele>427.20000000000005</ele><time>2026-04-06T08:39:37.901Z</time></trkpt><trkpt lat="43.3569067" lon="11.94144"><ele>426.0</ele><time>2026-04-06T08:39:38.911Z</time></trkpt><trkpt lat="43.357" lon="11.94134"><ele>426.0</ele><time>2026-04-06T08:39:40.903Z</time></trkpt><trkpt lat="43.3570567" lon="11.9412083"><ele>426.0</ele><time>2026-04-06T08:39:42.913Z</time></trkpt><trkpt lat="43.35705" lon="11.9410717"><ele>426.0</ele><time>2026-04-06T08:39:44.905Z</time></trkpt><trkpt lat="43.3569733" lon="11.9409517"><ele>426.0</ele><time>2026-04-06T08:39:46.92Z</time></trkpt><trkpt lat="43.356875" lon="11.9408467"><ele>425.71428571428567</ele><time>2026-04-06T08:39:48.905Z</time></trkpt><trkpt lat="43.3568133" lon="11.9408017"><ele>425.42857142857144</ele><time>2026-04-06T08:39:49.905Z</time></trkpt><trkpt lat="43.3567567" lon="11.9407583"><ele>425.1428571428571</ele><time>2026-04-06T08:39:50.907Z</time></trkpt><trkpt lat="43.3566967" lon="11.9407117"><ele>424.85714285714283</ele><time>2026-04-06T08:39:51.902Z</time></trkpt><trkpt lat="43.356635" lon="11.9406667"><ele>424.57142857142856</ele><time>2026-04-06T08:39:52.915Z</time></trkpt><trkpt lat="43.356575" lon="11.9406233"><ele>424.2857142857143</ele><time>2026-04-06T08:39:53.916Z</time></trkpt><trkpt lat="43.3565167" lon="11.9405733"><ele>424.0</ele><time>2026-04-06T08:39:54.906Z</time></trkpt><trkpt lat="43.3564583" lon="11.94053"><ele>424.0</ele><time>2026-04-06T08:39:55.908Z</time></trkpt><trkpt lat="43.3564067" lon="11.94048"><ele>424.0</ele><time>2026-04-06T08:39:56.906Z</time></trkpt><trkpt lat="43.3563533" lon="11.9404333"><ele>424.0</ele><time>2026-04-06T08:39:57.904Z</time></trkpt><trkpt lat="43.3562533" lon="11.9403367"><ele>424.0</ele><time>2026-04-06T08:39:59.911Z</time></trkpt><trkpt lat="43.3561733" lon="11.940215"><ele>424.0</ele><time>2026-04-06T08:40:01.901Z</time></trkpt><trkpt lat="43.3560983" lon="11.9400817"><ele>421.50000000000006</ele><time>2026-04-06T08:40:03.916Z</time></trkpt><trkpt lat="43.356055" lon="11.9400117"><ele>419.0</ele><time>2026-04-06T08:40:04.911Z</time></trkpt><trkpt lat="43.35601" lon="11.939945"><ele>416.5</ele><time>2026-04-06T08:40:05.923Z</time></trkpt><trkpt lat="43.35597" lon="11.93987"><ele>414.0</ele><time>2026-04-06T08:40:06.91Z</time></trkpt><trkpt lat="43.3559267" lon="11.9398017"><ele>411.50000000000006</ele><time>2026-04-06T08:40:07.904Z</time></trkpt><trkpt lat="43.35588" lon="11.9397383"><ele>409.0</ele><time>2026-04-06T08:40:08.913Z</time></trkpt><trkpt lat="43.3558033" lon="11.9396083"><ele>409.0</ele><time>2026-04-06T08:40:10.919Z</time></trkpt><trkpt lat="43.3557383" lon="11.9394867"><ele>409.0</ele><time>2026-04-06T08:40:12.914Z</time></trkpt><trkpt lat="43.3556817" lon="11.9393617"><ele>409.0</ele><time>2026-04-06T08:40:14.909Z</time></trkpt><trkpt lat="43.3556267" lon="11.9392317"><ele>409.0</ele><time>2026-04-06T08:40:16.905Z</time></trkpt><trkpt lat="43.35559" lon="11.9390883"><ele>409.0</ele><time>2026-04-06T08:40:18.905Z</time></trkpt><trkpt lat="43.3555683" lon="11.93893"><ele>410.75</ele><time>2026-04-06T08:40:20.908Z</time></trkpt><trkpt lat="43.355585" lon="11.9387817"><ele>412.5</ele><time>2026-04-06T08:40:22.909Z</time></trkpt><trkpt lat="43.3556317" lon="11.938635"><ele>414.25</ele><time>2026-04-06T08:40:24.911Z</time></trkpt><trkpt lat="43.3557" lon="11.9385233"><ele>416.0</ele><time>2026-04-06T08:40:26.91Z</time></trkpt><trkpt lat="43.3557467" lon="11.9383733"><ele>415.99999999999994</ele><time>2026-04-06T08:40:28.911Z</time></trkpt><trkpt lat="43.355765" lon="11.9382883"><ele>416.0</ele><time>2026-04-06T08:40:29.907Z</time></trkpt><trkpt lat="43.35578" lon="11.9382033"><ele>416.0</ele><time>2026-04-06T08:40:30.905Z</time></trkpt><trkpt lat="43.3557883" lon="11.9380467"><ele>416.0</ele><time>2026-04-06T08:40:32.916Z</time></trkpt><trkpt lat="43.3557833" lon="11.93796"><ele>415.99999999999994</ele><time>2026-04-06T08:40:33.909Z</time></trkpt><trkpt lat="43.3557583" lon="11.9378067"><ele>416.0</ele><time>2026-04-06T08:40:35.912Z</time></trkpt><trkpt lat="43.355705" lon="11.9376817"><ele>416.0</ele><time>2026-04-06T08:40:37.917Z</time></trkpt><trkpt lat="43.3556217" lon="11.93757"><ele>416.0</ele><time>2026-04-06T08:40:39.906Z</time></trkpt><trkpt lat="43.3555083" lon="11.9375083"><ele>416.0</ele><time>2026-04-06T08:40:41.907Z</time></trkpt><trkpt lat="43.3553883" lon="11.937515"><ele>416.0</ele><time>2026-04-06T08:40:43.906Z</time></trkpt><trkpt lat="43.355265" lon="11.9375367"><ele>413.49999999999994</ele><time>2026-04-06T08:40:45.908Z</time></trkpt><trkpt lat="43.3552017" lon="11.93755"><ele>411.0</ele><time>2026-04-06T08:40:46.905Z</time></trkpt><trkpt lat="43.3551383" lon="11.937565"><ele>408.5</ele><time>2026-04-06T08:40:47.899Z</time></trkpt><trkpt lat="43.3550267" lon="11.9376117"><ele>406.0</ele><time>2026-04-06T08:40:49.908Z</time></trkpt><trkpt lat="43.354965" lon="11.9376367"><ele>403.49999999999994</ele><time>2026-04-06T08:40:50.904Z</time></trkpt><trkpt lat="43.3548417" lon="11.9376833"><ele>401.0</ele><time>2026-04-06T08:40:52.912Z</time></trkpt><trkpt lat="43.35478" lon="11.9377067"><ele>398.6</ele><time>2026-04-06T08:40:53.9Z</time></trkpt><trkpt lat="43.3547167" lon="11.9377233"><ele>396.20000000000005</ele><time>2026-04-06T08:40:54.909Z</time></trkpt><trkpt lat="43.3546033" lon="11.937735"><ele>393.79999999999995</ele><time>2026-04-06T08:40:56.92Z</time></trkpt><trkpt lat="43.3545017" lon="11.9376667"><ele>391.4</ele><time>2026-04-06T08:40:58.906Z</time></trkpt><trkpt lat="43.354425" lon="11.9375583"><ele>389.0</ele><time>2026-04-06T08:41:00.9Z</time></trkpt><trkpt lat="43.3543667" lon="11.9374233"><ele>388.0</ele><time>2026-04-06T08:41:02.905Z</time></trkpt><trkpt lat="43.3543333" lon="11.9372717"><ele>387.0</ele><time>2026-04-06T08:41:04.911Z</time></trkpt><trkpt lat="43.35432" lon="11.9371083"><ele>386.0</ele><time>2026-04-06T08:41:06.912Z</time></trkpt><trkpt lat="43.3543283" lon="11.9369467"><ele>385.0</ele><time>2026-04-06T08:41:08.912Z</time></trkpt><trkpt lat="43.3543333" lon="11.9367833"><ele>385.00000000000006</ele><time>2026-04-06T08:41:10.917Z</time></trkpt><trkpt lat="43.35437" lon="11.9366333"><ele>385.0</ele><time>2026-04-06T08:41:12.905Z</time></trkpt><trkpt lat="43.3543767" lon="11.9365383"><ele>385.0</ele><time>2026-04-06T08:41:13.905Z</time></trkpt><trkpt lat="43.35438" lon="11.9364517"><ele>385.0</ele><time>2026-04-06T08:41:14.908Z</time></trkpt><trkpt lat="43.3543817" lon="11.9363567"><ele>385.00000000000006</ele><time>2026-04-06T08:41:15.908Z</time></trkpt><trkpt lat="43.3543967" lon="11.9362717"><ele>385.0</ele><time>2026-04-06T08:41:16.922Z</time></trkpt><trkpt lat="43.3543967" lon="11.936115"><ele>385.00000000000006</ele><time>2026-04-06T08:41:18.913Z</time></trkpt><trkpt lat="43.3543817" lon="11.9360233"><ele>385.0</ele><time>2026-04-06T08:41:19.911Z</time></trkpt><trkpt lat="43.3543617" lon="11.93594"><ele>385.0</ele><time>2026-04-06T08:41:20.909Z</time></trkpt><trkpt lat="43.3543067" lon="11.93578"><ele>385.0</ele><time>2026-04-06T08:41:22.909Z</time></trkpt><trkpt lat="43.35428" lon="11.9357"><ele>385.00000000000006</ele><time>2026-04-06T08:41:23.902Z</time></trkpt><trkpt lat="43.3542517" lon="11.9356183"><ele>385.0</ele><time>2026-04-06T08:41:24.915Z</time></trkpt><trkpt lat="43.3542267" lon="11.9355283"><ele>384.6</ele><time>2026-04-06T08:41:25.91Z</time></trkpt><trkpt lat="43.3542067" lon="11.9354433"><ele>384.2</ele><time>2026-04-06T08:41:26.928Z</time></trkpt><trkpt lat="43.3542033" lon="11.935355"><ele>383.79999999999995</ele><time>2026-04-06T08:41:27.918Z</time></trkpt><trkpt lat="43.35422" lon="11.935185"><ele>383.4</ele><time>2026-04-06T08:41:29.908Z</time></trkpt><trkpt lat="43.3542783" lon="11.9350433"><ele>383.0</ele><time>2026-04-06T08:41:31.907Z</time></trkpt><trkpt lat="43.354365" lon="11.9349367"><ele>382.2</ele><time>2026-04-06T08:41:33.916Z</time></trkpt><trkpt lat="43.354455" lon="11.9348517"><ele>381.4</ele><time>2026-04-06T08:41:35.902Z</time></trkpt><trkpt lat="43.35455" lon="11.9347683"><ele>380.59999999999997</ele><time>2026-04-06T08:41:37.913Z</time></trkpt><trkpt lat="43.3545983" lon="11.93471"><ele>379.79999999999995</ele><time>2026-04-06T08:41:38.902Z</time></trkpt><trkpt lat="43.3546633" lon="11.9346"><ele>379.0</ele><time>2026-04-06T08:41:40.916Z</time></trkpt><trkpt lat="43.35467" lon="11.9344583"><ele>379.0</ele><time>2026-04-06T08:41:42.915Z</time></trkpt><trkpt lat="43.354605" lon="11.9343217"><ele>379.0</ele><time>2026-04-06T08:41:44.91Z</time></trkpt><trkpt lat="43.3545017" lon="11.9342233"><ele>379.0</ele><time>2026-04-06T08:41:46.905Z</time></trkpt><trkpt lat="43.3543783" lon="11.9341867"><ele>379.0</ele><time>2026-04-06T08:41:48.916Z</time></trkpt><trkpt lat="43.3543133" lon="11.9341667"><ele>379.0</ele><time>2026-04-06T08:41:49.917Z</time></trkpt><trkpt lat="43.3542483" lon="11.9341583"><ele>379.8571428571429</ele><time>2026-04-06T08:41:50.909Z</time></trkpt><trkpt lat="43.3541833" lon="11.9341517"><ele>380.7142857142857</ele><time>2026-04-06T08:41:51.918Z</time></trkpt><trkpt lat="43.3541167" lon="11.9341383"><ele>381.57142857142856</ele><time>2026-04-06T08:41:52.906Z</time></trkpt><trkpt lat="43.3540433" lon="11.9341217"><ele>382.42857142857144</ele><time>2026-04-06T08:41:53.913Z</time></trkpt><trkpt lat="43.353975" lon="11.9341017"><ele>383.2857142857143</ele><time>2026-04-06T08:41:54.912Z</time></trkpt><trkpt lat="43.3539067" lon="11.93409"><ele>384.14285714285717</ele><time>2026-04-06T08:41:55.916Z</time></trkpt><trkpt lat="43.3538383" lon="11.9340717"><ele>385.0</ele><time>2026-04-06T08:41:56.906Z</time></trkpt><trkpt lat="43.3537667" lon="11.9340583"><ele>383.0</ele><time>2026-04-06T08:41:57.911Z</time></trkpt><trkpt lat="43.3537017" lon="11.9340483"><ele>381.0</ele><time>2026-04-06T08:41:58.903Z</time></trkpt><trkpt lat="43.3536317" lon="11.9340367"><ele>379.0</ele><time>2026-04-06T08:41:59.912Z</time></trkpt><trkpt lat="43.35356" lon="11.9340217"><ele>377.0</ele><time>2026-04-06T08:42:00.913Z</time></trkpt><trkpt lat="43.3534883" lon="11.9340033"><ele>375.0</ele><time>2026-04-06T08:42:01.907Z</time></trkpt><trkpt lat="43.3534167" lon="11.9339917"><ele>373.0</ele><time>2026-04-06T08:42:02.906Z</time></trkpt><trkpt lat="43.3533433" lon="11.93398"><ele>371.0</ele><time>2026-04-06T08:42:03.911Z</time></trkpt><trkpt lat="43.3532717" lon="11.9339617"><ele>371.0</ele><time>2026-04-06T08:42:04.915Z</time></trkpt><trkpt lat="43.3532033" lon="11.9339483"><ele>371.0</ele><time>2026-04-06T08:42:05.911Z</time></trkpt><trkpt lat="43.3531333" lon="11.933935"><ele>371.0</ele><time>2026-04-06T08:42:06.917Z</time></trkpt><trkpt lat="43.3530633" lon="11.9339167"><ele>371.0</ele><time>2026-04-06T08:42:07.907Z</time></trkpt><trkpt lat="43.3529983" lon="11.9338917"><ele>371.0</ele><time>2026-04-06T08:42:08.916Z</time></trkpt><trkpt lat="43.3529383" lon="11.9338583"><ele>371.0</ele><time>2026-04-06T08:42:09.905Z</time></trkpt><trkpt lat="43.3528267" lon="11.9337767"><ele>370.1666666666667</ele><time>2026-04-06T08:42:11.92Z</time></trkpt><trkpt lat="43.3527517" lon="11.9336433"><ele>369.33333333333337</ele><time>2026-04-06T08:42:13.909Z</time></trkpt><trkpt lat="43.35272" lon="11.9335517"><ele>368.5</ele><time>2026-04-06T08:42:14.91Z</time></trkpt><trkpt lat="43.3527017" lon="11.9334583"><ele>367.6666666666667</ele><time>2026-04-06T08:42:15.914Z</time></trkpt><trkpt lat="43.3526833" lon="11.9333617"><ele>366.8333333333333</ele><time>2026-04-06T08:42:16.912Z</time></trkpt><trkpt lat="43.3526717" lon="11.9332717"><ele>366.0</ele><time>2026-04-06T08:42:17.91Z</time></trkpt><trkpt lat="43.352665" lon="11.933175"><ele>366.0</ele><time>2026-04-06T08:42:18.92Z</time></trkpt><trkpt lat="43.352665" lon="11.9330883"><ele>366.0</ele><time>2026-04-06T08:42:19.909Z</time></trkpt><trkpt lat="43.3526667" lon="11.9329983"><ele>366.0</ele><time>2026-04-06T08:42:20.906Z</time></trkpt><trkpt lat="43.3526767" lon="11.93291"><ele>366.0</ele><time>2026-04-06T08:42:21.907Z</time></trkpt><trkpt lat="43.352725" lon="11.932755"><ele>366.0</ele><time>2026-04-06T08:42:23.906Z</time></trkpt><trkpt lat="43.3527683" lon="11.9326867"><ele>366.0</ele><time>2026-04-06T08:42:24.913Z</time></trkpt><trkpt lat="43.352815" lon="11.9326167"><ele>364.7142857142857</ele><time>2026-04-06T08:42:25.901Z</time></trkpt><trkpt lat="43.3528533" lon="11.9325433"><ele>363.42857142857144</ele><time>2026-04-06T08:42:26.907Z</time></trkpt><trkpt lat="43.3528817" lon="11.9324583"><ele>362.1428571428571</ele><time>2026-04-06T08:42:27.905Z</time></trkpt><trkpt lat="43.352905" lon="11.9323583"><ele>360.8571428571429</ele><time>2026-04-06T08:42:28.907Z</time></trkpt><trkpt lat="43.3529217" lon="11.932265"><ele>359.57142857142856</ele><time>2026-04-06T08:42:29.91Z</time></trkpt><trkpt lat="43.3529267" lon="11.9321683"><ele>358.2857142857143</ele><time>2026-04-06T08:42:30.903Z</time></trkpt><trkpt lat="43.3529317" lon="11.9320767"><ele>357.0</ele><time>2026-04-06T08:42:31.915Z</time></trkpt><trkpt lat="43.352935" lon="11.9319733"><ele>357.0</ele><time>2026-04-06T08:42:32.909Z</time></trkpt><trkpt lat="43.3529433" lon="11.9318767"><ele>357.0</ele><time>2026-04-06T08:42:33.91Z</time></trkpt><trkpt lat="43.3529517" lon="11.9317783"><ele>357.0</ele><time>2026-04-06T08:42:34.909Z</time></trkpt><trkpt lat="43.3529583" lon="11.9316783"><ele>357.0</ele><time>2026-04-06T08:42:35.902Z</time></trkpt><trkpt lat="43.3529667" lon="11.93158"><ele>357.0</ele><time>2026-04-06T08:42:36.917Z</time></trkpt><trkpt lat="43.3529683" lon="11.9314767"><ele>357.0</ele><time>2026-04-06T08:42:37.909Z</time></trkpt><trkpt lat="43.352965" lon="11.9313833"><ele>357.0</ele><time>2026-04-06T08:42:38.908Z</time></trkpt><trkpt lat="43.3529683" lon="11.9312917"><ele>356.2857142857143</ele><time>2026-04-06T08:42:39.906Z</time></trkpt><trkpt lat="43.352975" lon="11.9312033"><ele>355.57142857142856</ele><time>2026-04-06T08:42:40.912Z</time></trkpt><trkpt lat="43.35298" lon="11.9311067"><ele>354.8571428571429</ele><time>2026-04-06T08:42:41.905Z</time></trkpt><trkpt lat="43.352985" lon="11.9310117"><ele>354.1428571428571</ele><time>2026-04-06T08:42:42.926Z</time></trkpt><trkpt lat="43.3529917" lon="11.9309183"><ele>353.42857142857144</ele><time>2026-04-06T08:42:43.911Z</time></trkpt><trkpt lat="43.353" lon="11.9308233"><ele>352.7142857142857</ele><time>2026-04-06T08:42:44.906Z</time></trkpt><trkpt lat="43.3530067" lon="11.93072"><ele>352.0</ele><time>2026-04-06T08:42:45.903Z</time></trkpt><trkpt lat="43.3530117" lon="11.9306283"><ele>352.0</ele><time>2026-04-06T08:42:46.909Z</time></trkpt><trkpt lat="43.3530217" lon="11.9305383"><ele>352.0</ele><time>2026-04-06T08:42:47.909Z</time></trkpt><trkpt lat="43.3530283" lon="11.9304517"><ele>352.0</ele><time>2026-04-06T08:42:48.906Z</time></trkpt><trkpt lat="43.3530467" lon="11.9302817"><ele>352.0</ele><time>2026-04-06T08:42:50.907Z</time></trkpt><trkpt lat="43.35306" lon="11.9301967"><ele>352.0</ele><time>2026-04-06T08:42:51.904Z</time></trkpt><trkpt lat="43.35307" lon="11.9301083"><ele>352.0</ele><time>2026-04-06T08:42:52.923Z</time></trkpt><trkpt lat="43.3530767" lon="11.9300183"><ele>352.0</ele><time>2026-04-06T08:42:53.906Z</time></trkpt><trkpt lat="43.3531167" lon="11.9298633"><ele>356.0</ele><time>2026-04-06T08:42:55.91Z</time></trkpt><trkpt lat="43.353145" lon="11.929715"><ele>360.0</ele><time>2026-04-06T08:42:57.92Z</time></trkpt><trkpt lat="43.3531767" lon="11.929565"><ele>364.0</ele><time>2026-04-06T08:42:59.907Z</time></trkpt><trkpt lat="43.3532017" lon="11.929425"><ele>368.0</ele><time>2026-04-06T08:43:01.916Z</time></trkpt><trkpt lat="43.3531933" lon="11.9292833"><ele>372.0</ele><time>2026-04-06T08:43:03.908Z</time></trkpt><trkpt lat="43.3531683" lon="11.9291433"><ele>372.0</ele><time>2026-04-06T08:43:05.909Z</time></trkpt><trkpt lat="43.35313" lon="11.929015"><ele>372.0</ele><time>2026-04-06T08:43:07.91Z</time></trkpt><trkpt lat="43.353085" lon="11.9289"><ele>372.0</ele><time>2026-04-06T08:43:09.904Z</time></trkpt><trkpt lat="43.35303" lon="11.928785"><ele>372.0</ele><time>2026-04-06T08:43:11.909Z</time></trkpt><trkpt lat="43.3529517" lon="11.9286933"><ele>372.0</ele><time>2026-04-06T08:43:13.904Z</time></trkpt><trkpt lat="43.352865" lon="11.92861"><ele>367.6</ele><time>2026-04-06T08:43:15.906Z</time></trkpt><trkpt lat="43.3527783" lon="11.9285933"><ele>363.20000000000005</ele><time>2026-04-06T08:43:17.904Z</time></trkpt><trkpt lat="43.3526983" lon="11.9286033"><ele>358.8</ele><time>2026-04-06T08:43:19.905Z</time></trkpt><trkpt lat="43.3526067" lon="11.9286167"><ele>354.4</ele><time>2026-04-06T08:43:21.903Z</time></trkpt><trkpt lat="43.3525017" lon="11.9286217"><ele>350.0</ele><time>2026-04-06T08:43:23.909Z</time></trkpt><trkpt lat="43.3523933" lon="11.92862"><ele>350.0</ele><time>2026-04-06T08:43:25.916Z</time></trkpt><trkpt lat="43.3522967" lon="11.9286033"><ele>350.0</ele><time>2026-04-06T08:43:27.912Z</time></trkpt><trkpt lat="43.3522" lon="11.9285817"><ele>350.0</ele><time>2026-04-06T08:43:29.903Z</time></trkpt><trkpt lat="43.3521" lon="11.9285617"><ele>350.0</ele><time>2026-04-06T08:43:31.908Z</time></trkpt><trkpt lat="43.3519967" lon="11.9285317"><ele>350.0</ele><time>2026-04-06T08:43:33.909Z</time></trkpt><trkpt lat="43.351895" lon="11.92851"><ele>350.2</ele><time>2026-04-06T08:43:35.908Z</time></trkpt><trkpt lat="43.3517917" lon="11.928485"><ele>350.4</ele><time>2026-04-06T08:43:37.906Z</time></trkpt><trkpt lat="43.3516833" lon="11.92846"><ele>350.6</ele><time>2026-04-06T08:43:39.912Z</time></trkpt><trkpt lat="43.3515817" lon="11.9284333"><ele>350.8</ele><time>2026-04-06T08:43:41.9Z</time></trkpt><trkpt lat="43.3514817" lon="11.9284117"><ele>351.0</ele><time>2026-04-06T08:43:43.908Z</time></trkpt><trkpt lat="43.3513733" lon="11.9283817"><ele>351.0</ele><time>2026-04-06T08:43:45.915Z</time></trkpt><trkpt lat="43.3512783" lon="11.9283417"><ele>351.0</ele><time>2026-04-06T08:43:47.926Z</time></trkpt><trkpt lat="43.3511817" lon="11.9282883"><ele>351.0</ele><time>2026-04-06T08:43:49.907Z</time></trkpt><trkpt lat="43.3510883" lon="11.9282267"><ele>351.0</ele><time>2026-04-06T08:43:51.906Z</time></trkpt><trkpt lat="43.351005" lon="11.928145"><ele>351.0</ele><time>2026-04-06T08:43:53.907Z</time></trkpt><trkpt lat="43.3509267" lon="11.9280467"><ele>351.0</ele><time>2026-04-06T08:43:55.912Z</time></trkpt><trkpt lat="43.3508483" lon="11.927915"><ele>351.0</ele><time>2026-04-06T08:43:57.915Z</time></trkpt><trkpt lat="43.3508067" lon="11.9277567"><ele>351.0</ele><time>2026-04-06T08:43:59.923Z</time></trkpt><trkpt lat="43.3508017" lon="11.9276683"><ele>351.0</ele><time>2026-04-06T08:44:00.91Z</time></trkpt><trkpt lat="43.3508067" lon="11.9275733"><ele>351.0</ele><time>2026-04-06T08:44:01.907Z</time></trkpt><trkpt lat="43.3508167" lon="11.92748"><ele>351.0</ele><time>2026-04-06T08:44:02.919Z</time></trkpt><trkpt lat="43.3508283" lon="11.92739"><ele>351.00000000000006</ele><time>2026-04-06T08:44:03.902Z</time></trkpt><trkpt lat="43.35084" lon="11.9272983"><ele>351.0</ele><time>2026-04-06T08:44:04.916Z</time></trkpt><trkpt lat="43.3508533" lon="11.92721"><ele>351.0</ele><time>2026-04-06T08:44:05.905Z</time></trkpt><trkpt lat="43.3508617" lon="11.9271233"><ele>351.0</ele><time>2026-04-06T08:44:06.909Z</time></trkpt><trkpt lat="43.3508767" lon="11.92703"><ele>351.0</ele><time>2026-04-06T08:44:07.916Z</time></trkpt><trkpt lat="43.35089" lon="11.92694"><ele>351.00000000000006</ele><time>2026-04-06T08:44:08.91Z</time></trkpt><trkpt lat="43.3509" lon="11.9268533"><ele>351.0</ele><time>2026-04-06T08:44:09.918Z</time></trkpt><trkpt lat="43.35092" lon="11.926695"><ele>350.0</ele><time>2026-04-06T08:44:11.904Z</time></trkpt><trkpt lat="43.35094" lon="11.9265283"><ele>349.0</ele><time>2026-04-06T08:44:13.905Z</time></trkpt><trkpt lat="43.3509567" lon="11.9264417"><ele>348.0</ele><time>2026-04-06T08:44:14.915Z</time></trkpt><trkpt lat="43.350975" lon="11.92635"><ele>347.0</ele><time>2026-04-06T08:44:15.911Z</time></trkpt><trkpt lat="43.351" lon="11.9262617"><ele>346.0</ele><time>2026-04-06T08:44:16.91Z</time></trkpt><trkpt lat="43.3510233" lon="11.9261783"><ele>345.0</ele><time>2026-04-06T08:44:17.91Z</time></trkpt><trkpt lat="43.3510483" lon="11.9260933"><ele>345.0</ele><time>2026-04-06T08:44:18.903Z</time></trkpt><trkpt lat="43.3510783" lon="11.926015"><ele>345.0</ele><time>2026-04-06T08:44:19.919Z</time></trkpt><trkpt lat="43.3511367" lon="11.92586"><ele>345.0</ele><time>2026-04-06T08:44:21.916Z</time></trkpt><trkpt lat="43.3511667" lon="11.9257783"><ele>345.0</ele><time>2026-04-06T08:44:22.915Z</time></trkpt><trkpt lat="43.35119" lon="11.9256883"><ele>345.0</ele><time>2026-04-06T08:44:23.914Z</time></trkpt><trkpt lat="43.3512167" lon="11.9256083"><ele>345.0</ele><time>2026-04-06T08:44:24.921Z</time></trkpt><trkpt lat="43.3512533" lon="11.92546"><ele>344.4</ele><time>2026-04-06T08:44:26.905Z</time></trkpt><trkpt lat="43.3512567" lon="11.9253133"><ele>343.8</ele><time>2026-04-06T08:44:28.906Z</time></trkpt><trkpt lat="43.351215" lon="11.9251883"><ele>343.20000000000005</ele><time>2026-04-06T08:44:30.903Z</time></trkpt><trkpt lat="43.35112" lon="11.9251033"><ele>342.6</ele><time>2026-04-06T08:44:32.917Z</time></trkpt><trkpt lat="43.3510217" lon="11.92506"><ele>342.0</ele><time>2026-04-06T08:44:34.918Z</time></trkpt><trkpt lat="43.3509133" lon="11.92505"><ele>342.0</ele><time>2026-04-06T08:44:36.908Z</time></trkpt><trkpt lat="43.3508067" lon="11.92505"><ele>342.0</ele><time>2026-04-06T08:44:38.904Z</time></trkpt><trkpt lat="43.3506917" lon="11.925065"><ele>342.0</ele><time>2026-04-06T08:44:40.904Z</time></trkpt><trkpt lat="43.3505883" lon="11.9250983"><ele>342.0</ele><time>2026-04-06T08:44:42.909Z</time></trkpt><trkpt lat="43.3504817" lon="11.9251567"><ele>342.0</ele><time>2026-04-06T08:44:44.918Z</time></trkpt><trkpt lat="43.350385" lon="11.925225"><ele>340.5</ele><time>2026-04-06T08:44:46.911Z</time></trkpt><trkpt lat="43.3502833" lon="11.9253283"><ele>339.0</ele><time>2026-04-06T08:44:48.909Z</time></trkpt><trkpt lat="43.3502233" lon="11.9253867"><ele>337.5</ele><time>2026-04-06T08:44:49.915Z</time></trkpt><trkpt lat="43.350165" lon="11.92544"><ele>336.0</ele><time>2026-04-06T08:44:50.906Z</time></trkpt><trkpt lat="43.3501067" lon="11.9254883"><ele>334.5</ele><time>2026-04-06T08:44:51.906Z</time></trkpt><trkpt lat="43.3500367" lon="11.9255317"><ele>333.0</ele><time>2026-04-06T08:44:52.914Z</time></trkpt><trkpt lat="43.34997" lon="11.9255733"><ele>333.0</ele><time>2026-04-06T08:44:53.909Z</time></trkpt><trkpt lat="43.3499067" lon="11.9256067"><ele>333.0</ele><time>2026-04-06T08:44:54.919Z</time></trkpt><trkpt lat="43.3498417" lon="11.9256367"><ele>333.0</ele><time>2026-04-06T08:44:55.909Z</time></trkpt><trkpt lat="43.349775" lon="11.92566"><ele>333.0</ele><time>2026-04-06T08:44:56.909Z</time></trkpt><trkpt lat="43.34971" lon="11.9256917"><ele>333.0</ele><time>2026-04-06T08:44:57.904Z</time></trkpt><trkpt lat="43.3496467" lon="11.92572"><ele>333.0</ele><time>2026-04-06T08:44:58.908Z</time></trkpt><trkpt lat="43.34958" lon="11.925745"><ele>333.0</ele><time>2026-04-06T08:44:59.903Z</time></trkpt><trkpt lat="43.3495183" lon="11.9257733"><ele>333.3333333333333</ele><time>2026-04-06T08:45:00.909Z</time></trkpt><trkpt lat="43.3493983" lon="11.9258083"><ele>333.6666666666667</ele><time>2026-04-06T08:45:02.912Z</time></trkpt><trkpt lat="43.3493333" lon="11.92582"><ele>334.0</ele><time>2026-04-06T08:45:03.9Z</time></trkpt><trkpt lat="43.3492683" lon="11.9258183"><ele>334.33333333333337</ele><time>2026-04-06T08:45:04.908Z</time></trkpt><trkpt lat="43.349205" lon="11.9258133"><ele>334.6666666666667</ele><time>2026-04-06T08:45:05.906Z</time></trkpt><trkpt lat="43.3491367" lon="11.925805"><ele>335.0</ele><time>2026-04-06T08:45:06.916Z</time></trkpt><trkpt lat="43.3490683" lon="11.92579"><ele>335.0</ele><time>2026-04-06T08:45:07.908Z</time></trkpt><trkpt lat="43.3490017" lon="11.92576"><ele>335.0</ele><time>2026-04-06T08:45:08.91Z</time></trkpt><trkpt lat="43.34894" lon="11.9257217"><ele>335.0</ele><time>2026-04-06T08:45:09.919Z</time></trkpt><trkpt lat="43.3488867" lon="11.9256683"><ele>335.0</ele><time>2026-04-06T08:45:10.908Z</time></trkpt><trkpt lat="43.3488367" lon="11.9256133"><ele>335.0</ele><time>2026-04-06T08:45:11.911Z</time></trkpt><trkpt lat="43.34879" lon="11.9255517"><ele>335.0</ele><time>2026-04-06T08:45:12.903Z</time></trkpt><trkpt lat="43.3487283" lon="11.9254083"><ele>335.25</ele><time>2026-04-06T08:45:14.904Z</time></trkpt><trkpt lat="43.3486783" lon="11.9252567"><ele>335.5</ele><time>2026-04-06T08:45:16.9Z</time></trkpt><trkpt lat="43.348635" lon="11.9251133"><ele>335.75</ele><time>2026-04-06T08:45:18.908Z</time></trkpt><trkpt lat="43.3485633" lon="11.9250083"><ele>336.0</ele><time>2026-04-06T08:45:20.902Z</time></trkpt><trkpt lat="43.3484533" lon="11.9249533"><ele>336.0</ele><time>2026-04-06T08:45:22.905Z</time></trkpt><trkpt lat="43.3483267" lon="11.924955"><ele>336.0</ele><time>2026-04-06T08:45:24.907Z</time></trkpt><trkpt lat="43.3482633" lon="11.9249633"><ele>336.0</ele><time>2026-04-06T08:45:25.902Z</time></trkpt><trkpt lat="43.348195" lon="11.9249733"><ele>336.0</ele><time>2026-04-06T08:45:26.911Z</time></trkpt><trkpt lat="43.34813" lon="11.924985"><ele>336.0</ele><time>2026-04-06T08:45:27.925Z</time></trkpt><trkpt lat="43.3480117" lon="11.9250333"><ele>336.0</ele><time>2026-04-06T08:45:29.917Z</time></trkpt><trkpt lat="43.3478933" lon="11.9251017"><ele>333.7142857142857</ele><time>2026-04-06T08:45:31.907Z</time></trkpt><trkpt lat="43.3478333" lon="11.9251467"><ele>331.42857142857144</ele><time>2026-04-06T08:45:32.919Z</time></trkpt><trkpt lat="43.3477767" lon="11.9252017"><ele>329.1428571428571</ele><time>2026-04-06T08:45:33.904Z</time></trkpt><trkpt lat="43.3477183" lon="11.9252633"><ele>326.8571428571429</ele><time>2026-04-06T08:45:34.906Z</time></trkpt><trkpt lat="43.34766" lon="11.92532"><ele>324.57142857142856</ele><time>2026-04-06T08:45:35.907Z</time></trkpt><trkpt lat="43.347605" lon="11.9253817"><ele>322.2857142857143</ele><time>2026-04-06T08:45:36.903Z</time></trkpt><trkpt lat="43.3475483" lon="11.925425"><ele>320.0</ele><time>2026-04-06T08:45:37.907Z</time></trkpt><trkpt lat="43.3474233" lon="11.92546"><ele>320.0</ele><time>2026-04-06T08:45:39.903Z</time></trkpt><trkpt lat="43.3473417" lon="11.9254683"><ele>320.0</ele><time>2026-04-06T08:45:40.917Z</time></trkpt><trkpt lat="43.34727" lon="11.9254683"><ele>320.0</ele><time>2026-04-06T08:45:41.914Z</time></trkpt><trkpt lat="43.347195" lon="11.9254517"><ele>320.0</ele><time>2026-04-06T08:45:42.908Z</time></trkpt><trkpt lat="43.3471233" lon="11.9254283"><ele>320.0</ele><time>2026-04-06T08:45:43.912Z</time></trkpt><trkpt lat="43.3470567" lon="11.9254017"><ele>320.0</ele><time>2026-04-06T08:45:44.911Z</time></trkpt><trkpt lat="43.3469883" lon="11.92537"><ele>320.0</ele><time>2026-04-06T08:45:45.91Z</time></trkpt><trkpt lat="43.3469167" lon="11.9253367"><ele>319.1428571428571</ele><time>2026-04-06T08:45:46.907Z</time></trkpt><trkpt lat="43.346855" lon="11.9253"><ele>318.2857142857143</ele><time>2026-04-06T08:45:47.909Z</time></trkpt><trkpt lat="43.3467817" lon="11.9252617"><ele>317.42857142857144</ele><time>2026-04-06T08:45:48.907Z</time></trkpt><trkpt lat="43.3467117" lon="11.9252233"><ele>316.57142857142856</ele><time>2026-04-06T08:45:49.91Z</time></trkpt><trkpt lat="43.3466517" lon="11.92518"><ele>315.7142857142857</ele><time>2026-04-06T08:45:50.9Z</time></trkpt><trkpt lat="43.3465917" lon="11.925135"><ele>314.85714285714283</ele><time>2026-04-06T08:45:51.912Z</time></trkpt><trkpt lat="43.3465333" lon="11.9250967"><ele>314.0</ele><time>2026-04-06T08:45:52.911Z</time></trkpt><trkpt lat="43.34648" lon="11.9250483"><ele>314.59999999999997</ele><time>2026-04-06T08:45:53.906Z</time></trkpt><trkpt lat="43.346375" lon="11.9249717"><ele>315.2</ele><time>2026-04-06T08:45:55.903Z</time></trkpt><trkpt lat="43.3462667" lon="11.9249083"><ele>315.79999999999995</ele><time>2026-04-06T08:45:57.906Z</time></trkpt><trkpt lat="43.346205" lon="11.924875"><ele>316.4</ele><time>2026-04-06T08:45:58.901Z</time></trkpt><trkpt lat="43.3460967" lon="11.9248083"><ele>317.0</ele><time>2026-04-06T08:46:00.91Z</time></trkpt><trkpt lat="43.346" lon="11.924725"><ele>317.0</ele><time>2026-04-06T08:46:02.901Z</time></trkpt><trkpt lat="43.3459033" lon="11.9246483"><ele>317.0</ele><time>2026-04-06T08:46:04.906Z</time></trkpt><trkpt lat="43.3458183" lon="11.924565"><ele>317.0</ele><time>2026-04-06T08:46:06.912Z</time></trkpt><trkpt lat="43.345735" lon="11.9244717"><ele>317.0</ele><time>2026-04-06T08:46:08.922Z</time></trkpt><trkpt lat="43.3456433" lon="11.9243733"><ele>317.0</ele><time>2026-04-06T08:46:10.91Z</time></trkpt><trkpt lat="43.345555" lon="11.9242783"><ele>317.2</ele><time>2026-04-06T08:46:12.911Z</time></trkpt><trkpt lat="43.3454667" lon="11.9241883"><ele>317.4</ele><time>2026-04-06T08:46:14.905Z</time></trkpt><trkpt lat="43.3453883" lon="11.9240933"><ele>317.6</ele><time>2026-04-06T08:46:16.909Z</time></trkpt><trkpt lat="43.345315" lon="11.924"><ele>317.8</ele><time>2026-04-06T08:46:18.912Z</time></trkpt><trkpt lat="43.3452483" lon="11.9239067"><ele>318.0</ele><time>2026-04-06T08:46:20.912Z</time></trkpt><trkpt lat="43.3451767" lon="11.923815"><ele>318.0</ele><time>2026-04-06T08:46:22.909Z</time></trkpt><trkpt lat="43.345095" lon="11.9237133"><ele>318.0</ele><time>2026-04-06T08:46:24.915Z</time></trkpt><trkpt lat="43.3450317" lon="11.9236083"><ele>318.0</ele><time>2026-04-06T08:46:26.913Z</time></trkpt><trkpt lat="43.3449667" lon="11.9234983"><ele>318.0</ele><time>2026-04-06T08:46:28.908Z</time></trkpt><trkpt lat="43.3449083" lon="11.9233917"><ele>318.0</ele><time>2026-04-06T08:46:30.905Z</time></trkpt><trkpt lat="43.3448633" lon="11.9233033"><ele>318.3333333333333</ele><time>2026-04-06T08:46:32.904Z</time></trkpt><trkpt lat="43.3448183" lon="11.923215"><ele>318.6666666666667</ele><time>2026-04-06T08:46:34.91Z</time></trkpt><trkpt lat="43.3447717" lon="11.92313"><ele>319.0</ele><time>2026-04-06T08:46:36.903Z</time></trkpt><trkpt lat="43.3447217" lon="11.9230417"><ele>319.33333333333337</ele><time>2026-04-06T08:46:38.909Z</time></trkpt><trkpt lat="43.3446733" lon="11.922965"><ele>319.6666666666667</ele><time>2026-04-06T08:46:40.921Z</time></trkpt><trkpt lat="43.3446267" lon="11.9228783"><ele>320.0</ele><time>2026-04-06T08:46:42.909Z</time></trkpt><trkpt lat="43.344585" lon="11.9227983"><ele>320.0</ele><time>2026-04-06T08:46:44.905Z</time></trkpt><trkpt lat="43.3445167" lon="11.9227567"><ele>320.0</ele><time>2026-04-06T08:46:47.916Z</time></trkpt><trkpt lat="43.3444467" lon="11.9228133"><ele>320.0</ele><time>2026-04-06T08:46:50.906Z</time></trkpt><trkpt lat="43.3443867" lon="11.9228733"><ele>320.0</ele><time>2026-04-06T08:46:52.906Z</time></trkpt><trkpt lat="43.344335" lon="11.9229533"><ele>320.0</ele><time>2026-04-06T08:46:54.918Z</time></trkpt><trkpt lat="43.3442817" lon="11.9230133"><ele>320.0</ele><time>2026-04-06T08:46:56.909Z</time></trkpt><trkpt lat="43.3442183" lon="11.9230667"><ele>320.0</ele><time>2026-04-06T08:46:58.904Z</time></trkpt><trkpt lat="43.3441533" lon="11.9231133"><ele>320.0</ele><time>2026-04-06T08:47:00.908Z</time></trkpt><trkpt lat="43.3440817" lon="11.9231433"><ele>320.0</ele><time>2026-04-06T08:47:02.922Z</time></trkpt><trkpt lat="43.3440083" lon="11.9231817"><ele>320.0</ele><time>2026-04-06T08:47:04.913Z</time></trkpt><trkpt lat="43.3439417" lon="11.9232133"><ele>320.0</ele><time>2026-04-06T08:47:06.902Z</time></trkpt><trkpt lat="43.3438767" lon="11.9232567"><ele>320.0</ele><time>2026-04-06T08:47:08.906Z</time></trkpt><trkpt lat="43.3438367" lon="11.923345"><ele>320.0</ele><time>2026-04-06T08:47:10.904Z</time></trkpt><trkpt lat="43.3438283" lon="11.9234567"><ele>318.7142857142857</ele><time>2026-04-06T08:47:12.906Z</time></trkpt><trkpt lat="43.3438283" lon="11.9235617"><ele>317.42857142857144</ele><time>2026-04-06T08:47:14.907Z</time></trkpt><trkpt lat="43.3438367" lon="11.9236617"><ele>316.1428571428571</ele><time>2026-04-06T08:47:17.9Z</time></trkpt><trkpt lat="43.3438917" lon="11.9237083"><ele>314.8571428571429</ele><time>2026-04-06T08:47:21.922Z</time></trkpt><trkpt lat="43.3439467" lon="11.9236533"><ele>313.5714285714286</ele><time>2026-04-06T08:47:25.904Z</time></trkpt><trkpt lat="43.3440033" lon="11.92359"><ele>312.2857142857143</ele><time>2026-04-06T08:47:28.908Z</time></trkpt><trkpt lat="43.344065" lon="11.923525"><ele>311.0</ele><time>2026-04-06T08:47:30.906Z</time></trkpt><trkpt lat="43.3441483" lon="11.923475"><ele>310.0</ele><time>2026-04-06T08:47:32.912Z</time></trkpt><trkpt lat="43.3442367" lon="11.9234567"><ele>309.0</ele><time>2026-04-06T08:47:34.908Z</time></trkpt><trkpt lat="43.3443217" lon="11.92347"><ele>308.0</ele><time>2026-04-06T08:47:36.91Z</time></trkpt><trkpt lat="43.344405" lon="11.9235167"><ele>307.0</ele><time>2026-04-06T08:47:38.913Z</time></trkpt><trkpt lat="43.344485" lon="11.9235883"><ele>306.0</ele><time>2026-04-06T08:47:40.904Z</time></trkpt><trkpt lat="43.34455" lon="11.9236833"><ele>306.0</ele><time>2026-04-06T08:47:42.905Z</time></trkpt><trkpt lat="43.3446" lon="11.9237967"><ele>306.0</ele><time>2026-04-06T08:47:44.901Z</time></trkpt><trkpt lat="43.3446033" lon="11.9239383"><ele>306.0</ele><time>2026-04-06T08:47:46.905Z</time></trkpt><trkpt lat="43.3445483" lon="11.9240683"><ele>306.0</ele><time>2026-04-06T08:47:48.911Z</time></trkpt><trkpt lat="43.3444933" lon="11.9241233"><ele>306.0</ele><time>2026-04-06T08:47:49.913Z</time></trkpt><trkpt lat="43.3444267" lon="11.924165"><ele>306.0</ele><time>2026-04-06T08:47:50.919Z</time></trkpt><trkpt lat="43.3443517" lon="11.9242067"><ele>306.0</ele><time>2026-04-06T08:47:51.904Z</time></trkpt><trkpt lat="43.3442733" lon="11.9242417"><ele>306.0</ele><time>2026-04-06T08:47:52.907Z</time></trkpt><trkpt lat="43.34419" lon="11.9242733"><ele>306.0</ele><time>2026-04-06T08:47:53.91Z</time></trkpt><trkpt lat="43.3440967" lon="11.92431"><ele>306.0</ele><time>2026-04-06T08:47:54.92Z</time></trkpt><trkpt lat="43.3440083" lon="11.9243417"><ele>306.0</ele><time>2026-04-06T08:47:55.923Z</time></trkpt><trkpt lat="43.3439183" lon="11.9243783"><ele>302.8</ele><time>2026-04-06T08:47:56.911Z</time></trkpt><trkpt lat="43.3438233" lon="11.9244133"><ele>299.6</ele><time>2026-04-06T08:47:57.909Z</time></trkpt><trkpt lat="43.3437267" lon="11.9244467"><ele>296.4</ele><time>2026-04-06T08:47:58.908Z</time></trkpt><trkpt lat="43.3436317" lon="11.9244833"><ele>293.2</ele><time>2026-04-06T08:47:59.904Z</time></trkpt><trkpt lat="43.343545" lon="11.9245133"><ele>290.0</ele><time>2026-04-06T08:48:00.913Z</time></trkpt><trkpt lat="43.3434533" lon="11.9245367"><ele>290.0</ele><time>2026-04-06T08:48:01.906Z</time></trkpt><trkpt lat="43.343365" lon="11.9245617"><ele>290.0</ele><time>2026-04-06T08:48:02.913Z</time></trkpt><trkpt lat="43.34328" lon="11.924595"><ele>290.0</ele><time>2026-04-06T08:48:03.916Z</time></trkpt><trkpt lat="43.3431967" lon="11.9246283"><ele>290.0</ele><time>2026-04-06T08:48:04.912Z</time></trkpt><trkpt lat="43.3431133" lon="11.924655"><ele>290.0</ele><time>2026-04-06T08:48:05.91Z</time></trkpt><trkpt lat="43.3430283" lon="11.924685"><ele>290.0</ele><time>2026-04-06T08:48:06.918Z</time></trkpt><trkpt lat="43.34295" lon="11.9247167"><ele>290.33333333333337</ele><time>2026-04-06T08:48:07.905Z</time></trkpt><trkpt lat="43.34287" lon="11.9247517"><ele>290.6666666666667</ele><time>2026-04-06T08:48:08.908Z</time></trkpt><trkpt lat="43.3427967" lon="11.9247933"><ele>291.0</ele><time>2026-04-06T08:48:09.909Z</time></trkpt><trkpt lat="43.3427267" lon="11.92484"><ele>291.3333333333333</ele><time>2026-04-06T08:48:10.909Z</time></trkpt><trkpt lat="43.34266" lon="11.9249033"><ele>291.66666666666663</ele><time>2026-04-06T08:48:11.905Z</time></trkpt><trkpt lat="43.3426017" lon="11.9249717"><ele>292.0</ele><time>2026-04-06T08:48:12.912Z</time></trkpt><trkpt lat="43.34255" lon="11.9250567"><ele>290.0</ele><time>2026-04-06T08:48:13.909Z</time></trkpt><trkpt lat="43.3425033" lon="11.9251533"><ele>288.0</ele><time>2026-04-06T08:48:14.908Z</time></trkpt><trkpt lat="43.34247" lon="11.9252567"><ele>286.0</ele><time>2026-04-06T08:48:15.907Z</time></trkpt><trkpt lat="43.34244" lon="11.9253633"><ele>284.0</ele><time>2026-04-06T08:48:16.914Z</time></trkpt><trkpt lat="43.342415" lon="11.925465"><ele>282.0</ele><time>2026-04-06T08:48:17.917Z</time></trkpt><trkpt lat="43.34239" lon="11.9255667"><ele>280.0</ele><time>2026-04-06T08:48:18.91Z</time></trkpt><trkpt lat="43.3423667" lon="11.9256783"><ele>280.0</ele><time>2026-04-06T08:48:19.909Z</time></trkpt><trkpt lat="43.3423417" lon="11.9257883"><ele>280.0</ele><time>2026-04-06T08:48:20.909Z</time></trkpt><trkpt lat="43.3423133" lon="11.9258883"><ele>280.0</ele><time>2026-04-06T08:48:21.904Z</time></trkpt><trkpt lat="43.3422867" lon="11.9259867"><ele>280.0</ele><time>2026-04-06T08:48:22.904Z</time></trkpt><trkpt lat="43.3422667" lon="11.9260817"><ele>280.0</ele><time>2026-04-06T08:48:23.909Z</time></trkpt><trkpt lat="43.3422467" lon="11.9261733"><ele>280.0</ele><time>2026-04-06T08:48:24.91Z</time></trkpt><trkpt lat="43.34223" lon="11.926265"><ele>280.0</ele><time>2026-04-06T08:48:25.907Z</time></trkpt><trkpt lat="43.3421983" lon="11.92642"><ele>279.4</ele><time>2026-04-06T08:48:27.905Z</time></trkpt><trkpt lat="43.3421817" lon="11.9265717"><ele>278.8</ele><time>2026-04-06T08:48:29.912Z</time></trkpt><trkpt lat="43.3421917" lon="11.9267217"><ele>278.2</ele><time>2026-04-06T08:48:31.903Z</time></trkpt><trkpt lat="43.34224" lon="11.9268717"><ele>277.6</ele><time>2026-04-06T08:48:33.905Z</time></trkpt><trkpt lat="43.3422733" lon="11.9269517"><ele>277.0</ele><time>2026-04-06T08:48:34.911Z</time></trkpt><trkpt lat="43.3423583" lon="11.92709"><ele>276.3333333333333</ele><time>2026-04-06T08:48:36.915Z</time></trkpt><trkpt lat="43.3424117" lon="11.9271667"><ele>275.66666666666663</ele><time>2026-04-06T08:48:37.911Z</time></trkpt><trkpt lat="43.342465" lon="11.9272517"><ele>275.0</ele><time>2026-04-06T08:48:38.903Z</time></trkpt><trkpt lat="43.34252" lon="11.9273383"><ele>274.3333333333333</ele><time>2026-04-06T08:48:39.909Z</time></trkpt><trkpt lat="43.342575" lon="11.9274283"><ele>273.6666666666667</ele><time>2026-04-06T08:48:40.907Z</time></trkpt><trkpt lat="43.3426317" lon="11.9275133"><ele>273.0</ele><time>2026-04-06T08:48:41.908Z</time></trkpt><trkpt lat="43.3426883" lon="11.9275933"><ele>272.1666666666667</ele><time>2026-04-06T08:48:42.913Z</time></trkpt><trkpt lat="43.34275" lon="11.9276817"><ele>271.3333333333333</ele><time>2026-04-06T08:48:43.919Z</time></trkpt><trkpt lat="43.342805" lon="11.927775"><ele>270.5</ele><time>2026-04-06T08:48:44.917Z</time></trkpt><trkpt lat="43.3428633" lon="11.9278667"><ele>269.66666666666663</ele><time>2026-04-06T08:48:45.908Z</time></trkpt><trkpt lat="43.34292" lon="11.927965"><ele>268.8333333333333</ele><time>2026-04-06T08:48:46.906Z</time></trkpt><trkpt lat="43.3429767" lon="11.928055"><ele>268.0</ele><time>2026-04-06T08:48:47.902Z</time></trkpt><trkpt lat="43.343025" lon="11.9281467"><ele>268.16666666666663</ele><time>2026-04-06T08:48:48.908Z</time></trkpt><trkpt lat="43.3430783" lon="11.9282367"><ele>268.3333333333333</ele><time>2026-04-06T08:48:49.912Z</time></trkpt><trkpt lat="43.343135" lon="11.9283233"><ele>268.5</ele><time>2026-04-06T08:48:50.913Z</time></trkpt><trkpt lat="43.343185" lon="11.9284017"><ele>268.6666666666667</ele><time>2026-04-06T08:48:51.915Z</time></trkpt><trkpt lat="43.3432367" lon="11.9284817"><ele>268.83333333333337</ele><time>2026-04-06T08:48:52.926Z</time></trkpt><trkpt lat="43.34329" lon="11.9285567"><ele>269.0</ele><time>2026-04-06T08:48:53.902Z</time></trkpt><trkpt lat="43.3433383" lon="11.928625"><ele>269.0</ele><time>2026-04-06T08:48:54.908Z</time></trkpt><trkpt lat="43.3434183" lon="11.9287533"><ele>269.0</ele><time>2026-04-06T08:48:56.916Z</time></trkpt><trkpt lat="43.3434583" lon="11.9288217"><ele>269.0</ele><time>2026-04-06T08:48:57.911Z</time></trkpt><trkpt lat="43.3435033" lon="11.928895"><ele>269.0</ele><time>2026-04-06T08:48:58.908Z</time></trkpt><trkpt lat="43.343585" lon="11.929015"><ele>269.0</ele><time>2026-04-06T08:49:00.91Z</time></trkpt><trkpt lat="43.3436567" lon="11.9291417"><ele>269.0</ele><time>2026-04-06T08:49:02.921Z</time></trkpt><trkpt lat="43.343725" lon="11.9292533"><ele>269.0</ele><time>2026-04-06T08:49:04.934Z</time></trkpt><trkpt lat="43.34377" lon="11.9293567"><ele>269.0</ele><time>2026-04-06T08:49:06.909Z</time></trkpt><trkpt lat="43.34381" lon="11.9294267"><ele>269.0</ele><time>2026-04-06T08:49:30.907Z</time></trkpt><trkpt lat="43.3438617" lon="11.9295167"><ele>269.0</ele><time>2026-04-06T08:49:34.907Z</time></trkpt><trkpt lat="43.3439" lon="11.9296017"><ele>269.0</ele><time>2026-04-06T08:49:36.909Z</time></trkpt><trkpt lat="43.343945" lon="11.92971"><ele>269.33333333333337</ele><time>2026-04-06T08:49:38.913Z</time></trkpt><trkpt lat="43.3439867" lon="11.929805"><ele>269.6666666666667</ele><time>2026-04-06T08:49:40.914Z</time></trkpt><trkpt lat="43.3440233" lon="11.9298933"><ele>270.0</ele><time>2026-04-06T08:49:42.909Z</time></trkpt><trkpt lat="43.3440767" lon="11.9299983"><ele>270.3333333333333</ele><time>2026-04-06T08:49:45.923Z</time></trkpt><trkpt lat="43.3441217" lon="11.9301017"><ele>270.66666666666663</ele><time>2026-04-06T08:49:48.917Z</time></trkpt><trkpt lat="43.34416" lon="11.9302"><ele>271.0</ele><time>2026-04-06T08:49:51.91Z</time></trkpt><trkpt lat="43.344185" lon="11.9303083"><ele>271.16666666666663</ele><time>2026-04-06T08:49:54.91Z</time></trkpt><trkpt lat="43.3442033" lon="11.930415"><ele>271.3333333333333</ele><time>2026-04-06T08:49:58.913Z</time></trkpt><trkpt lat="43.344185" lon="11.9305183"><ele>271.5</ele><time>2026-04-06T08:50:01.899Z</time></trkpt><trkpt lat="43.3441467" lon="11.93063"><ele>271.6666666666667</ele><time>2026-04-06T08:50:04.898Z</time></trkpt><trkpt lat="43.34411" lon="11.9307067"><ele>271.83333333333337</ele><time>2026-04-06T08:50:06.909Z</time></trkpt><trkpt lat="43.3440533" lon="11.9307917"><ele>272.0</ele><time>2026-04-06T08:50:09.906Z</time></trkpt><trkpt lat="43.344005" lon="11.9308767"><ele>272.0</ele><time>2026-04-06T08:50:12.904Z</time></trkpt><trkpt lat="43.34396" lon="11.9309617"><ele>272.0</ele><time>2026-04-06T08:50:14.898Z</time></trkpt><trkpt lat="43.343915" lon="11.93106"><ele>272.0</ele><time>2026-04-06T08:50:16.91Z</time></trkpt><trkpt lat="43.343875" lon="11.9311833"><ele>272.0</ele><time>2026-04-06T08:50:18.899Z</time></trkpt><trkpt lat="43.3438383" lon="11.93131"><ele>272.0</ele><time>2026-04-06T08:50:20.91Z</time></trkpt><trkpt lat="43.3438083" lon="11.93145"><ele>271.0</ele><time>2026-04-06T08:50:22.915Z</time></trkpt><trkpt lat="43.3437883" lon="11.9316117"><ele>270.0</ele><time>2026-04-06T08:50:24.904Z</time></trkpt><trkpt lat="43.3437767" lon="11.9317717"><ele>269.0</ele><time>2026-04-06T08:50:26.909Z</time></trkpt><trkpt lat="43.3437533" lon="11.9319383"><ele>268.0</ele><time>2026-04-06T08:50:28.902Z</time></trkpt><trkpt lat="43.3437333" lon="11.9320983"><ele>267.8</ele><time>2026-04-06T08:50:30.908Z</time></trkpt><trkpt lat="43.34372" lon="11.93226"><ele>267.6</ele><time>2026-04-06T08:50:32.919Z</time></trkpt><trkpt lat="43.34371" lon="11.9324167"><ele>267.4</ele><time>2026-04-06T08:50:34.904Z</time></trkpt><trkpt lat="43.3437117" lon="11.9325633"><ele>267.2</ele><time>2026-04-06T08:50:36.912Z</time></trkpt><trkpt lat="43.343715" lon="11.9327083"><ele>267.0</ele><time>2026-04-06T08:50:38.918Z</time></trkpt><trkpt lat="43.3437233" lon="11.932845"><ele>266.8</ele><time>2026-04-06T08:50:40.911Z</time></trkpt><trkpt lat="43.343745" lon="11.93297"><ele>266.6</ele><time>2026-04-06T08:50:42.906Z</time></trkpt><trkpt lat="43.3437567" lon="11.933095"><ele>266.40000000000003</ele><time>2026-04-06T08:50:44.919Z</time></trkpt><trkpt lat="43.3437717" lon="11.9332167"><ele>266.2</ele><time>2026-04-06T08:50:46.904Z</time></trkpt><trkpt lat="43.3437833" lon="11.9333417"><ele>266.0</ele><time>2026-04-06T08:50:48.909Z</time></trkpt><trkpt lat="43.3437917" lon="11.93346"><ele>266.0</ele><time>2026-04-06T08:50:50.902Z</time></trkpt><trkpt lat="43.3438033" lon="11.9335967"><ele>266.0</ele><time>2026-04-06T08:50:52.902Z</time></trkpt><trkpt lat="43.3438083" lon="11.9337267"><ele>266.0</ele><time>2026-04-06T08:50:54.904Z</time></trkpt><trkpt lat="43.3438083" lon="11.9338533"><ele>266.0</ele><time>2026-04-06T08:50:56.909Z</time></trkpt><trkpt lat="43.343805" lon="11.9339817"><ele>266.0</ele><time>2026-04-06T08:50:58.911Z</time></trkpt><trkpt lat="43.3437983" lon="11.9341033"><ele>266.2</ele><time>2026-04-06T08:51:00.904Z</time></trkpt><trkpt lat="43.343785" lon="11.93423"><ele>266.40000000000003</ele><time>2026-04-06T08:51:02.912Z</time></trkpt><trkpt lat="43.3437683" lon="11.9343583"><ele>266.6</ele><time>2026-04-06T08:51:04.913Z</time></trkpt><trkpt lat="43.34375" lon="11.9344883"><ele>266.8</ele><time>2026-04-06T08:51:06.906Z</time></trkpt><trkpt lat="43.3437283" lon="11.93461"><ele>267.0</ele><time>2026-04-06T08:51:08.901Z</time></trkpt><trkpt lat="43.3437133" lon="11.9347317"><ele>267.0</ele><time>2026-04-06T08:51:10.904Z</time></trkpt><trkpt lat="43.3437" lon="11.9348333"><ele>267.0</ele><time>2026-04-06T08:51:12.91Z</time></trkpt><trkpt lat="43.3436717" lon="11.9349533"><ele>267.0</ele><time>2026-04-06T08:51:14.905Z</time></trkpt><trkpt lat="43.3436567" lon="11.9350767"><ele>267.0</ele><time>2026-04-06T08:51:16.921Z</time></trkpt><trkpt lat="43.3436433" lon="11.9352017"><ele>267.0</ele><time>2026-04-06T08:51:18.904Z</time></trkpt><trkpt lat="43.343635" lon="11.9353333"><ele>267.0</ele><time>2026-04-06T08:51:20.903Z</time></trkpt><trkpt lat="43.343615" lon="11.935455"><ele>267.6</ele><time>2026-04-06T08:51:22.909Z</time></trkpt><trkpt lat="43.3435667" lon="11.93555"><ele>268.2</ele><time>2026-04-06T08:51:24.911Z</time></trkpt><trkpt lat="43.343485" lon="11.9355983"><ele>268.8</ele><time>2026-04-06T08:51:26.91Z</time></trkpt><trkpt lat="43.3433933" lon="11.9356433"><ele>269.4</ele><time>2026-04-06T08:51:28.904Z</time></trkpt><trkpt lat="43.343305" lon="11.935685"><ele>270.0</ele><time>2026-04-06T08:51:30.913Z</time></trkpt><trkpt lat="43.343205" lon="11.93572"><ele>270.0</ele><time>2026-04-06T08:51:32.907Z</time></trkpt><trkpt lat="43.34311" lon="11.9357433"><ele>270.0</ele><time>2026-04-06T08:51:34.916Z</time></trkpt><trkpt lat="43.3430117" lon="11.93576"><ele>270.0</ele><time>2026-04-06T08:51:36.905Z</time></trkpt><trkpt lat="43.3429067" lon="11.935745"><ele>270.0</ele><time>2026-04-06T08:51:38.915Z</time></trkpt><trkpt lat="43.34282" lon="11.9357133"><ele>270.0</ele><time>2026-04-06T08:51:40.912Z</time></trkpt><trkpt lat="43.3427417" lon="11.9357617"><ele>269.2</ele><time>2026-04-06T08:51:42.901Z</time></trkpt><trkpt lat="43.3426867" lon="11.9358517"><ele>268.4</ele><time>2026-04-06T08:51:44.898Z</time></trkpt><trkpt lat="43.3426567" lon="11.93597"><ele>267.6</ele><time>2026-04-06T08:51:46.902Z</time></trkpt><trkpt lat="43.34264" lon="11.9361167"><ele>266.8</ele><time>2026-04-06T08:51:48.907Z</time></trkpt><trkpt lat="43.342625" lon="11.9362583"><ele>266.0</ele><time>2026-04-06T08:51:50.906Z</time></trkpt><trkpt lat="43.3426183" lon="11.9364033"><ele>266.0</ele><time>2026-04-06T08:51:52.904Z</time></trkpt><trkpt lat="43.3425933" lon="11.9365567"><ele>266.0</ele><time>2026-04-06T08:51:54.913Z</time></trkpt><trkpt lat="43.34256" lon="11.9366967"><ele>266.0</ele><time>2026-04-06T08:51:56.916Z</time></trkpt><trkpt lat="43.3425183" lon="11.9368367"><ele>266.0</ele><time>2026-04-06T08:51:58.904Z</time></trkpt><trkpt lat="43.34247" lon="11.9369833"><ele>266.0</ele><time>2026-04-06T08:52:00.904Z</time></trkpt><trkpt lat="43.3424283" lon="11.9371183"><ele>265.8</ele><time>2026-04-06T08:52:02.912Z</time></trkpt><trkpt lat="43.34241" lon="11.9372017"><ele>265.6</ele><time>2026-04-06T08:52:03.91Z</time></trkpt><trkpt lat="43.34236" lon="11.9373417"><ele>265.4</ele><time>2026-04-06T08:52:05.909Z</time></trkpt><trkpt lat="43.3423183" lon="11.9374767"><ele>265.2</ele><time>2026-04-06T08:52:07.91Z</time></trkpt><trkpt lat="43.342275" lon="11.9376267"><ele>265.0</ele><time>2026-04-06T08:52:09.893Z</time></trkpt><trkpt lat="43.3422383" lon="11.937775"><ele>264.8</ele><time>2026-04-06T08:52:11.906Z</time></trkpt><trkpt lat="43.342215" lon="11.93792"><ele>264.6</ele><time>2026-04-06T08:52:13.9Z</time></trkpt><trkpt lat="43.3421983" lon="11.9380667"><ele>264.4</ele><time>2026-04-06T08:52:15.913Z</time></trkpt><trkpt lat="43.3421867" lon="11.9382117"><ele>264.2</ele><time>2026-04-06T08:52:17.909Z</time></trkpt><trkpt lat="43.34217" lon="11.9383467"><ele>264.0</ele><time>2026-04-06T08:52:19.91Z</time></trkpt><trkpt lat="43.342155" lon="11.93849"><ele>263.8333333333333</ele><time>2026-04-06T08:52:21.923Z</time></trkpt><trkpt lat="43.34213" lon="11.938625"><ele>263.6666666666667</ele><time>2026-04-06T08:52:23.915Z</time></trkpt><trkpt lat="43.342105" lon="11.9387483"><ele>263.5</ele><time>2026-04-06T08:52:25.917Z</time></trkpt><trkpt lat="43.3420767" lon="11.9388567"><ele>263.33333333333337</ele><time>2026-04-06T08:52:27.922Z</time></trkpt><trkpt lat="43.3420417" lon="11.9389583"><ele>263.1666666666667</ele><time>2026-04-06T08:52:29.917Z</time></trkpt><trkpt lat="43.3420133" lon="11.939065"><ele>263.0</ele><time>2026-04-06T08:52:31.9Z</time></trkpt><trkpt lat="43.3419767" lon="11.9391783"><ele>263.4</ele><time>2026-04-06T08:52:33.912Z</time></trkpt><trkpt lat="43.3419267" lon="11.939295"><ele>263.8</ele><time>2026-04-06T08:52:35.921Z</time></trkpt><trkpt lat="43.3418617" lon="11.9394083"><ele>264.2</ele><time>2026-04-06T08:52:37.898Z</time></trkpt><trkpt lat="43.3417983" lon="11.9395183"><ele>264.6</ele><time>2026-04-06T08:52:39.906Z</time></trkpt><trkpt lat="43.3417417" lon="11.939615"><ele>265.0</ele><time>2026-04-06T08:52:41.907Z</time></trkpt><trkpt lat="43.341685" lon="11.9396933"><ele>265.0</ele><time>2026-04-06T08:52:43.897Z</time></trkpt><trkpt lat="43.341635" lon="11.9397733"><ele>265.0</ele><time>2026-04-06T08:52:45.906Z</time></trkpt><trkpt lat="43.3415983" lon="11.939865"><ele>265.0</ele><time>2026-04-06T08:52:47.908Z</time></trkpt><trkpt lat="43.3415717" lon="11.9399533"><ele>265.0</ele><time>2026-04-06T08:52:49.904Z</time></trkpt><trkpt lat="43.34155" lon="11.9400583"><ele>265.0</ele><time>2026-04-06T08:52:51.903Z</time></trkpt><trkpt lat="43.3415283" lon="11.9401617"><ele>265.0</ele><time>2026-04-06T08:52:53.918Z</time></trkpt><trkpt lat="43.3415" lon="11.9402817"><ele>265.0</ele><time>2026-04-06T08:52:55.898Z</time></trkpt><trkpt lat="43.3414683" lon="11.9404383"><ele>265.0</ele><time>2026-04-06T08:52:57.903Z</time></trkpt><trkpt lat="43.341445" lon="11.9406133"><ele>265.0</ele><time>2026-04-06T08:52:59.908Z</time></trkpt><trkpt lat="43.3414367" lon="11.9407067"><ele>265.0</ele><time>2026-04-06T08:53:00.904Z</time></trkpt><trkpt lat="43.3414317" lon="11.940805"><ele>265.0</ele><time>2026-04-06T08:53:01.91Z</time></trkpt><trkpt lat="43.341425" lon="11.9409"><ele>264.8</ele><time>2026-04-06T08:53:02.906Z</time></trkpt><trkpt lat="43.3414217" lon="11.9409883"><ele>264.6</ele><time>2026-04-06T08:53:03.91Z</time></trkpt><trkpt lat="43.3414133" lon="11.941165"><ele>264.4</ele><time>2026-04-06T08:53:05.919Z</time></trkpt><trkpt lat="43.3414017" lon="11.9413183"><ele>264.2</ele><time>2026-04-06T08:53:07.91Z</time></trkpt><trkpt lat="43.341395" lon="11.9414333"><ele>264.0</ele><time>2026-04-06T08:53:09.901Z</time></trkpt><trkpt lat="43.3413883" lon="11.9415367"><ele>263.8</ele><time>2026-04-06T08:53:11.908Z</time></trkpt><trkpt lat="43.34137" lon="11.94163"><ele>263.59999999999997</ele><time>2026-04-06T08:53:13.905Z</time></trkpt><trkpt lat="43.341345" lon="11.9417317"><ele>263.4</ele><time>2026-04-06T08:53:15.906Z</time></trkpt><trkpt lat="43.3413067" lon="11.9418483"><ele>263.2</ele><time>2026-04-06T08:53:17.908Z</time></trkpt><trkpt lat="43.3412633" lon="11.9419817"><ele>263.0</ele><time>2026-04-06T08:53:19.903Z</time></trkpt><trkpt lat="43.34122" lon="11.9421183"><ele>263.0</ele><time>2026-04-06T08:53:21.905Z</time></trkpt><trkpt lat="43.341175" lon="11.9422667"><ele>263.0</ele><time>2026-04-06T08:53:23.907Z</time></trkpt><trkpt lat="43.34113" lon="11.942415"><ele>263.0</ele><time>2026-04-06T08:53:25.906Z</time></trkpt><trkpt lat="43.3410817" lon="11.9425633"><ele>263.0</ele><time>2026-04-06T08:53:27.903Z</time></trkpt><trkpt lat="43.3410383" lon="11.9427083"><ele>263.0</ele><time>2026-04-06T08:53:29.907Z</time></trkpt><trkpt lat="43.3409983" lon="11.9428517"><ele>263.0</ele><time>2026-04-06T08:53:31.908Z</time></trkpt><trkpt lat="43.34095" lon="11.9429883"><ele>263.0</ele><time>2026-04-06T08:53:33.905Z</time></trkpt><trkpt lat="43.3408933" lon="11.943115"><ele>263.0</ele><time>2026-04-06T08:53:35.902Z</time></trkpt><trkpt lat="43.340825" lon="11.9432233"><ele>263.0</ele><time>2026-04-06T08:53:37.907Z</time></trkpt><trkpt lat="43.34075" lon="11.943315"><ele>262.8</ele><time>2026-04-06T08:53:39.907Z</time></trkpt><trkpt lat="43.3406617" lon="11.9433933"><ele>262.6</ele><time>2026-04-06T08:53:41.903Z</time></trkpt><trkpt lat="43.3405767" lon="11.943465"><ele>262.4</ele><time>2026-04-06T08:53:43.904Z</time></trkpt><trkpt lat="43.3405067" lon="11.9435617"><ele>262.2</ele><time>2026-04-06T08:53:45.896Z</time></trkpt><trkpt lat="43.3404333" lon="11.94366"><ele>262.0</ele><time>2026-04-06T08:53:47.913Z</time></trkpt><trkpt lat="43.3403767" lon="11.9437667"><ele>262.0</ele><time>2026-04-06T08:53:49.929Z</time></trkpt><trkpt lat="43.3403317" lon="11.9438967"><ele>262.0</ele><time>2026-04-06T08:53:51.904Z</time></trkpt><trkpt lat="43.3402983" lon="11.944035"><ele>262.0</ele><time>2026-04-06T08:53:53.908Z</time></trkpt><trkpt lat="43.34028" lon="11.9441683"><ele>262.0</ele><time>2026-04-06T08:53:55.907Z</time></trkpt><trkpt lat="43.3402517" lon="11.9443033"><ele>262.0</ele><time>2026-04-06T08:53:57.91Z</time></trkpt><trkpt lat="43.3402267" lon="11.9444433"><ele>262.2</ele><time>2026-04-06T08:53:59.906Z</time></trkpt><trkpt lat="43.3401967" lon="11.94459"><ele>262.4</ele><time>2026-04-06T08:54:01.904Z</time></trkpt><trkpt lat="43.3401533" lon="11.944725"><ele>262.6</ele><time>2026-04-06T08:54:03.907Z</time></trkpt><trkpt lat="43.34012" lon="11.94486"><ele>262.8</ele><time>2026-04-06T08:54:05.91Z</time></trkpt><trkpt lat="43.340085" lon="11.94499"><ele>263.0</ele><time>2026-04-06T08:54:07.903Z</time></trkpt><trkpt lat="43.34005" lon="11.94512"><ele>263.0</ele><time>2026-04-06T08:54:09.901Z</time></trkpt><trkpt lat="43.3400133" lon="11.9452567"><ele>263.0</ele><time>2026-04-06T08:54:11.9Z</time></trkpt><trkpt lat="43.3399783" lon="11.9453883"><ele>263.0</ele><time>2026-04-06T08:54:13.894Z</time></trkpt><trkpt lat="43.339945" lon="11.9455067"><ele>263.0</ele><time>2026-04-06T08:54:15.904Z</time></trkpt><trkpt lat="43.3399033" lon="11.9456367"><ele>263.0</ele><time>2026-04-06T08:54:17.903Z</time></trkpt><trkpt lat="43.3398633" lon="11.945765"><ele>263.0</ele><time>2026-04-06T08:54:19.914Z</time></trkpt><trkpt lat="43.33982" lon="11.9458883"><ele>263.0</ele><time>2026-04-06T08:54:21.911Z</time></trkpt><trkpt lat="43.3397783" lon="11.946015"><ele>263.0</ele><time>2026-04-06T08:54:23.902Z</time></trkpt><trkpt lat="43.3397383" lon="11.946135"><ele>263.0</ele><time>2026-04-06T08:54:25.9Z</time></trkpt><trkpt lat="43.339695" lon="11.946245"><ele>263.0</ele><time>2026-04-06T08:54:27.903Z</time></trkpt><trkpt lat="43.3396583" lon="11.9463483"><ele>262.83333333333337</ele><time>2026-04-06T08:54:29.913Z</time></trkpt><trkpt lat="43.33963" lon="11.94645"><ele>262.6666666666667</ele><time>2026-04-06T08:54:31.909Z</time></trkpt><trkpt lat="43.3396" lon="11.9465383"><ele>262.5</ele><time>2026-04-06T08:54:33.905Z</time></trkpt><trkpt lat="43.3395733" lon="11.9466267"><ele>262.3333333333333</ele><time>2026-04-06T08:54:35.908Z</time></trkpt><trkpt lat="43.3395467" lon="11.9467317"><ele>262.16666666666663</ele><time>2026-04-06T08:54:37.913Z</time></trkpt><trkpt lat="43.339515" lon="11.9468333"><ele>262.0</ele><time>2026-04-06T08:54:39.901Z</time></trkpt><trkpt lat="43.3394817" lon="11.9469267"><ele>262.3333333333333</ele><time>2026-04-06T08:54:41.907Z</time></trkpt><trkpt lat="43.3394533" lon="11.9470067"><ele>262.66666666666663</ele><time>2026-04-06T08:54:43.907Z</time></trkpt><trkpt lat="43.3394133" lon="11.9471217"><ele>263.0</ele><time>2026-04-06T08:54:46.91Z</time></trkpt><trkpt lat="43.3393683" lon="11.9472317"><ele>263.3333333333333</ele><time>2026-04-06T08:54:49.912Z</time></trkpt><trkpt lat="43.3393483" lon="11.9473367"><ele>263.6666666666667</ele><time>2026-04-06T08:54:52.907Z</time></trkpt><trkpt lat="43.3393167" lon="11.947435"><ele>264.0</ele><time>2026-04-06T08:54:55.905Z</time></trkpt><trkpt lat="43.3392767" lon="11.9475317"><ele>264.3333333333333</ele><time>2026-04-06T08:54:58.912Z</time></trkpt><trkpt lat="43.3392383" lon="11.9476567"><ele>264.6666666666667</ele><time>2026-04-06T08:55:01.899Z</time></trkpt><trkpt lat="43.3392033" lon="11.9477483"><ele>265.0</ele><time>2026-04-06T08:55:03.899Z</time></trkpt><trkpt lat="43.33917" lon="11.9478417"><ele>265.33333333333337</ele><time>2026-04-06T08:55:05.903Z</time></trkpt><trkpt lat="43.33914" lon="11.947935"><ele>265.6666666666667</ele><time>2026-04-06T08:55:07.916Z</time></trkpt><trkpt lat="43.339115" lon="11.9480233"><ele>266.0</ele><time>2026-04-06T08:55:09.914Z</time></trkpt><trkpt lat="43.3390767" lon="11.9481067"><ele>266.0</ele><time>2026-04-06T08:55:11.907Z</time></trkpt><trkpt lat="43.3390417" lon="11.9482"><ele>266.0</ele><time>2026-04-06T08:55:13.908Z</time></trkpt><trkpt lat="43.3390183" lon="11.94831"><ele>266.0</ele><time>2026-04-06T08:55:15.907Z</time></trkpt><trkpt lat="43.3389783" lon="11.9484183"><ele>266.0</ele><time>2026-04-06T08:55:17.908Z</time></trkpt><trkpt lat="43.33893" lon="11.948525"><ele>266.0</ele><time>2026-04-06T08:55:19.906Z</time></trkpt><trkpt lat="43.338885" lon="11.9486317"><ele>266.0</ele><time>2026-04-06T08:55:21.912Z</time></trkpt><trkpt lat="43.338835" lon="11.9487267"><ele>266.14285714285717</ele><time>2026-04-06T08:55:23.908Z</time></trkpt><trkpt lat="43.3387933" lon="11.948815"><ele>266.2857142857143</ele><time>2026-04-06T08:55:25.915Z</time></trkpt><trkpt lat="43.338755" lon="11.9489"><ele>266.42857142857144</ele><time>2026-04-06T08:55:27.915Z</time></trkpt><trkpt lat="43.33872" lon="11.9489767"><ele>266.57142857142856</ele><time>2026-04-06T08:55:29.907Z</time></trkpt><trkpt lat="43.3387067" lon="11.949085"><ele>266.7142857142857</ele><time>2026-04-06T08:55:32.909Z</time></trkpt><trkpt lat="43.3387083" lon="11.9491967"><ele>266.8571428571429</ele><time>2026-04-06T08:55:35.909Z</time></trkpt><trkpt lat="43.3387267" lon="11.9492817"><ele>267.0</ele><time>2026-04-06T08:55:37.926Z</time></trkpt><trkpt lat="43.3387583" lon="11.94938"><ele>266.6666666666667</ele><time>2026-04-06T08:55:39.903Z</time></trkpt><trkpt lat="43.3387967" lon="11.9494817"><ele>266.3333333333333</ele><time>2026-04-06T08:55:41.906Z</time></trkpt><trkpt lat="43.3388417" lon="11.94958"><ele>266.0</ele><time>2026-04-06T08:55:43.915Z</time></trkpt><trkpt lat="43.33889" lon="11.9496783"><ele>265.66666666666663</ele><time>2026-04-06T08:55:45.921Z</time></trkpt><trkpt lat="43.3389333" lon="11.949775"><ele>265.3333333333333</ele><time>2026-04-06T08:55:47.906Z</time></trkpt><trkpt lat="43.3389733" lon="11.9498833"><ele>265.0</ele><time>2026-04-06T08:55:49.916Z</time></trkpt><trkpt lat="43.3390167" lon="11.9499833"><ele>264.66666666666663</ele><time>2026-04-06T08:55:51.912Z</time></trkpt><trkpt lat="43.3390567" lon="11.9500783"><ele>264.3333333333333</ele><time>2026-04-06T08:55:53.907Z</time></trkpt><trkpt lat="43.3390983" lon="11.9501667"><ele>264.0</ele><time>2026-04-06T08:55:55.909Z</time></trkpt><trkpt lat="43.3391267" lon="11.9502633"><ele>263.6666666666667</ele><time>2026-04-06T08:55:57.907Z</time></trkpt><trkpt lat="43.33916" lon="11.9503517"><ele>263.33333333333337</ele><time>2026-04-06T08:55:59.909Z</time></trkpt><trkpt lat="43.3392017" lon="11.950435"><ele>263.0</ele><time>2026-04-06T08:56:01.909Z</time></trkpt><trkpt lat="43.3392433" lon="11.9505417"><ele>263.0</ele><time>2026-04-06T08:56:03.911Z</time></trkpt><trkpt lat="43.339285" lon="11.9506517"><ele>263.0</ele><time>2026-04-06T08:56:05.906Z</time></trkpt><trkpt lat="43.3393233" lon="11.9507533"><ele>263.0</ele><time>2026-04-06T08:56:07.919Z</time></trkpt><trkpt lat="43.339365" lon="11.95085"><ele>263.0</ele><time>2026-04-06T08:56:09.908Z</time></trkpt><trkpt lat="43.3394" lon="11.9509383"><ele>263.0</ele><time>2026-04-06T08:56:11.912Z</time></trkpt><trkpt lat="43.3394283" lon="11.9510217"><ele>263.0</ele><time>2026-04-06T08:56:13.908Z</time></trkpt><trkpt lat="43.3394667" lon="11.951105"><ele>263.33333333333337</ele><time>2026-04-06T08:57:24.904Z</time></trkpt><trkpt lat="43.3395067" lon="11.9512067"><ele>263.6666666666667</ele><time>2026-04-06T08:57:27.907Z</time></trkpt><trkpt lat="43.339535" lon="11.9512933"><ele>264.0</ele><time>2026-04-06T08:57:29.918Z</time></trkpt><trkpt lat="43.3395617" lon="11.9513717"><ele>264.3333333333333</ele><time>2026-04-06T08:57:31.902Z</time></trkpt><trkpt lat="43.3396067" lon="11.951475"><ele>264.66666666666663</ele><time>2026-04-06T08:57:34.916Z</time></trkpt><trkpt lat="43.3396467" lon="11.9515783"><ele>265.0</ele><time>2026-04-06T08:57:37.91Z</time></trkpt><trkpt lat="43.3396867" lon="11.9516833"><ele>265.3333333333333</ele><time>2026-04-06T08:57:40.908Z</time></trkpt><trkpt lat="43.3397233" lon="11.951785"><ele>265.66666666666663</ele><time>2026-04-06T08:57:43.928Z</time></trkpt><trkpt lat="43.3397667" lon="11.9518883"><ele>266.0</ele><time>2026-04-06T08:57:46.903Z</time></trkpt><trkpt lat="43.3398083" lon="11.9519883"><ele>266.3333333333333</ele><time>2026-04-06T08:57:49.908Z</time></trkpt><trkpt lat="43.33984" lon="11.952095"><ele>266.6666666666667</ele><time>2026-04-06T08:57:52.905Z</time></trkpt><trkpt lat="43.3398717" lon="11.9521917"><ele>267.0</ele><time>2026-04-06T08:57:55.926Z</time></trkpt><trkpt lat="43.3399083" lon="11.95229"><ele>267.0</ele><time>2026-04-06T08:57:58.895Z</time></trkpt><trkpt lat="43.3399433" lon="11.9523867"><ele>267.0</ele><time>2026-04-06T08:58:01.904Z</time></trkpt><trkpt lat="43.33999" lon="11.952485"><ele>267.0</ele><time>2026-04-06T08:58:04.907Z</time></trkpt><trkpt lat="43.340035" lon="11.952575"><ele>267.0</ele><time>2026-04-06T08:58:07.903Z</time></trkpt><trkpt lat="43.3400717" lon="11.9526733"><ele>267.0</ele><time>2026-04-06T08:58:10.908Z</time></trkpt><trkpt lat="43.3401133" lon="11.952755"><ele>267.0</ele><time>2026-04-06T08:58:13.902Z</time></trkpt><trkpt lat="43.340155" lon="11.9528333"><ele>267.5714285714286</ele><time>2026-04-06T08:58:16.9Z</time></trkpt><trkpt lat="43.3402" lon="11.9529"><ele>268.14285714285717</ele><time>2026-04-06T08:58:19.91Z</time></trkpt><trkpt lat="43.3402433" lon="11.9529683"><ele>268.7142857142857</ele><time>2026-04-06T08:58:22.917Z</time></trkpt><trkpt lat="43.3402883" lon="11.9530433"><ele>269.28571428571433</ele><time>2026-04-06T08:58:25.931Z</time></trkpt><trkpt lat="43.340345" lon="11.953115"><ele>269.8571428571429</ele><time>2026-04-06T08:58:28.913Z</time></trkpt><trkpt lat="43.3404133" lon="11.9531983"><ele>270.42857142857144</ele><time>2026-04-06T08:58:31.909Z</time></trkpt><trkpt lat="43.3404483" lon="11.95329"><ele>271.0</ele><time>2026-04-06T08:58:34.904Z</time></trkpt><trkpt lat="43.34049" lon="11.953355"><ele>270.66666666666663</ele><time>2026-04-06T08:59:30.907Z</time></trkpt><trkpt lat="43.3405533" lon="11.9534383"><ele>270.3333333333333</ele><time>2026-04-06T08:59:33.907Z</time></trkpt><trkpt lat="43.3406367" lon="11.9535583"><ele>270.0</ele><time>2026-04-06T08:59:35.92Z</time></trkpt><trkpt lat="43.3406883" lon="11.9536283"><ele>269.6666666666667</ele><time>2026-04-06T08:59:36.903Z</time></trkpt><trkpt lat="43.340745" lon="11.9536983"><ele>269.33333333333337</ele><time>2026-04-06T08:59:37.913Z</time></trkpt><trkpt lat="43.340805" lon="11.9537683"><ele>269.0</ele><time>2026-04-06T08:59:38.907Z</time></trkpt><trkpt lat="43.3408683" lon="11.9538367"><ele>269.0</ele><time>2026-04-06T08:59:39.903Z</time></trkpt><trkpt lat="43.3409317" lon="11.9539"><ele>269.0</ele><time>2026-04-06T08:59:40.907Z</time></trkpt><trkpt lat="43.340995" lon="11.9539683"><ele>269.0</ele><time>2026-04-06T08:59:41.91Z</time></trkpt><trkpt lat="43.34105" lon="11.9540367"><ele>269.0</ele><time>2026-04-06T08:59:42.904Z</time></trkpt><trkpt lat="43.3411017" lon="11.9541067"><ele>269.0</ele><time>2026-04-06T08:59:43.921Z</time></trkpt><trkpt lat="43.341155" lon="11.954175"><ele>269.0</ele><time>2026-04-06T08:59:44.912Z</time></trkpt><trkpt lat="43.3412017" lon="11.9542417"><ele>269.0</ele><time>2026-04-06T08:59:45.907Z</time></trkpt><trkpt lat="43.341245" lon="11.9543083"><ele>268.83333333333337</ele><time>2026-04-06T08:59:46.909Z</time></trkpt><trkpt lat="43.34129" lon="11.9543917"><ele>268.6666666666667</ele><time>2026-04-06T08:59:47.907Z</time></trkpt><trkpt lat="43.3413333" lon="11.95447"><ele>268.5</ele><time>2026-04-06T08:59:48.91Z</time></trkpt><trkpt lat="43.3413783" lon="11.954535"><ele>268.3333333333333</ele><time>2026-04-06T08:59:49.904Z</time></trkpt><trkpt lat="43.3414217" lon="11.9546033"><ele>268.16666666666663</ele><time>2026-04-06T08:59:50.917Z</time></trkpt><trkpt lat="43.34146" lon="11.9546733"><ele>268.0</ele><time>2026-04-06T08:59:51.907Z</time></trkpt><trkpt lat="43.34154" lon="11.9548017"><ele>267.75</ele><time>2026-04-06T08:59:53.906Z</time></trkpt><trkpt lat="43.3416117" lon="11.9549317"><ele>267.5</ele><time>2026-04-06T08:59:55.926Z</time></trkpt><trkpt lat="43.3416833" lon="11.9550567"><ele>267.25</ele><time>2026-04-06T08:59:57.905Z</time></trkpt><trkpt lat="43.3417483" lon="11.95518"><ele>267.0</ele><time>2026-04-06T08:59:59.907Z</time></trkpt><trkpt lat="43.341805" lon="11.9553117"><ele>267.0</ele><time>2026-04-06T09:00:01.906Z</time></trkpt><trkpt lat="43.34184" lon="11.95545"><ele>267.0</ele><time>2026-04-06T09:00:03.912Z</time></trkpt><trkpt lat="43.3418617" lon="11.955585"><ele>267.0</ele><time>2026-04-06T09:00:05.905Z</time></trkpt><trkpt lat="43.341855" lon="11.9557133"><ele>267.0</ele><time>2026-04-06T09:00:07.914Z</time></trkpt><trkpt lat="43.3418433" lon="11.9558367"><ele>267.0</ele><time>2026-04-06T09:00:09.916Z</time></trkpt><trkpt lat="43.3418233" lon="11.955955"><ele>267.0</ele><time>2026-04-06T09:00:11.904Z</time></trkpt><trkpt lat="43.3418" lon="11.9560617"><ele>267.0</ele><time>2026-04-06T09:00:13.912Z</time></trkpt><trkpt lat="43.3417683" lon="11.956165"><ele>267.0</ele><time>2026-04-06T09:00:15.91Z</time></trkpt><trkpt lat="43.341745" lon="11.95627"><ele>267.0</ele><time>2026-04-06T09:00:17.911Z</time></trkpt><trkpt lat="43.3417383" lon="11.9563817"><ele>267.0</ele><time>2026-04-06T09:00:19.906Z</time></trkpt><trkpt lat="43.341735" lon="11.9564917"><ele>267.0</ele><time>2026-04-06T09:00:21.914Z</time></trkpt><trkpt lat="43.3417367" lon="11.9565967"><ele>267.00000000000006</ele><time>2026-04-06T09:00:23.909Z</time></trkpt><trkpt lat="43.3417467" lon="11.956705"><ele>267.0</ele><time>2026-04-06T09:00:25.904Z</time></trkpt><trkpt lat="43.3417567" lon="11.9568183"><ele>267.0</ele><time>2026-04-06T09:00:27.902Z</time></trkpt><trkpt lat="43.3417533" lon="11.9569283"><ele>267.0</ele><time>2026-04-06T09:00:29.905Z</time></trkpt><trkpt lat="43.3417467" lon="11.9570283"><ele>267.0</ele><time>2026-04-06T09:00:31.899Z</time></trkpt><trkpt lat="43.3417383" lon="11.9571167"><ele>267.00000000000006</ele><time>2026-04-06T09:00:33.919Z</time></trkpt><trkpt lat="43.3417367" lon="11.957205"><ele>267.0</ele><time>2026-04-06T09:00:35.906Z</time></trkpt><trkpt lat="43.3417233" lon="11.9573367"><ele>267.00000000000006</ele><time>2026-04-06T09:00:38.904Z</time></trkpt><trkpt lat="43.341715" lon="11.9574367"><ele>267.0</ele><time>2026-04-06T09:00:40.914Z</time></trkpt><trkpt lat="43.3417083" lon="11.9575367"><ele>267.0</ele><time>2026-04-06T09:00:42.902Z</time></trkpt><trkpt lat="43.3417083" lon="11.9576317"><ele>267.0</ele><time>2026-04-06T09:00:44.905Z</time></trkpt><trkpt lat="43.3417067" lon="11.95773"><ele>267.0</ele><time>2026-04-06T09:00:46.906Z</time></trkpt><trkpt lat="43.3417017" lon="11.957835"><ele>267.00000000000006</ele><time>2026-04-06T09:00:48.912Z</time></trkpt><trkpt lat="43.3416917" lon="11.9579383"><ele>267.0</ele><time>2026-04-06T09:00:50.905Z</time></trkpt><trkpt lat="43.3416933" lon="11.95804"><ele>267.0</ele><time>2026-04-06T09:00:52.902Z</time></trkpt><trkpt lat="43.3416933" lon="11.9581333"><ele>267.0</ele><time>2026-04-06T09:00:54.908Z</time></trkpt><trkpt lat="43.3416883" lon="11.9582267"><ele>267.0</ele><time>2026-04-06T09:00:56.916Z</time></trkpt><trkpt lat="43.3416817" lon="11.95835"><ele>267.0</ele><time>2026-04-06T09:00:59.907Z</time></trkpt><trkpt lat="43.3416817" lon="11.9584483"><ele>267.0</ele><time>2026-04-06T09:01:02.909Z</time></trkpt><trkpt lat="43.3416633" lon="11.95856"><ele>267.0</ele><time>2026-04-06T09:01:05.922Z</time></trkpt><trkpt lat="43.34164" lon="11.958675"><ele>267.3333333333333</ele><time>2026-04-06T09:01:08.916Z</time></trkpt><trkpt lat="43.3416183" lon="11.9587767"><ele>267.6666666666667</ele><time>2026-04-06T09:01:11.908Z</time></trkpt><trkpt lat="43.3415683" lon="11.9588733"><ele>268.0</ele><time>2026-04-06T09:01:14.902Z</time></trkpt><trkpt lat="43.3415183" lon="11.95897"><ele>268.33333333333337</ele><time>2026-04-06T09:01:17.907Z</time></trkpt><trkpt lat="43.3414817" lon="11.9590533"><ele>268.6666666666667</ele><time>2026-04-06T09:01:20.918Z</time></trkpt><trkpt lat="43.3414483" lon="11.9591317"><ele>269.0</ele><time>2026-04-06T09:01:23.921Z</time></trkpt><trkpt lat="43.3414" lon="11.9592083"><ele>269.6666666666667</ele><time>2026-04-06T09:01:26.912Z</time></trkpt><trkpt lat="43.3413733" lon="11.9593133"><ele>270.33333333333337</ele><time>2026-04-06T09:01:29.903Z</time></trkpt><trkpt lat="43.34135" lon="11.9594183"><ele>271.0</ele><time>2026-04-06T09:01:32.916Z</time></trkpt><trkpt lat="43.3413467" lon="11.9595367"><ele>271.6666666666667</ele><time>2026-04-06T09:01:35.907Z</time></trkpt><trkpt lat="43.3413567" lon="11.9596467"><ele>272.3333333333333</ele><time>2026-04-06T09:01:38.917Z</time></trkpt><trkpt lat="43.341375" lon="11.95976"><ele>273.0</ele><time>2026-04-06T09:01:41.909Z</time></trkpt><trkpt lat="43.3413767" lon="11.9598517"><ele>272.6666666666667</ele><time>2026-04-06T09:01:43.914Z</time></trkpt><trkpt lat="43.3413867" lon="11.95996"><ele>272.3333333333333</ele><time>2026-04-06T09:01:45.9Z</time></trkpt><trkpt lat="43.341395" lon="11.9600667"><ele>272.0</ele><time>2026-04-06T09:01:47.911Z</time></trkpt><trkpt lat="43.34139" lon="11.9601617"><ele>271.66666666666663</ele><time>2026-04-06T09:01:49.907Z</time></trkpt><trkpt lat="43.341385" lon="11.96028"><ele>271.3333333333333</ele><time>2026-04-06T09:01:52.912Z</time></trkpt><trkpt lat="43.34139" lon="11.9603833"><ele>271.0</ele><time>2026-04-06T09:01:55.909Z</time></trkpt><trkpt lat="43.3414033" lon="11.9605017"><ele>271.0</ele><time>2026-04-06T09:01:58.903Z</time></trkpt><trkpt lat="43.3414117" lon="11.9606083"><ele>271.0</ele><time>2026-04-06T09:02:00.906Z</time></trkpt><trkpt lat="43.3414283" lon="11.9607017"><ele>271.0</ele><time>2026-04-06T09:02:02.921Z</time></trkpt><trkpt lat="43.3414417" lon="11.9607867"><ele>271.0</ele><time>2026-04-06T09:02:04.911Z</time></trkpt><trkpt lat="43.3414683" lon="11.9608883"><ele>271.0</ele><time>2026-04-06T09:02:07.918Z</time></trkpt><trkpt lat="43.3414967" lon="11.9609733"><ele>271.0</ele><time>2026-04-06T09:02:10.909Z</time></trkpt><trkpt lat="43.341545" lon="11.9610567"><ele>271.0</ele><time>2026-04-06T09:04:16.907Z</time></trkpt><trkpt lat="43.34158" lon="11.9611483"><ele>271.3333333333333</ele><time>2026-04-06T09:04:18.906Z</time></trkpt><trkpt lat="43.3416267" lon="11.96125"><ele>271.66666666666663</ele><time>2026-04-06T09:04:21.907Z</time></trkpt><trkpt lat="43.3416817" lon="11.961355"><ele>272.0</ele><time>2026-04-06T09:04:24.9Z</time></trkpt><trkpt lat="43.3417383" lon="11.9614483"><ele>272.3333333333333</ele><time>2026-04-06T09:04:27.914Z</time></trkpt><trkpt lat="43.3417983" lon="11.9615283"><ele>272.6666666666667</ele><time>2026-04-06T09:04:30.918Z</time></trkpt><trkpt lat="43.3418467" lon="11.961585"><ele>273.0</ele><time>2026-04-06T09:04:32.914Z</time></trkpt><trkpt lat="43.3419083" lon="11.9616933"><ele>273.42857142857144</ele><time>2026-04-06T09:04:35.912Z</time></trkpt><trkpt lat="43.3419533" lon="11.9617683"><ele>273.8571428571429</ele><time>2026-04-06T09:04:37.908Z</time></trkpt><trkpt lat="43.3419933" lon="11.96184"><ele>274.2857142857143</ele><time>2026-04-06T09:04:39.914Z</time></trkpt><trkpt lat="43.3420433" lon="11.961935"><ele>274.7142857142857</ele><time>2026-04-06T09:04:42.91Z</time></trkpt><trkpt lat="43.3420867" lon="11.9620217"><ele>275.14285714285717</ele><time>2026-04-06T09:04:45.9Z</time></trkpt><trkpt lat="43.3421233" lon="11.9621033"><ele>275.57142857142856</ele><time>2026-04-06T09:04:47.903Z</time></trkpt><trkpt lat="43.342155" lon="11.962205"><ele>276.0</ele><time>2026-04-06T09:04:49.911Z</time></trkpt><trkpt lat="43.3421833" lon="11.96231"><ele>276.0</ele><time>2026-04-06T09:04:51.91Z</time></trkpt><trkpt lat="43.34221" lon="11.96241"><ele>276.0</ele><time>2026-04-06T09:04:53.907Z</time></trkpt><trkpt lat="43.3422417" lon="11.96253"><ele>276.0</ele><time>2026-04-06T09:04:55.91Z</time></trkpt><trkpt lat="43.3422883" lon="11.9626933"><ele>276.0</ele><time>2026-04-06T09:04:57.913Z</time></trkpt><trkpt lat="43.34231" lon="11.96279"><ele>276.0</ele><time>2026-04-06T09:04:58.917Z</time></trkpt><trkpt lat="43.3423233" lon="11.962895"><ele>276.0</ele><time>2026-04-06T09:04:59.908Z</time></trkpt><trkpt lat="43.3423383" lon="11.9630033"><ele>275.6666666666667</ele><time>2026-04-06T09:05:00.919Z</time></trkpt><trkpt lat="43.342355" lon="11.9631117"><ele>275.3333333333333</ele><time>2026-04-06T09:05:01.915Z</time></trkpt><trkpt lat="43.3423717" lon="11.9632133"><ele>275.0</ele><time>2026-04-06T09:05:02.905Z</time></trkpt><trkpt lat="43.3423867" lon="11.9633183"><ele>274.66666666666663</ele><time>2026-04-06T09:05:03.916Z</time></trkpt><trkpt lat="43.3424" lon="11.963425"><ele>274.3333333333333</ele><time>2026-04-06T09:05:04.915Z</time></trkpt><trkpt lat="43.3424117" lon="11.96353"><ele>274.0</ele><time>2026-04-06T09:05:05.9Z</time></trkpt><trkpt lat="43.3424217" lon="11.9636317"><ele>273.8571428571429</ele><time>2026-04-06T09:05:06.902Z</time></trkpt><trkpt lat="43.3424317" lon="11.9637317"><ele>273.7142857142857</ele><time>2026-04-06T09:05:07.918Z</time></trkpt><trkpt lat="43.34244" lon="11.9638283"><ele>273.57142857142856</ele><time>2026-04-06T09:05:08.91Z</time></trkpt><trkpt lat="43.3424533" lon="11.9639233"><ele>273.42857142857144</ele><time>2026-04-06T09:05:09.907Z</time></trkpt><trkpt lat="43.3424717" lon="11.9640083"><ele>273.2857142857143</ele><time>2026-04-06T09:05:10.903Z</time></trkpt><trkpt lat="43.3424883" lon="11.9640983"><ele>273.14285714285717</ele><time>2026-04-06T09:05:11.908Z</time></trkpt><trkpt lat="43.3425033" lon="11.9641883"><ele>273.0</ele><time>2026-04-06T09:05:12.911Z</time></trkpt><trkpt lat="43.342535" lon="11.9643583"><ele>273.5</ele><time>2026-04-06T09:05:14.929Z</time></trkpt><trkpt lat="43.3425733" lon="11.96452"><ele>274.0</ele><time>2026-04-06T09:05:16.909Z</time></trkpt><trkpt lat="43.3426183" lon="11.9646667"><ele>274.5</ele><time>2026-04-06T09:05:18.909Z</time></trkpt><trkpt lat="43.3426583" lon="11.9648067"><ele>275.0</ele><time>2026-04-06T09:05:20.916Z</time></trkpt><trkpt lat="43.342715" lon="11.9649467"><ele>275.2</ele><time>2026-04-06T09:05:22.911Z</time></trkpt><trkpt lat="43.3427667" lon="11.9650667"><ele>275.4</ele><time>2026-04-06T09:05:24.908Z</time></trkpt><trkpt lat="43.342815" lon="11.9651983"><ele>275.6</ele><time>2026-04-06T09:05:26.906Z</time></trkpt><trkpt lat="43.3428617" lon="11.965315"><ele>275.8</ele><time>2026-04-06T09:05:28.903Z</time></trkpt><trkpt lat="43.3429117" lon="11.9654333"><ele>276.0</ele><time>2026-04-06T09:05:30.92Z</time></trkpt><trkpt lat="43.342945" lon="11.9655533"><ele>276.0</ele><time>2026-04-06T09:05:32.908Z</time></trkpt><trkpt lat="43.3429817" lon="11.96568"><ele>276.0</ele><time>2026-04-06T09:05:34.914Z</time></trkpt><trkpt lat="43.3430133" lon="11.965795"><ele>276.0</ele><time>2026-04-06T09:05:36.93Z</time></trkpt><trkpt lat="43.3430567" lon="11.96591"><ele>276.0</ele><time>2026-04-06T09:05:38.905Z</time></trkpt><trkpt lat="43.3430833" lon="11.966025"><ele>276.0</ele><time>2026-04-06T09:05:40.908Z</time></trkpt><trkpt lat="43.3431167" lon="11.96615"><ele>276.0</ele><time>2026-04-06T09:05:42.909Z</time></trkpt><trkpt lat="43.343155" lon="11.9662583"><ele>276.0</ele><time>2026-04-06T09:05:44.907Z</time></trkpt><trkpt lat="43.3431933" lon="11.96638"><ele>276.0</ele><time>2026-04-06T09:05:46.909Z</time></trkpt><trkpt lat="43.3432267" lon="11.96651"><ele>276.0</ele><time>2026-04-06T09:05:48.912Z</time></trkpt><trkpt lat="43.3432683" lon="11.9666483"><ele>276.0</ele><time>2026-04-06T09:05:50.911Z</time></trkpt><trkpt lat="43.3433083" lon="11.9668033"><ele>276.2</ele><time>2026-04-06T09:05:52.913Z</time></trkpt><trkpt lat="43.3433517" lon="11.9669483"><ele>276.40000000000003</ele><time>2026-04-06T09:05:54.914Z</time></trkpt><trkpt lat="43.34338" lon="11.9670917"><ele>276.6</ele><time>2026-04-06T09:05:56.902Z</time></trkpt><trkpt lat="43.3434133" lon="11.967235"><ele>276.8</ele><time>2026-04-06T09:05:58.906Z</time></trkpt><trkpt lat="43.3434467" lon="11.9673817"><ele>277.0</ele><time>2026-04-06T09:06:00.902Z</time></trkpt><trkpt lat="43.343475" lon="11.9675333"><ele>277.2</ele><time>2026-04-06T09:06:02.907Z</time></trkpt><trkpt lat="43.3434933" lon="11.967675"><ele>277.4</ele><time>2026-04-06T09:06:04.92Z</time></trkpt><trkpt lat="43.3435217" lon="11.9678"><ele>277.6</ele><time>2026-04-06T09:06:06.913Z</time></trkpt><trkpt lat="43.3435467" lon="11.9679267"><ele>277.8</ele><time>2026-04-06T09:06:08.903Z</time></trkpt><trkpt lat="43.34357" lon="11.9680567"><ele>278.0</ele><time>2026-04-06T09:06:10.904Z</time></trkpt><trkpt lat="43.34359" lon="11.968185"><ele>278.0</ele><time>2026-04-06T09:06:12.908Z</time></trkpt><trkpt lat="43.3436083" lon="11.968315"><ele>278.0</ele><time>2026-04-06T09:06:14.907Z</time></trkpt><trkpt lat="43.34363" lon="11.9684417"><ele>278.0</ele><time>2026-04-06T09:06:16.906Z</time></trkpt><trkpt lat="43.3436483" lon="11.9685667"><ele>278.0</ele><time>2026-04-06T09:06:18.913Z</time></trkpt><trkpt lat="43.343665" lon="11.96869"><ele>278.0</ele><time>2026-04-06T09:06:20.917Z</time></trkpt><trkpt lat="43.3436817" lon="11.9688017"><ele>278.1666666666667</ele><time>2026-04-06T09:06:22.911Z</time></trkpt><trkpt lat="43.3437017" lon="11.96891"><ele>278.33333333333337</ele><time>2026-04-06T09:06:24.911Z</time></trkpt><trkpt lat="43.34372" lon="11.96902"><ele>278.5</ele><time>2026-04-06T09:06:26.908Z</time></trkpt><trkpt lat="43.3437467" lon="11.9691283"><ele>278.6666666666667</ele><time>2026-04-06T09:06:28.909Z</time></trkpt><trkpt lat="43.3437717" lon="11.9692367"><ele>278.8333333333333</ele><time>2026-04-06T09:06:30.91Z</time></trkpt><trkpt lat="43.3438033" lon="11.96934"><ele>279.0</ele><time>2026-04-06T09:06:32.906Z</time></trkpt><trkpt lat="43.3438317" lon="11.96944"><ele>279.1428571428571</ele><time>2026-04-06T09:06:34.91Z</time></trkpt><trkpt lat="43.3438567" lon="11.9695383"><ele>279.2857142857143</ele><time>2026-04-06T09:06:36.919Z</time></trkpt><trkpt lat="43.3438817" lon="11.96964"><ele>279.42857142857144</ele><time>2026-04-06T09:06:38.914Z</time></trkpt><trkpt lat="43.3438967" lon="11.9697483"><ele>279.57142857142856</ele><time>2026-04-06T09:06:40.906Z</time></trkpt><trkpt lat="43.3439083" lon="11.969855"><ele>279.7142857142857</ele><time>2026-04-06T09:06:42.919Z</time></trkpt><trkpt lat="43.34392" lon="11.96995"><ele>279.85714285714283</ele><time>2026-04-06T09:06:44.915Z</time></trkpt><trkpt lat="43.3439333" lon="11.9700367"><ele>280.0</ele><time>2026-04-06T09:06:46.914Z</time></trkpt><trkpt lat="43.343945" lon="11.9701667"><ele>280.0</ele><time>2026-04-06T09:06:49.904Z</time></trkpt><trkpt lat="43.3439333" lon="11.9702883"><ele>280.0</ele><time>2026-04-06T09:06:52.915Z</time></trkpt><trkpt lat="43.3439333" lon="11.97041"><ele>280.0</ele><time>2026-04-06T09:06:55.913Z</time></trkpt><trkpt lat="43.3439417" lon="11.9705033"><ele>280.0</ele><time>2026-04-06T09:06:57.909Z</time></trkpt><trkpt lat="43.343945" lon="11.9706183"><ele>280.0</ele><time>2026-04-06T09:06:59.906Z</time></trkpt><trkpt lat="43.3439583" lon="11.97073"><ele>280.0</ele><time>2026-04-06T09:07:01.908Z</time></trkpt><trkpt lat="43.3439767" lon="11.9708383"><ele>281.6</ele><time>2026-04-06T09:07:03.918Z</time></trkpt><trkpt lat="43.344005" lon="11.970955"><ele>283.2</ele><time>2026-04-06T09:07:05.912Z</time></trkpt><trkpt lat="43.3440383" lon="11.9710683"><ele>284.8</ele><time>2026-04-06T09:07:07.912Z</time></trkpt><trkpt lat="43.344065" lon="11.9711767"><ele>286.4</ele><time>2026-04-06T09:07:09.915Z</time></trkpt><trkpt lat="43.344105" lon="11.9713067"><ele>288.0</ele><time>2026-04-06T09:07:11.91Z</time></trkpt><trkpt lat="43.3441433" lon="11.9714217"><ele>288.0</ele><time>2026-04-06T09:07:13.905Z</time></trkpt><trkpt lat="43.3441867" lon="11.9715317"><ele>288.0</ele><time>2026-04-06T09:07:15.918Z</time></trkpt><trkpt lat="43.3442283" lon="11.971635"><ele>288.0</ele><time>2026-04-06T09:07:17.922Z</time></trkpt><trkpt lat="43.344255" lon="11.971735"><ele>288.0</ele><time>2026-04-06T09:07:19.907Z</time></trkpt><trkpt lat="43.3442883" lon="11.9718167"><ele>288.0</ele><time>2026-04-06T09:07:21.911Z</time></trkpt><trkpt lat="43.34431" lon="11.9719017"><ele>288.0</ele><time>2026-04-06T09:07:23.913Z</time></trkpt><trkpt lat="43.344345" lon="11.9719883"><ele>288.0</ele><time>2026-04-06T09:07:25.913Z</time></trkpt><trkpt lat="43.3443817" lon="11.9720883"><ele>288.0</ele><time>2026-04-06T09:07:27.91Z</time></trkpt><trkpt lat="43.3444133" lon="11.9722083"><ele>288.0</ele><time>2026-04-06T09:07:29.898Z</time></trkpt><trkpt lat="43.3444467" lon="11.972325"><ele>288.0</ele><time>2026-04-06T09:07:31.902Z</time></trkpt><trkpt lat="43.3444667" lon="11.97243"><ele>288.0</ele><time>2026-04-06T09:07:33.899Z</time></trkpt><trkpt lat="43.3444917" lon="11.9725317"><ele>288.0</ele><time>2026-04-06T09:07:35.912Z</time></trkpt><trkpt lat="43.3445167" lon="11.9726383"><ele>289.0</ele><time>2026-04-06T09:07:37.922Z</time></trkpt><trkpt lat="43.3445383" lon="11.9727517"><ele>290.0</ele><time>2026-04-06T09:07:39.908Z</time></trkpt><trkpt lat="43.3445633" lon="11.9728667"><ele>291.0</ele><time>2026-04-06T09:07:41.907Z</time></trkpt><trkpt lat="43.3445883" lon="11.9729767"><ele>292.0</ele><time>2026-04-06T09:07:43.916Z</time></trkpt><trkpt lat="43.3446167" lon="11.9730783"><ele>293.0</ele><time>2026-04-06T09:07:45.91Z</time></trkpt><trkpt lat="43.3446383" lon="11.97319"><ele>294.0</ele><time>2026-04-06T09:07:47.902Z</time></trkpt><trkpt lat="43.3446617" lon="11.973295"><ele>293.0</ele><time>2026-04-06T09:07:49.913Z</time></trkpt><trkpt lat="43.34469" lon="11.9734017"><ele>292.0</ele><time>2026-04-06T09:07:51.916Z</time></trkpt><trkpt lat="43.3447383" lon="11.973505"><ele>291.0</ele><time>2026-04-06T09:07:53.92Z</time></trkpt><trkpt lat="43.3447833" lon="11.9736083"><ele>290.0</ele><time>2026-04-06T09:07:55.905Z</time></trkpt><trkpt lat="43.3448167" lon="11.973715"><ele>289.0</ele><time>2026-04-06T09:07:57.905Z</time></trkpt><trkpt lat="43.3448533" lon="11.9738167"><ele>288.0</ele><time>2026-04-06T09:07:59.905Z</time></trkpt><trkpt lat="43.3448883" lon="11.9739217"><ele>288.0</ele><time>2026-04-06T09:08:01.903Z</time></trkpt><trkpt lat="43.3449233" lon="11.974025"><ele>288.0</ele><time>2026-04-06T09:08:03.91Z</time></trkpt><trkpt lat="43.3449467" lon="11.97415"><ele>288.0</ele><time>2026-04-06T09:08:05.918Z</time></trkpt><trkpt lat="43.3449633" lon="11.9742683"><ele>288.0</ele><time>2026-04-06T09:08:07.915Z</time></trkpt><trkpt lat="43.3449883" lon="11.9743967"><ele>288.0</ele><time>2026-04-06T09:08:09.907Z</time></trkpt><trkpt lat="43.3450517" lon="11.9745317"><ele>287.8</ele><time>2026-04-06T09:08:11.901Z</time></trkpt><trkpt lat="43.34513" lon="11.9746483"><ele>287.6</ele><time>2026-04-06T09:08:13.918Z</time></trkpt><trkpt lat="43.34522" lon="11.9747417"><ele>287.4</ele><time>2026-04-06T09:08:15.907Z</time></trkpt><trkpt lat="43.3453083" lon="11.97483"><ele>287.2</ele><time>2026-04-06T09:08:17.912Z</time></trkpt><trkpt lat="43.3453933" lon="11.9749133"><ele>287.0</ele><time>2026-04-06T09:08:19.908Z</time></trkpt><trkpt lat="43.3454767" lon="11.9749833"><ele>286.83333333333337</ele><time>2026-04-06T09:08:21.908Z</time></trkpt><trkpt lat="43.34555" lon="11.9750667"><ele>286.6666666666667</ele><time>2026-04-06T09:08:23.904Z</time></trkpt><trkpt lat="43.345625" lon="11.975145"><ele>286.5</ele><time>2026-04-06T09:08:25.905Z</time></trkpt><trkpt lat="43.3456917" lon="11.9752233"><ele>286.3333333333333</ele><time>2026-04-06T09:08:27.914Z</time></trkpt><trkpt lat="43.3457483" lon="11.9753133"><ele>286.16666666666663</ele><time>2026-04-06T09:08:29.918Z</time></trkpt><trkpt lat="43.3457967" lon="11.9754083"><ele>286.0</ele><time>2026-04-06T09:08:31.903Z</time></trkpt><trkpt lat="43.345835" lon="11.9755117"><ele>286.0</ele><time>2026-04-06T09:08:33.911Z</time></trkpt><trkpt lat="43.3458783" lon="11.9756033"><ele>286.0</ele><time>2026-04-06T09:08:35.922Z</time></trkpt><trkpt lat="43.3459183" lon="11.9756933"><ele>286.0</ele><time>2026-04-06T09:08:37.906Z</time></trkpt><trkpt lat="43.3459717" lon="11.9757717"><ele>286.0</ele><time>2026-04-06T09:08:39.91Z</time></trkpt><trkpt lat="43.34602" lon="11.97586"><ele>286.0</ele><time>2026-04-06T09:08:41.91Z</time></trkpt><trkpt lat="43.3460667" lon="11.97596"><ele>286.0</ele><time>2026-04-06T09:08:43.911Z</time></trkpt><trkpt lat="43.34611" lon="11.9760717"><ele>285.8</ele><time>2026-04-06T09:08:45.897Z</time></trkpt><trkpt lat="43.3461467" lon="11.9761833"><ele>285.6</ele><time>2026-04-06T09:08:47.906Z</time></trkpt><trkpt lat="43.346185" lon="11.9763017"><ele>285.4</ele><time>2026-04-06T09:08:49.913Z</time></trkpt><trkpt lat="43.34621" lon="11.9764267"><ele>285.2</ele><time>2026-04-06T09:08:51.907Z</time></trkpt><trkpt lat="43.3462367" lon="11.9765467"><ele>285.0</ele><time>2026-04-06T09:08:53.918Z</time></trkpt><trkpt lat="43.3462633" lon="11.9766517"><ele>285.0</ele><time>2026-04-06T09:08:55.921Z</time></trkpt><trkpt lat="43.3462883" lon="11.9767533"><ele>285.0</ele><time>2026-04-06T09:08:57.904Z</time></trkpt><trkpt lat="43.34631" lon="11.9768567"><ele>285.0</ele><time>2026-04-06T09:08:59.906Z</time></trkpt><trkpt lat="43.3463283" lon="11.9769683"><ele>285.0</ele><time>2026-04-06T09:09:01.91Z</time></trkpt><trkpt lat="43.3463533" lon="11.9770833"><ele>285.0</ele><time>2026-04-06T09:09:03.909Z</time></trkpt><trkpt lat="43.3463917" lon="11.977215"><ele>285.0</ele><time>2026-04-06T09:09:05.907Z</time></trkpt><trkpt lat="43.3464467" lon="11.9773467"><ele>284.8</ele><time>2026-04-06T09:09:07.921Z</time></trkpt><trkpt lat="43.3465" lon="11.977485"><ele>284.6</ele><time>2026-04-06T09:09:09.92Z</time></trkpt><trkpt lat="43.3465467" lon="11.9776183"><ele>284.4</ele><time>2026-04-06T09:09:11.909Z</time></trkpt><trkpt lat="43.3466" lon="11.9777517"><ele>284.2</ele><time>2026-04-06T09:09:13.903Z</time></trkpt><trkpt lat="43.346655" lon="11.9778717"><ele>284.0</ele><time>2026-04-06T09:09:15.916Z</time></trkpt><trkpt lat="43.3467117" lon="11.9779883"><ele>284.5</ele><time>2026-04-06T09:09:17.909Z</time></trkpt><trkpt lat="43.34676" lon="11.9780867"><ele>285.0</ele><time>2026-04-06T09:09:19.923Z</time></trkpt><trkpt lat="43.3468017" lon="11.9781733"><ele>285.5</ele><time>2026-04-06T09:09:21.909Z</time></trkpt><trkpt lat="43.346835" lon="11.9782583"><ele>286.0</ele><time>2026-04-06T09:09:23.908Z</time></trkpt><trkpt lat="43.346885" lon="11.9783567"><ele>286.5</ele><time>2026-04-06T09:09:26.913Z</time></trkpt><trkpt lat="43.3469417" lon="11.9784583"><ele>287.0</ele><time>2026-04-06T09:09:30.913Z</time></trkpt><trkpt lat="43.346985" lon="11.978535"><ele>287.0</ele><time>2026-04-06T09:09:32.905Z</time></trkpt><trkpt lat="43.3470417" lon="11.97865"><ele>287.0</ele><time>2026-04-06T09:09:34.904Z</time></trkpt><trkpt lat="43.34711" lon="11.97878"><ele>287.0</ele><time>2026-04-06T09:09:36.921Z</time></trkpt><trkpt lat="43.34714" lon="11.9788583"><ele>287.0</ele><time>2026-04-06T09:09:37.912Z</time></trkpt><trkpt lat="43.3471683" lon="11.9789383"><ele>287.0</ele><time>2026-04-06T09:09:38.924Z</time></trkpt><trkpt lat="43.3472" lon="11.9790183"><ele>287.0</ele><time>2026-04-06T09:09:39.909Z</time></trkpt><trkpt lat="43.3472333" lon="11.979095"><ele>286.7142857142857</ele><time>2026-04-06T09:09:40.913Z</time></trkpt><trkpt lat="43.3472733" lon="11.9791783"><ele>286.42857142857144</ele><time>2026-04-06T09:09:41.908Z</time></trkpt><trkpt lat="43.347305" lon="11.9792633"><ele>286.1428571428571</ele><time>2026-04-06T09:09:42.912Z</time></trkpt><trkpt lat="43.34734" lon="11.9793483"><ele>285.8571428571429</ele><time>2026-04-06T09:09:43.907Z</time></trkpt><trkpt lat="43.3473767" lon="11.97942"><ele>285.57142857142856</ele><time>2026-04-06T09:09:44.913Z</time></trkpt><trkpt lat="43.347415" lon="11.9794967"><ele>285.2857142857143</ele><time>2026-04-06T09:09:45.912Z</time></trkpt><trkpt lat="43.34745" lon="11.979575"><ele>285.0</ele><time>2026-04-06T09:09:46.907Z</time></trkpt><trkpt lat="43.3474817" lon="11.9796517"><ele>285.0</ele><time>2026-04-06T09:09:47.92Z</time></trkpt><trkpt lat="43.34755" lon="11.9797883"><ele>285.0</ele><time>2026-04-06T09:09:49.908Z</time></trkpt><trkpt lat="43.3476133" lon="11.979915"><ele>285.0</ele><time>2026-04-06T09:09:51.903Z</time></trkpt><trkpt lat="43.3476883" lon="11.98004"><ele>285.0</ele><time>2026-04-06T09:09:53.906Z</time></trkpt><trkpt lat="43.3477617" lon="11.9801667"><ele>285.0</ele><time>2026-04-06T09:09:55.91Z</time></trkpt><trkpt lat="43.3478383" lon="11.98028"><ele>285.0</ele><time>2026-04-06T09:09:57.9Z</time></trkpt><trkpt lat="43.3479083" lon="11.9803933"><ele>285.0</ele><time>2026-04-06T09:09:59.902Z</time></trkpt><trkpt lat="43.34798" lon="11.9804983"><ele>285.0</ele><time>2026-04-06T09:10:01.911Z</time></trkpt><trkpt lat="43.3480467" lon="11.9806067"><ele>285.0</ele><time>2026-04-06T09:10:03.912Z</time></trkpt><trkpt lat="43.3481083" lon="11.9807133"><ele>285.0</ele><time>2026-04-06T09:10:05.909Z</time></trkpt><trkpt lat="43.34816" lon="11.98082"><ele>285.0</ele><time>2026-04-06T09:10:07.905Z</time></trkpt><trkpt lat="43.3482133" lon="11.9809183"><ele>285.0</ele><time>2026-04-06T09:10:09.908Z</time></trkpt><trkpt lat="43.348265" lon="11.981015"><ele>285.0</ele><time>2026-04-06T09:10:11.905Z</time></trkpt><trkpt lat="43.3483067" lon="11.9811083"><ele>285.0</ele><time>2026-04-06T09:10:13.905Z</time></trkpt><trkpt lat="43.3483467" lon="11.98119"><ele>285.0</ele><time>2026-04-06T09:10:15.906Z</time></trkpt><trkpt lat="43.3484017" lon="11.9812967"><ele>285.0</ele><time>2026-04-06T09:10:18.904Z</time></trkpt><trkpt lat="43.3484433" lon="11.9813733"><ele>285.0</ele><time>2026-04-06T09:10:20.906Z</time></trkpt><trkpt lat="43.3484817" lon="11.981445"><ele>285.0</ele><time>2026-04-06T09:10:22.906Z</time></trkpt><trkpt lat="43.3485283" lon="11.98152"><ele>285.0</ele><time>2026-04-06T09:10:24.903Z</time></trkpt><trkpt lat="43.3485783" lon="11.98159"><ele>285.0</ele><time>2026-04-06T09:10:26.909Z</time></trkpt><trkpt lat="43.3486217" lon="11.9816667"><ele>285.0</ele><time>2026-04-06T09:10:28.9Z</time></trkpt><trkpt lat="43.3486567" lon="11.981755"><ele>285.0</ele><time>2026-04-06T09:10:30.914Z</time></trkpt><trkpt lat="43.3486917" lon="11.9818433"><ele>285.3333333333333</ele><time>2026-04-06T09:10:32.917Z</time></trkpt><trkpt lat="43.34872" lon="11.9819417"><ele>285.6666666666667</ele><time>2026-04-06T09:10:34.906Z</time></trkpt><trkpt lat="43.34874" lon="11.982035"><ele>286.0</ele><time>2026-04-06T09:10:36.903Z</time></trkpt><trkpt lat="43.3487633" lon="11.982135"><ele>286.33333333333337</ele><time>2026-04-06T09:10:38.902Z</time></trkpt><trkpt lat="43.3487867" lon="11.9822467"><ele>286.6666666666667</ele><time>2026-04-06T09:10:40.901Z</time></trkpt><trkpt lat="43.348805" lon="11.9823433"><ele>287.0</ele><time>2026-04-06T09:10:42.905Z</time></trkpt><trkpt lat="43.3488333" lon="11.9824333"><ele>287.1666666666667</ele><time>2026-04-06T09:10:44.9Z</time></trkpt><trkpt lat="43.3488633" lon="11.982515"><ele>287.33333333333337</ele><time>2026-04-06T09:10:46.908Z</time></trkpt><trkpt lat="43.3489033" lon="11.9826067"><ele>287.5</ele><time>2026-04-06T09:10:48.912Z</time></trkpt><trkpt lat="43.348945" lon="11.9826933"><ele>287.6666666666667</ele><time>2026-04-06T09:10:50.904Z</time></trkpt><trkpt lat="43.3489867" lon="11.98277"><ele>287.8333333333333</ele><time>2026-04-06T09:10:52.923Z</time></trkpt><trkpt lat="43.3490267" lon="11.9828783"><ele>288.0</ele><time>2026-04-06T09:10:55.913Z</time></trkpt><trkpt lat="43.3490683" lon="11.9829683"><ele>288.00000000000006</ele><time>2026-04-06T09:10:58.911Z</time></trkpt><trkpt lat="43.349095" lon="11.9830633"><ele>288.0</ele><time>2026-04-06T09:11:01.919Z</time></trkpt><trkpt lat="43.3491217" lon="11.9831583"><ele>288.0</ele><time>2026-04-06T09:11:04.913Z</time></trkpt><trkpt lat="43.3491433" lon="11.9832667"><ele>288.0</ele><time>2026-04-06T09:11:08.91Z</time></trkpt><trkpt lat="43.3491533" lon="11.9833633"><ele>288.0</ele><time>2026-04-06T09:11:11.912Z</time></trkpt><trkpt lat="43.3491683" lon="11.983465"><ele>288.00000000000006</ele><time>2026-04-06T09:11:15.907Z</time></trkpt><trkpt lat="43.34919" lon="11.983555"><ele>288.0</ele><time>2026-04-06T09:11:18.914Z</time></trkpt><trkpt lat="43.3492117" lon="11.98364"><ele>288.3333333333333</ele><time>2026-04-06T09:11:21.901Z</time></trkpt><trkpt lat="43.3492317" lon="11.9837417"><ele>288.6666666666667</ele><time>2026-04-06T09:11:25.917Z</time></trkpt><trkpt lat="43.3492383" lon="11.9838517"><ele>289.0</ele><time>2026-04-06T09:11:29.907Z</time></trkpt><trkpt lat="43.3492567" lon="11.9839517"><ele>289.33333333333337</ele><time>2026-04-06T09:11:32.91Z</time></trkpt><trkpt lat="43.34927" lon="11.9840517"><ele>289.6666666666667</ele><time>2026-04-06T09:11:34.908Z</time></trkpt><trkpt lat="43.349285" lon="11.984195"><ele>290.0</ele><time>2026-04-06T09:11:36.906Z</time></trkpt><trkpt lat="43.349285" lon="11.9843567"><ele>290.0</ele><time>2026-04-06T09:11:38.909Z</time></trkpt><trkpt lat="43.3492883" lon="11.9845233"><ele>290.0</ele><time>2026-04-06T09:11:40.903Z</time></trkpt><trkpt lat="43.3492983" lon="11.9846833"><ele>290.0</ele><time>2026-04-06T09:11:42.91Z</time></trkpt><trkpt lat="43.3493117" lon="11.9848383"><ele>290.0</ele><time>2026-04-06T09:11:44.917Z</time></trkpt><trkpt lat="43.349355" lon="11.9849833"><ele>291.2</ele><time>2026-04-06T09:11:46.914Z</time></trkpt><trkpt lat="43.34939" lon="11.9851183"><ele>292.4</ele><time>2026-04-06T09:11:48.918Z</time></trkpt><trkpt lat="43.3494283" lon="11.9852433"><ele>293.6</ele><time>2026-04-06T09:11:50.916Z</time></trkpt><trkpt lat="43.3494617" lon="11.9853617"><ele>294.8</ele><time>2026-04-06T09:11:52.925Z</time></trkpt><trkpt lat="43.349485" lon="11.9854783"><ele>296.0</ele><time>2026-04-06T09:11:54.908Z</time></trkpt><trkpt lat="43.3495017" lon="11.98559"><ele>296.0</ele><time>2026-04-06T09:11:56.911Z</time></trkpt><trkpt lat="43.3495117" lon="11.9856867"><ele>296.0</ele><time>2026-04-06T09:11:58.908Z</time></trkpt><trkpt lat="43.3495267" lon="11.9857717"><ele>296.0</ele><time>2026-04-06T09:12:00.916Z</time></trkpt><trkpt lat="43.34954" lon="11.9858617"><ele>296.0</ele><time>2026-04-06T09:12:03.916Z</time></trkpt><trkpt lat="43.3495683" lon="11.9859517"><ele>296.0</ele><time>2026-04-06T09:12:06.902Z</time></trkpt><trkpt lat="43.349595" lon="11.9860583"><ele>296.0</ele><time>2026-04-06T09:12:10.914Z</time></trkpt><trkpt lat="43.3496217" lon="11.9861617"><ele>296.0</ele><time>2026-04-06T09:12:14.908Z</time></trkpt><trkpt lat="43.349645" lon="11.986245"><ele>296.0</ele><time>2026-04-06T09:12:17.918Z</time></trkpt><trkpt lat="43.3496683" lon="11.98634"><ele>296.0</ele><time>2026-04-06T09:12:21.907Z</time></trkpt><trkpt lat="43.34969" lon="11.9864317"><ele>296.0</ele><time>2026-04-06T09:12:25.91Z</time></trkpt><trkpt lat="43.3497117" lon="11.9865133"><ele>296.0</ele><time>2026-04-06T09:12:28.908Z</time></trkpt><trkpt lat="43.34974" lon="11.9865967"><ele>296.0</ele><time>2026-04-06T09:12:31.912Z</time></trkpt><trkpt lat="43.3497567" lon="11.9866867"><ele>296.0</ele><time>2026-04-06T09:12:34.901Z</time></trkpt><trkpt lat="43.349775" lon="11.98677"><ele>296.0</ele><time>2026-04-06T09:12:37.909Z</time></trkpt><trkpt lat="43.34979" lon="11.986885"><ele>296.0</ele><time>2026-04-06T09:12:41.91Z</time></trkpt><trkpt lat="43.3498033" lon="11.9869767"><ele>296.0</ele><time>2026-04-06T09:12:44.911Z</time></trkpt><trkpt lat="43.34982" lon="11.987065"><ele>296.0</ele><time>2026-04-06T09:12:47.91Z</time></trkpt><trkpt lat="43.3498283" lon="11.987195"><ele>296.0</ele><time>2026-04-06T09:12:50.906Z</time></trkpt><trkpt lat="43.34984" lon="11.987285"><ele>296.0</ele><time>2026-04-06T09:12:52.91Z</time></trkpt><trkpt lat="43.3498483" lon="11.9873817"><ele>296.0</ele><time>2026-04-06T09:12:54.92Z</time></trkpt><trkpt lat="43.349855" lon="11.987475"><ele>296.0</ele><time>2026-04-06T09:12:56.9Z</time></trkpt><trkpt lat="43.3498683" lon="11.9875633"><ele>296.1666666666667</ele><time>2026-04-06T09:12:58.907Z</time></trkpt><trkpt lat="43.3498967" lon="11.987675"><ele>296.33333333333337</ele><time>2026-04-06T09:13:01.905Z</time></trkpt><trkpt lat="43.3499233" lon="11.98777"><ele>296.5</ele><time>2026-04-06T09:13:04.904Z</time></trkpt><trkpt lat="43.3499467" lon="11.98786"><ele>296.6666666666667</ele><time>2026-04-06T09:13:07.902Z</time></trkpt><trkpt lat="43.3499783" lon="11.9879583"><ele>296.8333333333333</ele><time>2026-04-06T09:13:10.901Z</time></trkpt><trkpt lat="43.350005" lon="11.988045"><ele>297.0</ele><time>2026-04-06T09:13:13.905Z</time></trkpt><trkpt lat="43.3500433" lon="11.9881317"><ele>297.0</ele><time>2026-04-06T09:13:16.903Z</time></trkpt><trkpt lat="43.35009" lon="11.98824"><ele>297.0</ele><time>2026-04-06T09:13:19.928Z</time></trkpt><trkpt lat="43.3501133" lon="11.9883317"><ele>297.0</ele><time>2026-04-06T09:13:21.911Z</time></trkpt><trkpt lat="43.3501517" lon="11.98841"><ele>297.0</ele><time>2026-04-06T09:13:23.911Z</time></trkpt><trkpt lat="43.3501933" lon="11.98848"><ele>297.0</ele><time>2026-04-06T09:13:25.907Z</time></trkpt><trkpt lat="43.3502783" lon="11.98854"><ele>297.0</ele><time>2026-04-06T09:13:28.918Z</time></trkpt><trkpt lat="43.3503367" lon="11.988585"><ele>297.4</ele><time>2026-04-06T09:13:30.909Z</time></trkpt><trkpt lat="43.3504" lon="11.9886133"><ele>297.79999999999995</ele><time>2026-04-06T09:13:32.905Z</time></trkpt><trkpt lat="43.350485" lon="11.9886683"><ele>298.2</ele><time>2026-04-06T09:13:34.912Z</time></trkpt><trkpt lat="43.350585" lon="11.988735"><ele>298.59999999999997</ele><time>2026-04-06T09:13:36.914Z</time></trkpt><trkpt lat="43.35068" lon="11.9888"><ele>299.0</ele><time>2026-04-06T09:13:38.903Z</time></trkpt><trkpt lat="43.3507733" lon="11.9888233"><ele>295.0</ele><time>2026-04-06T09:13:40.907Z</time></trkpt><trkpt lat="43.35086" lon="11.98881"><ele>295.0</ele><time>2026-04-06T09:13:42.916Z</time></trkpt><trkpt lat="43.350925" lon="11.988795"><ele>295.0</ele><time>2026-04-06T09:13:44.905Z</time></trkpt><trkpt lat="43.3510067" lon="11.9887483"><ele>295.0</ele><time>2026-04-06T09:13:47.91Z</time></trkpt></trkseg></trk></gpx>